[[{"header":{"parameterUnit":"m.s-1","parameterCategory":1,"la1":31.0,"la2":29.5877,"lo1":-88.7671,"lo2":-86.6584,"dy":0.0162,"dx":0.0185,"nx":115,"ny":88,"refTime":"2023-06-03T18:00:00:Z","depth":0,"parameterNumber":2,"parameterNumberName":"U-component_of_WINDS"},"data":[0.0,0.0,0.0,0.0,0.0,0.0,0.0,0.0,0.0,0.0,0.0,0.0,0.0,0.0,0.0,0.0,0.0,0.0,0.0,0.0,0.0,0.0,0.0,0.0,0.0,0.0,0.0,0.0,0.0,0.0,0.0,0.0,0.0,0.0,0.0,0.0,0.0,0.0,0.0,0.0,0.0,0.0,0.0,0.0,0.0,0.0,0.0,0.0,0.0,0.0,0.0,0.0,0.0,0.0,0.0,0.0,0.0,0.0,0.0,0.0,0.0,0.0,0.0,0.0,0.0,0.0,0.0,0.0,0.0,0.0,0.0,0.0,0.0,0.0,0.0,0.0,0.0,0.0,0.0,0.0,0.0,0.0,0.0,0.0,0.0,0.0,0.0,0.0,0.0,0.0,0.0,0.0,0.0,0.0,0.0,0.0,0.0,0.0,0.0,0.0,0.0,0.0,0.0,0.0,0.0,0.0,0.0,0.0,0.0,0.0,0.0,0.0,0.0,0.0,0.0,0.0,0.0,0.0,0.0,0.0,0.0,0.0,0.0,0.0,0.0,0.0,0.0,0.0,0.0,0.0,0.0,0.0,0.0,0.0,0.0,0.0,0.0,0.0,0.0,0.0,0.0,0.0,0.0,0.0,0.0,0.0,0.0,0.0,0.0,0.0,0.0,0.0,0.0,0.0,0.0,0.0,0.0,0.0,0.0,0.0,0.0,0.0,0.0,0.0,0.0,0.0,0.0,0.0,0.0,0.0,0.0,0.0,0.0,0.0,0.0,0.0,0.0,0.0,0.0,0.0,0.0,0.0,0.0,0.0,0.0,0.0,0.0,0.0,0.0,0.0,0.0,0.0,0.0,0.0,0.0,0.0,0.0,0.0,0.0,0.0,0.0,0.0,0.0,0.0,0.0,0.0,0.0,0.0,0.0,0.0,0.0,0.0,0.0,0.0,0.0,0.0,0.0,0.0,0.0,0.0,0.0,0.0,0.0,0.0,0.0,0.0,0.0,0.0,0.0,0.0,0.0,0.0,0.0,0.0,0.0,0.0,0.0,0.0,0.0,0.0,0.0,0.0,0.0,0.0,0.0,0.0,0.0,0.0,0.0,0.0,0.0,0.0,0.0,0.0,0.0,0.0,0.0,0.0,0.0,0.0,0.0,0.0,0.0,0.0,0.0,0.0,0.0,0.0,0.0,0.0,0.0,0.0,0.0,0.0,0.0,0.0,0.0,0.0,0.0,0.0,0.0,0.0,0.0,0.0,0.0,0.0,0.0,0.0,0.0,0.0,0.0,0.0,0.0,0.0,0.0,0.0,0.0,0.0,0.0,0.0,0.0,0.0,0.0,0.0,0.0,0.0,0.0,0.0,0.0,0.0,0.0,0.0,0.0,0.0,0.0,0.0,0.0,0.0,0.0,0.0,0.0,0.0,0.0,0.0,0.0,0.0,0.0,0.0,0.0,0.0,0.0,0.0,0.0,0.0,0.0,0.0,0.0,0.0,0.0,0.0,0.0,0.0,0.0,0.0,0.0,0.0,0.0,0.0,0.0,0.0,0.0,0.0,0.0,0.0,0.0,0.0,0.0,0.0,0.0,0.0,0.0,0.0,0.0,0.0,0.0,0.0,0.0,0.0,0.0,0.0,0.0,0.0,0.0,0.0,0.0,0.0,0.0,0.0,0.0,0.0,0.0,0.0,0.0,0.0,0.0,0.0,0.0,0.0,0.0,0.0,0.0,0.0,0.0,0.0,0.0,0.0,0.0,0.0,0.0,0.0,0.0,0.0,0.0,0.0,0.0,0.0,0.0,0.0,0.0,0.0,0.0,0.0,0.0,0.0,0.0,0.0,0.0,0.0,0.0,0.0,0.0,0.0,0.0,0.0,0.0,0.0,0.0,0.0,0.0,0.0,0.0,0.0,0.0,0.0,0.0,0.0,0.0,0.0,0.0,0.0,0.0,0.0,0.0,0.0,0.0,0.0,0.0,0.0,0.0,0.0,0.0,0.0,0.0,0.0,0.0,0.0,0.0,0.0,0.0,0.0,0.0,0.0,0.0,0.0,0.0,0.0,0.0,0.0,0.0,0.0,0.0,0.0,0.0,0.0,0.0,0.0,0.0,0.0,0.0,0.0,0.0,0.0,0.0,0.0,0.0,0.0,0.0,0.0,0.0,0.0,0.0,0.0,0.0,0.0,0.0,0.0,0.0,0.0,0.0,0.0,0.0,0.0,0.0,0.0,0.0,0.0,0.0,0.0,0.0,0.0,0.0,0.0,0.0,0.0,0.0,0.0,0.0,0.0,0.0,0.0,0.0,0.0,0.0,0.0,0.0,0.0,0.0,0.0,0.0,0.0,0.0,0.0,0.0,0.0,0.0,0.0,0.0,0.0,0.0,0.0,0.0,0.0,0.0,0.0,0.0,0.0,0.0,0.0,0.0,0.0,0.0,0.0,0.0,0.0,0.0,0.0,0.0,0.0,0.0,0.0,0.0,0.0,0.0,0.0,0.0,0.0,0.0,0.0,0.0,0.0,0.0,0.0,0.0,0.0,0.0,0.0,0.0,0.0,0.0,0.0,0.0,0.0,0.0,0.0,0.0,0.0,0.0,0.0,0.0,0.0,0.0,0.0,0.0,0.0,0.0,0.0,0.0,0.0,0.0,0.0,0.0,0.0,0.0,0.0,0.0,0.0,0.0,0.0,0.0,0.0,0.0,0.0,0.0,0.0,0.0,0.0,0.0,0.0,0.0,0.0,0.0,0.0,0.0,0.0,0.0,0.0,0.0,0.0,0.0,0.0,0.0,0.0,0.0,0.0,0.0,0.0,0.0,0.0,0.0,0.0,0.0,0.0,0.0,0.0,0.0,0.0,0.0,0.0,0.0,0.0,0.0,0.0,0.0,0.0,0.0,0.0,0.0,0.0,0.0,0.0,0.0,0.0,0.0,0.0,0.0,0.0,0.0,0.0,0.0,0.0,0.0,0.0,0.0,0.0,0.0,0.0,0.0,0.0,0.0,0.0,0.0,0.0,0.0,0.0,0.0,0.0,0.0,0.0,0.0,0.0,0.0,0.0,0.0,0.0,0.0,0.0,0.0,0.0,0.0,0.0,0.0,0.0,0.0,0.0,0.0,0.0,0.0,0.0,0.0,0.0,0.0,0.0,0.0,0.0,0.0,0.0,0.0,0.0,0.0,0.0,0.0,0.0,0.0,0.0,0.0,0.0,0.0,0.0,0.0,0.0,0.0,0.0,0.0,0.0,0.0,0.0,0.0,0.0,0.0,0.0,0.0,0.0,0.0,0.0,0.0,0.0,0.0,0.0,0.0,0.0,0.0,0.0,0.0,0.0,0.0,0.0,0.0,0.0,0.0,0.0,0.0,0.0,0.0,0.0,0.0,0.0,0.0,0.0,0.0,0.0,0.0,0.0,0.0,0.0,0.0,0.0,0.0,0.0,0.0,0.0,0.0,0.0,0.0,0.0,0.0,0.0,0.0,0.0,0.0,0.0,0.0,0.0,0.0,0.0,0.0,0.0,0.0,0.0,0.0,0.0,0.0,0.0,0.0,0.0,0.0,0.0,0.0,0.0,0.0,0.0,0.0,0.0,0.0,0.0,0.0,0.0,0.0,0.0,0.0,0.0,0.0,0.0,0.0,0.0,0.0,0.0,0.0,0.0,0.0,0.0,0.0,0.0,0.0,0.0,0.0,0.0,0.0,0.0,0.0,0.0,0.0,0.0,0.0,0.0,0.0,0.0,0.0,0.0,0.0,0.0,0.0,0.0,0.0,0.0,0.0,0.0,0.0,0.0,0.0,0.0,0.0,0.0,0.0,0.0,0.0,0.0,0.0,0.0,0.0,0.0,0.0,0.0,0.0,0.0,0.0,0.0,0.0,0.0,0.0,0.0,0.0,0.0,0.0,0.0,0.0,0.0,0.0,0.0,0.0,0.0,0.0,0.0,0.0,0.0,0.0,0.0,0.0,0.0,0.0,0.0,0.0,0.0,0.0,0.0,0.0,0.0,0.0,0.0,0.0,0.0,0.0,0.0,0.0,0.0,0.0,0.0,0.0,0.0,0.0,0.0,0.0,0.0,0.0,0.0,0.0,0.0,0.0,0.0,0.0,0.0,0.0,0.0,0.0,0.0,0.0,0.0,0.0,0.0,0.0,0.0,0.0,0.0,0.0,0.0,0.0,0.0,0.0,0.0,0.0,0.0,0.0,0.0,0.0,0.0,0.0,0.0,0.0,0.0,0.0,0.0,0.0,0.0,0.0,0.0,0.0,0.0,0.8908,0.0,0.0,0.0,0.0,0.0,0.0,0.0,0.0,0.0,0.0,0.0,0.0,0.0,0.0,0.0,0.0,0.0,0.0,0.0,0.0,0.0,0.0,0.0,0.0,0.0,0.0,0.0,0.0,0.0,0.0,0.0,0.0,0.0,0.0,0.0,0.0,0.0,0.0,0.0,0.0,0.0,0.0,0.0,0.0,0.0,0.0,0.0,0.0,0.0,0.0,0.0,0.0,0.0,0.0,0.0,0.0,0.0,0.0,0.0,0.0,0.0,0.0,0.0,0.0,0.0,0.0,0.0,0.0,0.0,0.0,0.0,0.0,0.0,0.0,0.0,0.0,0.0,0.0,0.0,0.0,0.0,0.0,0.0,0.0,0.0,0.0,0.0,0.0,0.0,0.0,0.0,0.0,0.0,0.0,0.0,0.0,0.0,0.0,0.0,0.0,0.0,0.0,0.0,0.0,0.0,0.0,0.0,0.0,0.0,0.0,0.9439,0.931,0.9177,0.9036,0.8891,0.0,0.0,0.0,0.0,0.0,0.0,0.0,0.0,0.0,0.0,0.0,0.0,0.0,0.0,0.0,0.0,0.0,0.0,0.0,0.0,0.0,0.0,0.0,0.0,0.0,0.0,0.0,0.0,0.0,0.0,0.0,0.0,0.0,0.0,0.0,0.0,0.0,0.0,0.0,0.0,0.0,0.0,0.0,0.0,0.0,0.0,0.0,0.0,0.0,0.0,0.0,0.0,0.0,0.0,0.0,0.0,0.0,0.0,0.0,0.0,0.0,0.0,0.0,0.0,0.0,0.0,0.0,0.0,0.0,0.0,0.0,0.0,0.0,0.0,0.0,0.0,0.0,0.0,0.0,0.0,0.0,0.0,0.0,0.0,0.0,0.0,0.0,0.0,0.0,0.0,0.0,0.0,0.0,0.0,0.0,0.0,0.0,0.0,0.0,0.0,0.0,0.0,0.0,0.0,0.0,0.0,0.0,0.0,0.0,0.0,0.0,0.0,0.9146,0.8983,0.8824,0.0,0.0,0.0,0.0,0.0,0.0,0.0,0.0,0.0,0.0,0.0,0.0,0.0,0.0,0.0,0.0,0.0,0.0,0.0,0.0,0.0,0.0,0.0,0.0,0.0,0.0,0.0,0.0,0.0,0.0,0.0,0.0,0.0,0.0,0.0,0.0,0.0,0.0,0.0,0.0,0.0,0.0,0.0,0.0,0.0,0.0,0.0,0.0,0.0,0.0,0.0,0.0,0.0,0.0,0.0,0.0,0.0,0.0,0.0,0.0,0.0,0.0,0.0,0.0,0.0,0.0,0.0,0.0,0.0,0.0,0.0,0.0,0.0,0.0,0.0,0.0,0.0,0.0,0.0,0.0,0.0,0.0,0.0,0.0,0.0,0.0,0.0,0.0,0.0,0.0,0.0,0.0,0.0,0.0,0.0,0.0,0.0,0.0,0.0,0.0,0.0,0.0,0.0,0.0,0.0,0.0,0.0,0.0,0.0,0.0,0.9348,0.9226,0.9068,0.0,0.8575,0.0,0.0,0.0,0.0,0.0,0.0,0.0,0.0,0.0,0.0,0.0,0.0,0.0,0.0,0.0,0.0,0.0,0.0,0.0,0.0,0.0,0.0,0.0,0.0,0.0,0.0,0.0,0.0,0.0,0.0,0.0,0.0,0.0,0.0,0.0,0.0,0.0,0.0,0.0,0.0,0.0,0.0,0.0,0.0,0.0,0.0,0.0,0.0,0.0,0.0,0.0,0.0,0.0,0.0,0.0,0.0,0.0,0.0,0.0,0.0,0.0,0.0,0.0,0.0,0.0,0.0,0.0,0.0,0.0,0.0,0.0,0.0,0.0,0.0,0.0,0.0,0.0,0.0,0.0,0.0,0.0,0.0,0.0,0.0,0.0,0.0,0.0,0.0,0.0,0.0,0.0,0.0,0.0,0.0,0.0,0.0,0.0,0.0,0.0,0.0,0.0,0.0,0.0,0.0,0.0,0.0,0.0,0.0,0.0,0.0,0.933,0.9181,0.9022,0.8818,0.0,0.0,0.0,0.0,0.0,0.0,0.0,0.0,0.0,0.0,0.0,0.0,0.0,0.0,0.0,0.0,0.0,0.0,0.0,0.0,0.0,0.0,0.0,0.0,0.0,0.0,0.0,0.0,0.0,0.0,0.0,0.0,0.0,0.0,0.0,0.0,0.0,0.0,0.0,0.0,0.0,0.0,0.0,0.0,0.0,0.0,0.0,0.0,0.0,0.0,0.0,0.0,0.0,0.0,0.0,0.0,0.0,0.0,0.0,0.0,0.0,0.0,0.0,0.0,0.0,0.0,0.0,0.0,0.0,0.0,0.0,0.0,0.0,0.0,0.0,0.0,0.0,0.0,0.0,0.0,0.0,0.0,0.0,0.0,0.0,0.0,0.0,0.0,0.0,0.0,0.0,0.0,0.0,0.0,0.0,0.0,0.0,0.0,0.0,0.0,0.0,0.0,0.0,0.0,0.0,0.0,0.0,0.0,0.0,0.0,0.9009,0.932,0.9139,0.8964,0.8776,0.8575,0.0,0.0,0.0,0.0,0.0,0.0,0.0,0.0,0.0,0.0,0.0,0.0,0.0,0.0,0.0,0.0,0.0,0.0,0.0,0.0,0.0,0.0,0.0,0.0,0.0,0.0,0.0,0.0,0.0,0.0,0.0,0.0,0.0,0.0,0.0,0.0,0.0,0.0,0.0,0.0,0.0,0.0,0.0,0.0,0.0,0.0,0.0,0.0,0.0,0.0,0.0,0.0,0.0,0.0,0.0,0.0,0.0,0.0,0.0,0.0,0.0,0.0,0.0,0.0,0.0,0.0,0.0,0.0,0.0,0.0,0.0,0.0,0.0,0.0,0.0,0.0,0.0,0.0,0.0,0.0,0.0,0.0,0.0,0.0,0.0,0.0,0.0,0.0,0.0,0.0,0.0,0.0,0.0,0.0,0.0,0.0,0.0,0.0,0.0,0.0,0.0,0.0,0.0,0.0,0.0,0.0,0.0,0.0,0.0,0.9027,0.929,0.9022,0.8886,0.8729,0.0,0.0,0.0,0.0,0.0,0.0,0.0,0.0,0.0,0.0,0.0,0.0,0.0,0.0,0.0,0.0,0.0,0.0,0.0,0.0,0.0,0.0,0.0,0.0,0.0,0.0,0.0,0.0,0.0,0.0,0.0,0.0,0.0,0.0,0.0,0.0,0.0,0.0,0.0,0.0,0.0,0.0,0.0,0.0,0.0,0.0,0.0,0.0,0.0,0.0,0.0,0.0,0.0,0.0,0.0,0.0,0.0,0.0,0.0,0.0,0.0,0.0,0.0,0.0,0.0,0.0,0.0,0.0,0.0,0.0,0.0,0.0,0.0,0.0,0.0,0.0,0.0,0.0,0.0,0.0,0.0,0.0,0.0,0.0,0.0,0.0,0.0,0.0,0.0,0.0,0.0,0.0,0.0,0.0,0.0,0.0,0.0,0.0,0.0,0.0,0.0,0.0,0.0,0.0,0.0,0.0,0.0,0.0,0.0,0.7574,0.8655,0.9187,0.9011,0.8863,0.8693,0.0,0.0,0.0,0.0,0.0,0.0,0.0,0.0,0.0,0.0,0.0,0.0,0.0,0.0,0.0,0.0,0.0,0.0,0.0,0.0,0.0,0.0,0.0,0.0,0.0,0.0,0.0,0.0,0.0,0.0,0.0,0.0,0.0,0.0,0.0,0.0,0.0,0.0,0.0,0.0,0.0,0.0,0.0,0.0,0.0,0.0,0.0,0.0,0.0,0.0,0.0,0.0,0.0,0.0,0.0,0.0,0.0,0.0,0.0,0.0,0.0,0.0,0.0,0.0,0.0,0.0,0.0,0.0,0.0,0.0,0.0,0.0,0.0,0.0,0.0,0.0,0.0,0.0,0.0,0.0,0.0,0.0,0.0,0.0,0.0,0.0,0.0,0.0,0.0,0.0,0.0,0.0,0.0,0.0,0.0,0.0,0.0,0.0,0.0,0.0,0.0,0.0,0.0,0.0,0.0,0.0,0.0,0.0,0.0,0.7893,0.0,0.9146,0.0,0.8863,0.8661,0.0,0.0,0.0,0.0,0.0,0.0,0.0,0.0,0.0,0.0,0.0,0.0,0.0,0.0,0.0,0.0,0.0,0.0,0.0,0.0,0.0,0.0,0.0,0.0,0.0,0.0,0.0,0.0,0.0,0.0,0.0,0.0,0.0,0.0,0.0,0.0,0.0,0.0,0.0,0.0,0.0,0.0,0.0,0.0,0.0,0.0,0.0,0.0,0.0,0.0,0.0,0.0,0.0,0.0,0.0,0.0,0.0,0.0,0.0,0.0,0.0,0.0,0.0,0.0,0.0,0.0,0.0,0.0,0.0,0.0,0.0,0.0,0.0,0.0,0.0,0.0,0.0,0.0,0.0,0.0,0.0,0.0,0.0,0.0,0.0,0.0,0.0,0.0,0.0,0.0,0.0,0.0,0.0,0.0,0.0,0.0,0.0,0.0,0.0,0.0,0.0,0.0,0.0,0.0,0.0,0.0,0.0,0.0,0.8076,0.9402,0.9285,0.9119,0.9013,0.8794,0.8579,0.0,0.0,0.0,0.0,0.0,0.0,0.0,0.0,0.0,0.0,0.0,0.0,0.0,0.0,0.0,0.0,0.0,0.0,0.0,0.0,0.0,0.0,0.0,0.0,0.0,0.0,0.0,0.0,0.0,0.0,0.0,0.0,0.0,0.0,0.0,0.0,0.0,0.0,0.0,0.0,0.0,0.0,0.0,0.0,0.0,0.0,0.0,0.0,0.0,0.0,0.0,0.0,0.0,0.0,0.0,0.0,0.0,0.0,0.0,0.0,0.0,0.0,0.0,0.0,0.0,0.0,0.0,0.0,0.0,0.0,0.0,0.0,0.0,0.0,0.0,0.0,0.0,0.0,0.0,0.0,0.0,0.0,0.0,0.0,0.0,0.0,0.0,0.0,0.0,0.0,0.0,0.0,0.0,0.0,0.0,0.0,0.0,0.0,0.0,0.0,0.0,0.0,0.0,0.0,0.0,0.0,0.0,0.0,0.0,0.9435,0.9358,0.9171,0.9019,0.8812,0.8558,0.0,0.0,0.0,0.0,0.0,0.0,0.0,0.0,0.0,0.0,0.0,0.0,0.0,0.0,0.0,0.0,0.0,0.0,0.0,0.0,0.0,0.0,0.0,0.0,0.0,0.0,0.0,0.0,0.0,0.0,0.0,0.0,0.0,0.0,0.0,0.0,0.0,0.0,0.0,0.0,0.0,0.0,0.0,0.0,0.0,0.0,0.0,0.0,0.0,0.0,0.0,0.0,0.0,0.0,0.0,0.0,0.0,0.0,0.0,0.0,0.0,0.0,0.0,0.0,0.0,0.0,0.0,0.0,0.0,0.0,0.0,0.0,0.0,0.0,0.0,0.0,0.0,0.0,0.0,0.0,0.0,0.0,0.0,0.0,0.0,0.0,0.0,0.0,0.0,0.0,0.0,0.0,0.0,0.0,0.0,0.0,0.0,0.0,0.0,0.0,0.0,0.0,0.0,0.0,0.0,0.0,0.0,0.0,0.0,1.002,0.9888,0.9819,0.9841,0.9345,0.8899,0.8593,0.0,0.0,0.0,0.0,0.0,0.0,0.0,0.0,0.0,0.0,0.0,0.0,0.0,0.0,0.0,0.0,0.0,0.0,0.0,0.0,0.0,0.0,0.0,0.0,0.0,0.0,0.0,0.0,0.0,0.0,0.0,0.0,0.0,0.0,0.0,0.0,0.0,0.0,0.0,0.0,0.0,0.0,0.0,0.0,0.0,0.0,0.0,0.0,0.0,0.0,0.0,0.0,0.0,0.0,0.0,0.0,0.0,0.0,0.0,0.0,0.0,0.0,0.0,0.0,0.0,0.0,0.0,0.0,0.0,0.0,0.0,0.0,0.0,0.0,0.0,0.0,0.0,0.0,0.0,0.0,0.0,0.0,0.0,0.0,0.0,0.0,0.0,0.0,0.0,0.0,0.0,0.0,0.0,0.0,0.0,0.0,0.0,0.0,0.0,0.0,0.0,0.0,0.0,0.0,0.0,0.0,0.0,0.0,1.1156,1.0884,1.0926,1.1256,1.0256,0.9547,0.0,0.0,0.0,0.0,0.0,0.0,0.0,0.0,0.0,0.0,0.0,0.0,0.0,0.0,0.0,0.0,0.0,0.0,0.0,0.0,0.0,0.0,0.0,0.0,0.0,0.0,0.0,0.0,0.0,0.0,0.0,0.0,0.0,0.0,0.0,0.0,0.0,0.0,0.0,0.0,0.0,0.0,0.0,0.0,0.0,0.0,0.0,0.0,0.0,0.0,0.0,0.0,0.0,0.0,0.0,0.0,0.0,0.0,0.0,0.0,0.0,0.0,0.0,0.0,0.0,0.0,0.0,0.0,0.0,0.0,0.0,0.0,0.0,0.0,0.0,0.0,0.0,0.0,0.0,0.0,0.0,0.0,0.0,0.0,0.0,0.0,0.0,0.0,0.0,0.0,0.0,0.0,0.0,0.0,0.0,0.0,0.0,0.0,0.0,0.0,0.0,0.0,0.0,0.0,0.0,0.0,0.0,0.0,0.0,1.207,1.2488,1.2256,1.1387,1.038,0.9683,0.0,0.0,0.0,0.0,0.0,0.0,0.0,0.0,0.0,0.0,0.0,0.0,0.0,0.0,0.0,0.0,0.0,0.0,0.0,0.0,0.0,0.0,0.0,0.0,0.0,0.0,0.0,0.0,0.0,0.0,0.0,0.0,0.0,0.0,0.0,0.0,0.0,0.0,0.0,0.0,0.0,0.0,0.0,0.0,0.0,0.0,0.0,0.0,0.0,0.0,0.0,0.0,0.0,0.0,0.0,0.0,0.0,0.0,0.0,0.0,0.0,0.0,0.0,0.0,0.0,0.0,0.0,0.0,0.0,0.0,0.0,0.0,0.0,0.0,0.0,0.0,0.0,0.0,0.0,0.0,0.0,0.0,0.0,0.0,0.0,0.0,0.0,0.0,0.0,0.0,0.0,0.0,0.0,0.0,0.0,0.0,0.0,0.0,0.0,0.0,0.0,0.0,0.0,0.0,0.0,0.0,0.0,0.0,1.1334,1.2512,1.3156,1.3207,1.2639,1.1524,1.0565,0.0,0.0,0.0,0.0,0.0,0.0,0.0,0.0,0.0,0.0,0.0,0.0,0.0,0.0,0.0,0.0,0.0,0.0,0.0,0.0,0.0,0.0,0.0,0.0,0.0,0.0,0.0,0.0,0.0,0.0,0.0,0.0,0.0,0.0,0.0,0.0,0.0,0.0,0.0,0.0,0.0,0.0,0.0,0.0,0.0,0.0,0.0,0.0,0.0,0.0,0.0,0.0,0.0,0.0,0.0,0.0,0.0,0.0,0.0,0.0,0.0,0.0,0.0,0.0,0.0,0.0,0.0,0.0,0.0,0.0,0.0,0.0,0.0,0.0,0.0,0.0,0.0,0.0,0.0,0.0,0.0,0.0,0.0,0.0,0.0,0.0,0.0,0.0,0.0,0.0,0.0,0.0,0.0,0.0,0.0,0.0,0.0,0.0,0.0,0.0,0.0,0.0,0.0,0.0,0.0,0.0,0.0,0.0,1.1932,1.2607,1.3361,1.395,1.4253,1.3041,1.1808,0.0,0.0,0.0,0.0,0.0,0.0,0.0,0.0,0.0,0.0,0.0,0.0,0.0,0.0,0.0,0.0,0.0,0.0,0.0,0.0,0.0,0.0,0.0,0.0,0.0,0.0,0.0,0.0,0.0,0.0,0.0,0.0,0.0,0.0,0.0,0.0,0.0,0.0,0.0,0.0,0.0,0.0,0.0,0.0,0.0,0.0,0.0,0.0,0.0,0.0,0.0,0.0,0.0,0.0,0.0,0.0,0.0,0.0,0.0,0.0,0.0,0.0,0.0,0.0,0.0,0.0,0.0,0.0,0.0,0.0,0.0,0.0,0.0,0.0,0.0,0.0,0.0,0.0,0.0,0.0,0.0,0.0,0.0,0.0,0.0,0.0,0.0,0.0,0.0,0.0,0.0,0.0,0.0,0.0,0.0,0.0,0.0,0.0,0.0,0.0,0.0,0.0,0.0,0.0,0.0,0.0,0.0,0.0,1.2577,1.2699,1.4042,1.471,1.4522,1.3304,1.2054,0.0,0.0,0.0,0.0,0.0,0.0,0.0,0.0,0.0,0.0,0.0,0.0,0.0,0.0,0.0,0.0,0.0,0.0,0.0,0.0,0.0,0.0,0.0,0.0,0.0,0.0,0.0,0.0,0.0,0.0,0.0,0.0,0.0,0.0,0.0,0.0,0.0,0.0,0.0,0.0,0.0,0.0,0.0,0.0,0.0,0.0,0.0,0.0,1.0767,0.0,0.0,0.0,0.0,0.0,0.0,0.0,0.0,0.0,0.0,0.0,0.0,0.0,0.0,0.0,0.0,0.0,0.0,0.0,0.0,0.0,0.0,0.0,0.0,0.0,0.0,0.0,0.0,0.0,0.0,0.0,0.0,0.0,0.0,0.0,0.0,0.0,0.0,0.0,0.0,0.0,0.0,0.0,0.0,0.0,0.0,0.0,0.0,0.0,0.0,0.0,0.0,0.0,0.0,0.0,0.0,0.0,0.0,0.0,1.2784,1.2796,1.4326,1.5018,1.4707,1.3552,1.2343,0.0,0.0,0.0,0.0,0.0,0.0,0.0,0.0,0.0,0.0,0.0,0.0,0.0,0.0,0.0,0.0,0.0,0.0,0.0,0.0,0.0,0.0,0.0,0.0,0.0,0.0,0.0,0.0,0.0,0.0,0.0,0.0,0.0,0.0,0.0,0.0,0.0,0.0,0.0,0.0,0.0,0.0,0.0,0.0,0.0,0.0,0.0,0.0,0.0,0.0,0.0,0.0,0.0,0.0,0.0,0.0,0.0,0.0,0.0,0.0,0.0,0.0,0.0,0.0,0.0,0.0,0.0,0.0,0.0,0.0,0.0,0.0,0.0,0.0,0.0,0.0,0.0,0.0,0.0,0.0,0.0,0.0,0.0,0.0,0.0,0.0,0.0,0.0,0.0,0.0,0.0,0.0,0.0,0.0,0.0,0.0,0.0,0.0,0.0,0.0,0.0,0.0,0.0,0.0,0.0,0.0,0.0,1.1472,1.2792,1.2862,1.4369,1.5062,1.4737,1.3756,1.2579,1.1259,0.0,0.0,0.0,0.0,0.0,0.0,0.0,0.0,0.0,0.0,0.0,0.0,0.0,0.0,0.0,0.0,0.0,0.0,0.0,0.0,0.0,0.0,0.0,0.0,0.0,0.0,0.0,0.0,0.0,0.0,0.0,0.0,0.0,0.0,0.0,0.0,0.0,0.0,1.2205,1.1762,0.0,0.0,0.0,0.0,0.0,0.0,0.0,0.0,1.0431,0.0,0.0,0.0,0.0,0.0,0.0,0.0,0.0,0.0,0.0,0.0,0.0,0.0,0.0,0.0,0.0,0.0,0.0,0.0,0.0,0.0,0.0,0.0,0.0,0.0,0.0,0.0,0.0,0.0,0.0,0.0,0.0,0.0,0.0,0.0,0.0,0.0,0.0,0.0,0.0,0.0,0.0,0.0,0.0,0.0,0.0,0.0,0.0,0.0,0.0,0.0,0.0,0.0,0.0,0.0,0.0,0.8913,1.1466,1.2786,1.2825,1.4415,1.4866,1.401,1.3572,1.2519,1.0829,0.0,0.0,0.0,0.0,0.0,0.0,0.0,0.0,0.0,0.0,0.0,0.0,0.0,0.0,0.0,0.0,0.0,0.0,0.0,0.0,0.0,0.0,0.0,0.0,0.0,0.0,0.0,0.0,0.0,0.0,0.0,0.0,0.0,0.0,0.0,0.0,0.0,0.0,0.0,1.1711,1.1526,0.0,0.0,0.0,0.0,0.0,0.0,0.0,0.0,1.1186,0.0,0.0,0.0,0.0,0.0,0.0,0.0,0.0,0.0,0.0,0.0,0.0,0.0,0.0,0.0,0.0,0.0,0.0,0.0,0.0,0.0,0.0,0.0,0.0,0.0,0.0,0.0,0.0,0.0,0.0,0.0,0.0,0.0,0.0,0.0,0.0,0.0,0.0,0.0,0.0,0.0,0.0,0.0,0.0,0.0,0.0,0.0,0.0,0.0,0.0,0.0,0.0,0.0,0.0,0.0,0.9646,1.126,1.2125,1.2163,1.3319,1.3706,1.3179,1.2534,1.1723,0.0,0.0,0.0,0.0,0.0,0.0,0.0,0.0,0.0,0.0,0.0,0.0,0.0,0.0,0.0,0.0,0.0,0.0,0.0,0.0,0.0,0.0,0.0,0.0,0.0,0.0,0.0,0.0,0.0,0.0,0.0,0.0,0.0,0.0,0.0,0.0,0.0,0.0,0.0,0.0,1.2441,1.2453,1.232,0.0,0.0,0.0,0.0,0.0,0.0,1.1374,1.1174,0.0,0.0,0.0,0.0,0.0,0.0,0.0,0.0,0.0,0.0,0.0,0.0,0.0,0.0,0.0,0.0,0.0,0.0,0.0,0.0,0.0,0.0,0.0,0.0,0.0,0.0,0.0,0.0,0.0,0.0,0.0,0.0,0.0,0.0,0.0,0.0,0.0,0.0,0.0,0.0,0.0,0.0,0.0,0.0,0.0,0.0,0.0,0.0,0.0,0.0,0.0,0.0,0.0,0.0,0.0,1.0197,1.1072,1.1503,1.1536,1.2298,1.2605,1.2342,1.156,1.0938,0.0,0.0,0.0,0.0,0.0,0.0,0.0,0.0,0.0,0.0,0.0,0.0,0.0,0.0,0.0,0.0,0.0,0.0,0.0,0.0,0.0,0.0,0.0,0.0,0.0,0.0,0.0,0.0,0.0,0.0,0.0,0.0,0.0,0.0,0.0,0.0,0.0,0.0,0.0,0.0,0.0,1.3356,1.317,1.2885,0.0,0.0,0.0,0.0,1.1908,1.1585,0.0,0.0,0.0,0.0,0.0,0.0,0.0,0.0,0.0,0.0,0.0,0.0,0.0,0.0,0.0,0.0,0.0,0.0,0.0,0.0,0.0,0.0,0.0,0.0,0.0,0.0,0.0,0.0,0.0,0.0,0.0,0.0,0.0,0.0,0.0,0.0,0.0,0.0,0.0,0.0,0.0,0.0,0.0,0.0,0.0,0.0,0.0,0.0,0.0,0.0,0.0,0.0,0.0,0.0,0.0,0.0,1.0224,1.1128,1.1561,1.1539,1.2345,1.2389,1.1561,1.1304,1.072,0.0,0.0,0.0,0.0,0.0,0.0,0.0,0.0,0.0,0.0,0.0,0.0,0.0,0.0,0.0,0.0,0.0,0.0,0.0,0.0,0.0,0.0,0.0,0.0,0.0,0.0,0.0,0.0,0.0,0.0,0.0,0.0,0.0,0.0,0.0,0.0,0.0,0.0,0.0,0.0,0.0,1.3382,1.3075,1.2844,1.2607,0.0,0.0,0.0,1.2278,1.2225,0.0,0.0,0.0,0.0,0.0,0.0,0.0,0.0,0.0,0.0,0.0,0.0,0.0,0.0,0.0,0.0,0.0,0.0,0.0,0.0,0.0,0.0,0.0,0.0,0.0,0.0,0.0,0.0,0.0,0.0,0.0,0.0,0.0,0.0,0.0,0.0,0.0,0.0,0.0,0.0,0.0,0.0,0.0,0.0,0.0,0.0,0.0,0.0,0.0,0.0,0.0,0.0,0.0,0.0,0.0,1.0228,1.0276,1.0663,1.0835,1.0764,1.1127,1.1102,1.0678,1.0538,1.022,0.0,0.0,0.0,0.0,0.0,0.0,0.0,0.0,0.0,0.0,0.0,0.0,0.0,0.0,0.0,0.0,0.0,0.0,0.0,0.0,0.0,0.0,0.0,0.0,0.0,0.0,0.0,0.0,0.0,0.0,0.0,0.0,0.0,0.0,0.0,0.0,0.0,0.0,0.0,0.0,0.0,0.0,1.4067,1.3785,0.0,0.0,0.0,1.281,1.2472,0.0,0.0,0.0,0.0,0.0,0.0,0.0,0.0,0.0,0.0,0.0,0.0,0.0,0.0,0.0,0.0,0.0,0.0,0.0,0.0,0.0,0.0,0.0,0.0,0.0,0.0,0.0,0.0,0.0,0.0,0.0,0.0,0.0,0.0,0.0,0.0,0.0,0.0,0.0,0.0,0.0,0.0,0.0,0.0,0.0,0.0,0.0,0.0,0.0,0.0,0.0,0.0,0.0,0.0,0.0,0.0,0.0,1.0283,1.0312,1.0265,1.0189,1.0185,1.0164,1.0093,0.9981,0.0,0.0,0.0,0.0,0.0,0.0,0.0,0.0,0.0,0.0,0.0,0.0,0.0,0.0,0.0,0.0,0.0,0.0,0.0,0.0,0.0,0.0,0.0,0.0,0.0,0.0,0.0,1.2569,0.0,0.0,0.0,0.0,0.0,0.0,0.0,0.0,0.0,0.0,0.0,0.0,0.0,0.0,1.5558,1.5193,1.4867,1.4466,0.0,0.0,1.318,1.2656,1.2132,1.1548,0.0,0.0,0.0,0.0,0.0,0.0,0.0,0.0,0.0,0.0,0.0,0.0,0.0,0.0,0.0,0.0,0.0,0.0,0.0,0.0,0.0,0.0,0.0,0.0,0.0,0.0,0.0,0.0,0.0,0.0,0.0,0.0,0.0,0.0,0.0,0.0,0.0,0.0,0.0,0.0,0.0,0.0,0.0,0.0,0.0,0.0,0.0,0.0,0.0,0.0,0.0,0.0,0.0,0.0,0.0,1.0308,1.0312,1.0262,1.0195,1.0188,1.0161,1.01,1.0043,0.9919,0.0,0.0,0.0,0.0,0.0,0.0,0.0,0.0,0.0,0.0,0.0,0.0,0.0,0.0,0.0,0.0,0.0,0.0,0.0,0.0,0.0,0.0,0.0,0.0,0.0,0.0,0.0,0.0,0.0,0.0,0.0,0.0,0.0,0.0,0.0,0.0,0.0,0.0,0.0,0.0,0.0,1.6626,1.6157,1.5761,1.5281,0.0,0.0,1.3679,1.2995,1.2404,1.1865,1.1281,0.0,0.0,0.0,0.0,0.0,0.0,0.0,0.0,0.0,0.0,0.0,0.0,0.0,0.0,0.0,0.0,0.0,0.0,0.0,0.0,0.0,0.0,0.0,0.0,0.0,0.0,0.0,0.0,0.0,0.0,0.0,0.0,0.0,0.0,0.0,0.0,0.0,0.0,0.0,0.0,0.0,0.0,0.0,0.0,0.0,0.0,0.0,0.0,0.0,0.0,0.0,0.0,0.0,1.0318,1.031,1.0312,1.0281,1.0195,1.0188,1.0161,1.01,1.0048,0.9919,0.0,0.0,0.0,0.0,0.0,0.0,0.0,0.0,0.0,0.0,0.0,0.0,0.0,0.0,0.0,0.0,0.0,0.0,0.0,0.0,0.0,0.0,0.0,0.0,0.0,0.0,0.0,0.0,1.4039,1.4383,1.4662,0.0,0.0,0.0,0.0,0.0,0.0,0.0,0.0,0.0,0.0,1.6586,1.6037,1.5522,0.0,0.0,1.3691,1.3065,1.2489,1.189,1.128,1.066,1.03,0.0,0.0,0.0,0.0,0.0,0.0,0.0,0.0,0.0,0.0,0.0,0.0,0.0,0.0,0.0,0.0,0.0,0.0,0.0,0.0,0.0,0.0,0.0,0.0,0.0,0.0,0.0,0.0,0.0,0.0,0.0,0.0,0.0,0.0,0.0,0.0,0.0,0.0,0.0,0.0,0.0,0.0,0.0,0.0,0.0,0.0,0.0,0.0,0.0,0.0,0.0,0.0,1.0922,1.0699,1.0703,1.0538,1.0201,1.0193,1.0164,1.0104,1.0034,0.9906,0.0,0.0,0.0,0.0,0.0,0.0,0.0,0.0,0.0,0.0,0.0,0.0,0.0,0.0,0.0,0.0,0.0,0.0,0.0,0.0,0.0,0.0,0.0,0.0,0.0,0.0,0.0,0.0,1.4745,1.518,1.5649,0.0,0.0,0.0,0.0,0.0,0.0,0.0,0.0,0.0,0.0,1.6927,1.6327,1.5698,1.5076,1.4364,1.3593,1.2901,1.2292,1.1626,1.1039,1.0463,0.0,0.0,0.0,0.0,0.0,0.0,0.0,0.0,0.0,0.0,0.0,0.0,0.0,0.0,0.0,0.0,0.0,0.0,0.0,0.0,0.0,0.0,0.0,0.0,0.0,0.0,0.0,0.0,0.0,0.0,0.8222,0.0,0.0,0.0,0.0,0.0,0.0,0.0,0.0,0.0,0.0,0.0,0.0,0.0,0.0,0.0,0.0,0.0,0.0,0.0,0.0,0.0,0.0,0.0,1.159,1.1582,1.1148,1.0269,1.0202,1.0231,1.0155,1.0049,0.9918,0.971,0.0,0.0,0.0,0.0,0.0,0.0,0.0,0.0,0.0,0.0,0.0,0.0,0.0,0.0,0.0,0.0,0.0,0.0,0.0,0.0,0.0,0.0,0.0,0.0,0.0,0.0,1.5852,1.5771,1.5863,0.0,0.0,0.0,0.0,0.0,0.0,0.0,0.0,0.0,0.0,1.8082,1.7935,1.7341,1.6676,1.5879,1.4982,1.4239,1.3453,1.2492,1.1873,1.1301,0.0,0.0,0.0,0.0,0.0,0.0,0.0,0.0,0.0,0.0,0.0,0.0,0.0,0.0,0.0,0.0,0.0,0.0,0.0,0.0,0.0,0.0,0.0,0.0,0.0,0.0,0.0,0.3777,0.3814,0.0,0.0,0.0,0.0,0.0,0.0,0.0,0.0,0.0,0.0,0.0,1.2237,1.304,0.0,0.0,0.0,0.0,0.0,0.0,0.0,0.0,0.0,0.0,0.0,0.0,1.2664,1.2409,1.238,1.2245,1.1937,1.1934,1.189,1.1819,1.1196,1.0452,0.9597,0.0,0.0,0.0,0.0,0.0,0.0,0.0,0.0,0.0,0.0,0.0,0.0,0.0,0.0,0.0,0.0,0.0,0.0,0.0,0.0,0.0,0.0,0.0,0.0,0.0,1.5435,0.0,0.0,0.0,0.0,0.0,0.0,0.0,0.0,0.0,0.0,0.0,1.8943,1.8596,1.8271,1.7841,1.7188,1.6386,1.5555,0.0,0.0,0.0,0.0,0.0,0.0,0.0,0.0,0.0,0.0,0.0,0.0,0.0,0.0,0.8555,0.8293,0.8351,0.8459,0.8555,0.0,0.0,0.0,0.0,0.0,0.0,0.0,0.0,0.0,0.0,0.0,0.0,0.0,0.0,0.4278,0.0,0.616,0.0,0.0,0.0,0.0,0.0,0.0,0.0,0.0,1.1082,1.0986,1.0986,1.1651,1.1967,0.0,1.3727,1.3981,0.0,0.0,0.0,0.0,0.0,0.0,0.0,0.0,1.3547,1.3258,1.3253,1.3125,1.2806,1.279,1.277,1.2698,1.1992,1.1206,1.0358,1.0568,1.0776,0.0,0.0,0.0,0.0,0.0,0.0,0.0,0.0,0.0,0.0,0.0,0.0,0.0,0.0,0.0,0.0,0.0,0.0,0.0,0.0,0.0,0.0,0.0,1.6553,0.0,0.0,0.0,0.0,0.0,0.0,0.0,0.0,0.0,1.9174,1.9263,1.9213,1.8798,1.8279,1.7666,1.6993,0.0,0.0,0.0,0.0,0.0,0.0,0.0,1.0871,1.047,1.0058,0.9688,0.9472,0.9316,0.9204,0.9204,0.0,0.0,0.889,0.8903,0.9061,0.9106,0.9211,0.9218,0.9008,0.8639,0.8156,0.0,0.0,0.0,0.0,0.0,0.0,0.0,0.0,0.4996,0.5017,0.0,0.6863,0.0,0.0,0.0,0.0,0.0,0.0,0.0,0.0,1.0897,1.0829,1.0736,1.0479,1.0383,1.0575,1.2665,1.3791,1.3914,1.4759,0.0,0.0,0.0,0.0,0.0,0.0,1.5015,1.4214,1.4157,1.3724,1.2949,1.2904,1.2853,1.2742,1.2413,1.2123,1.19,1.1636,1.179,1.2351,1.236,0.0,0.0,0.0,0.0,0.0,0.0,0.0,0.0,0.0,0.0,0.0,0.0,0.0,0.0,0.0,0.0,0.0,0.0,0.0,0.0,1.8161,0.0,0.0,0.0,0.0,0.0,0.0,0.0,0.0,0.0,0.0,1.9823,1.9449,1.9072,1.8736,0.0,0.0,0.0,0.0,1.5266,1.4362,1.3542,1.2735,1.2017,1.1377,1.082,1.0573,0.0,0.0,0.9465,0.9309,0.9211,0.9204,0.9204,0.9204,0.9211,0.9309,0.9361,0.9413,0.9361,0.9361,0.9152,0.8639,0.8062,0.5356,0.0,0.0,0.0,0.0,0.4964,0.4978,0.5087,0.5034,0.5045,0.5147,0.5634,0.0,0.0,0.0,0.0,0.0,0.0,0.8492,0.8704,0.8505,0.836,0.8298,0.8844,0.9113,0.9164,1.1327,1.2886,1.3981,1.6256,1.721,1.6915,0.0,0.0,0.0,0.0,1.6122,1.5864,1.5326,1.4903,1.4646,1.4647,1.4303,1.3575,1.3327,1.2806,1.2008,1.2162,1.2328,1.2397,1.2834,0.0,0.0,0.0,0.0,0.0,0.0,0.0,0.0,0.0,0.0,0.0,0.0,0.0,0.0,0.0,0.0,0.0,0.0,0.0,1.7607,1.8769,1.9414,0.0,0.0,0.0,0.0,0.0,0.0,0.0,0.0,0.0,2.0261,1.9732,1.9184,0.0,0.0,1.7462,1.6837,1.6008,1.522,1.4455,0.0,0.0,0.0,1.1578,1.1023,1.0573,1.0205,0.9895,0.9844,0.974,0.9636,0.9636,0.9524,0.9465,0.9361,0.9361,0.9413,0.951,0.9458,0.9309,0.9106,0.8586,0.7949,0.578,0.5322,0.5281,0.5322,0.5439,0.5351,0.5384,0.5559,0.5498,0.5571,0.5697,0.5739,0.5942,0.6228,0.6607,0.0,0.0,0.0,0.7952,0.8136,0.791,0.7671,0.7432,0.7731,0.7761,0.7602,0.9696,1.1139,1.1946,1.4674,1.6387,1.7092,0.0,0.0,1.7728,1.7313,1.7084,1.7085,1.6649,1.6425,1.6413,1.6071,1.5555,1.4908,1.4673,1.4186,1.3417,1.3801,1.3813,1.3385,1.3667,1.3718,0.0,0.0,0.0,0.0,0.0,0.0,0.0,0.0,0.0,0.0,0.0,1.6019,1.5992,0.0,0.0,0.0,1.7392,1.785,1.8626,1.945,0.0,0.0,0.0,0.0,0.0,0.0,0.0,2.1244,2.1231,2.1055,2.0613,2.0,1.9354,1.8693,1.8108,1.7503,1.6795,0.0,1.5311,1.4512,1.3695,1.2929,1.2372,1.1877,1.1368,1.082,1.0462,1.0205,1.0205,0.9999,0.9799,0.9799,0.9629,0.951,0.9413,0.9316,0.9263,0.9413,0.9361,0.9204,0.885,0.8315,0.7664,0.6035,0.5849,0.5705,0.5682,0.5795,0.5795,0.5941,0.6185,0.618,0.6336,0.6573,0.6713,0.6906,0.7188,0.7821,0.0,0.8475,0.867,0.8749,0.8771,0.8569,0.8194,0.7709,0.7102,0.6574,0.6102,0.7904,0.8859,0.9079,1.1242,1.356,1.5959,1.68,1.742,1.7863,1.7915,1.7924,1.7995,1.792,1.7939,1.7981,1.716,1.6635,1.6507,1.6249,1.5932,1.5647,1.5982,1.58,1.4951,1.4655,1.4227,1.3615,0.0,0.0,0.0,0.0,0.0,0.0,0.0,0.0,0.0,0.0,0.0,0.0,0.0,0.0,0.0,1.8623,0.0,2.0228,2.0241,0.0,0.0,0.0,2.2019,2.1843,2.222,2.2415,2.2056,0.0,0.0,2.0844,0.0,1.9615,1.8769,1.8161,1.7544,1.685,1.6182,1.5478,1.4605,1.3941,1.3382,1.2657,1.2175,1.1678,1.1226,1.082,1.0565,1.0514,1.0162,0.9851,0.9792,0.9577,0.9361,0.9368,0.9159,0.9001,0.9106,0.9106,0.8949,0.8421,0.7824,0.7058,0.644,0.6236,0.6134,0.5897,0.5653,0.5751,0.5844,0.5893,0.5941,0.6142,0.6385,0.6579,0.7002,0.7576,0.7828,0.8112,0.8341,0.8388,0.8435,0.8388,0.8247,0.8017,0.7668,0.7238,0.6836,0.6473,0.6226,0.7148,0.9117,1.0104,1.1556,1.3341,1.3606,1.5685,1.9435,1.9027,1.8737,1.8827,1.8213,1.7925,1.8003,1.7733,1.7527,1.7396,1.7129,1.683,1.6518,1.6348,1.6096,1.5643,1.4965,1.4501,1.4332,1.3868,0.0,0.0,0.0,0.0,0.0,0.0,0.0,0.0,0.0,1.7457,1.7441,0.0,1.8625,0.0,1.9399,2.0246,2.1096,2.1612,0.0,0.0,2.2638,2.2935,2.2765,2.2712,2.2552,2.2332,2.1961,2.1464,2.0942,2.0447,1.9844,1.9087,1.8319,1.7585,1.6993,1.6312,1.5567,1.4858,1.4176,1.3573,1.2987,1.2255,1.1678,1.1477,1.1175,1.0922,1.082,1.047,1.0162,0.9947,0.9629,0.9368,0.9159,0.8956,0.8752,0.8533,0.8533,0.8421,0.7937,0.7122,0.6027,0.649,0.6381,0.6282,0.6042,0.578,0.5934,0.6032,0.6079,0.6083,0.6237,0.6488,0.6692,0.7199,0.7804,0.8017,0.8267,0.8509,0.8651,0.87,0.87,0.8509,0.8194,0.7824,0.737,0.687,0.6428,0.5711,0.6085,0.7459,0.7804,0.8975,1.0868,1.0998,1.2985,1.6734,1.7518,1.841,1.9613,1.9269,1.9064,1.9112,1.8711,1.844,1.8327,1.8059,1.7767,1.7385,1.7397,1.7117,1.6495,1.5947,1.5495,1.5154,1.4831,1.4915,0.0,0.0,0.0,0.0,0.0,0.0,0.0,0.0,0.0,0.0,0.0,1.9881,1.9899,2.0369,2.1038,2.1888,2.2257,2.2568,2.2843,2.3135,2.3241,2.307,2.2842,2.2605,2.2377,2.1961,2.1509,2.1007,2.0514,1.9965,1.9332,1.8616,1.7868,1.716,1.6552,1.5844,1.5096,1.4466,1.381,1.3084,1.2363,1.1828,1.1769,1.1477,1.1226,1.1074,1.0769,1.0411,1.0265,0.9836,0.9413,0.9211,0.8903,0.8586,0.8268,0.7711,0.7272,0.6902,0.5779,0.4283,0.6327,0.6332,0.6178,0.6064,0.6005,0.6069,0.6173,0.6332,0.6332,0.6436,0.6652,0.6977,0.7354,0.7848,0.8162,0.848,0.8752,0.8956,0.9099,0.9106,0.8857,0.8463,0.7961,0.744,0.6918,0.6274,0.5854,0.5548,0.539,0.5367,0.6366,0.8316,0.8555,0.9838,1.2202,1.4353,1.687,1.9745,2.0254,2.048,2.0489,1.9765,1.9327,1.925,1.9008,1.8688,1.8301,1.8632,1.8378,1.7444,1.7149,1.6706,1.6016,1.6007,1.615,0.0,1.7241,0.0,0.0,0.0,0.0,0.0,0.0,0.0,0.0,2.1084,2.1153,2.1245,2.1348,2.177,2.256,2.259,2.2793,2.3387,2.3354,2.3193,2.2995,2.2773,2.2535,2.2282,2.1903,2.1448,2.0959,2.0514,2.0015,1.9515,1.8884,1.8187,1.7393,1.6808,1.6163,1.5289,1.4708,1.3962,1.3152,1.252,1.2224,1.2126,1.1819,1.1519,1.1427,1.1074,1.0726,1.0514,1.0095,0.9666,0.951,0.9093,0.8423,0.7361,0.6231,0.5515,0.5209,0.3878,0.2014,0.6005,0.59,0.5905,0.585,0.585,0.5736,0.5786,0.5905,0.59,0.6119,0.649,0.6923,0.7246,0.7574,0.7842,0.8109,0.8328,0.848,0.8527,0.8533,0.848,0.8243,0.7935,0.7606,0.7153,0.6622,0.6085,0.5649,0.5293,0.5085,0.5224,0.5639,0.5696,0.7061,0.9589,0.0,0.0,0.0,1.931,2.0448,2.0499,2.0347,2.0196,2.0075,1.993,0.0,1.9247,1.9115,1.8841,1.8336,1.7584,0.0,0.0,0.0,0.0,0.0,0.0,0.0,0.0,0.0,0.0,0.0,2.289,2.2611,2.1233,2.1087,2.1375,2.2018,2.2135,2.2539,2.339,2.337,2.3333,2.3389,2.3193,2.302,2.285,2.25,2.2226,2.1986,2.1648,2.1198,2.0763,2.0326,1.9909,1.9354,1.8869,1.8305,1.757,1.6892,1.625,1.5591,1.4686,1.3858,1.3218,1.291,1.2637,1.248,1.2175,1.1927,1.1778,1.1477,1.1124,1.0871,1.0506,1.0182,0.9784,0.971,0.7941,0.4003,0.3297,0.3387,0.3118,0.1728,-0.0378,0.5563,0.0,0.5563,0.5513,0.0,0.5289,0.5289,0.5348,0.5567,0.59,0.6337,0.6554,0.6928,0.73,0.7515,0.7783,0.8062,0.8215,0.8268,0.8268,0.8215,0.7949,0.7622,0.7246,0.6869,0.6436,0.59,0.5486,0.5268,0.5015,0.4863,0.4815,0.4863,0.5594,0.6869,0.802,1.0502,1.4281,1.7485,1.9099,1.914,2.0853,2.1531,2.102,0.0,0.0,0.0,0.0,0.0,0.0,0.0,0.0,0.0,0.0,0.0,1.9174,1.9716,2.0546,2.1792,2.2357,2.2775,2.3175,2.3548,2.3336,2.2339,2.2285,2.242,2.2749,2.2847,2.303,2.3399,2.3383,2.3289,2.3151,2.2995,2.2842,2.2615,2.2309,2.1994,2.1735,2.1339,2.0942,2.0563,2.0135,1.9711,1.9221,1.8731,1.8226,1.7598,1.706,1.638,1.5412,1.4558,1.3868,1.3467,1.3104,1.2881,1.2676,1.248,1.2283,1.2126,1.1868,1.1619,1.1418,1.1167,1.0221,0.7069,0.6498,0.4919,0.0048,-0.1381,-0.1628,-0.2278,-0.2897,-0.3844,0.5093,0.5171,0.5171,0.512,0.5018,0.4849,0.4791,0.4842,0.0,0.0,0.0,0.6173,0.6495,0.7031,0.7182,0.7461,0.7794,0.8002,0.8062,0.8062,0.7907,0.7574,0.7241,0.6815,0.644,0.6064,0.5517,0.5242,0.5132,0.4904,0.4739,0.4632,0.4739,0.4739,0.4754,0.6637,0.8656,1.0762,1.4658,1.6969,1.7588,2.0487,2.201,2.1924,2.182,2.1297,2.0333,2.0126,1.9894,1.9643,1.9499,1.9344,1.9255,1.9882,2.0332,2.0492,2.1103,2.1866,2.2759,2.2892,2.3184,2.3819,2.381,2.3721,2.3499,2.3494,2.3448,2.3313,2.3336,2.3313,2.3234,2.3291,2.3263,2.3085,2.3075,2.2966,2.2536,2.2245,2.1917,2.1448,2.1023,2.063,2.0308,1.9854,1.9457,1.9011,1.8553,1.7974,1.738,1.6892,1.6207,1.5175,1.4466,1.3962,1.3668,1.3238,1.2968,1.2939,1.2676,1.248,1.2372,1.2274,1.2175,1.2017,1.1236,0.829,0.4232,0.2647,0.0188,-0.4868,-0.5934,-0.6553,-0.8237,-0.8081,-0.7774,0.4579,0.4794,0.468,0.4688,0.4746,0.4415,0.4408,0.457,0.5128,0.5462,0.5677,0.6064,0.6391,0.6756,0.7031,0.7252,0.7365,0.7521,0.7574,0.0,0.7473,0.7203,0.6928,0.6598,0.6164,0.5677,0.5293,0.4959,0.4629,0.4411,0.4304,0.4249,0.4304,0.4301,0.4298,0.4631,0.479,0.4907,0.9809,1.4002,1.7239,1.7741,1.9564,2.2718,2.277,2.2597,2.2306,2.2078,2.1891,2.1672,2.1485,2.1343,2.1295,2.1279,2.1588,2.2256,2.2421,2.2859,2.364,2.3792,2.3866,2.3958,2.3876,2.3707,2.3522,2.3494,2.3448,2.3313,2.3283,2.3199,2.3228,2.3657,2.3823,2.3712,2.3972,2.384,2.2931,2.2504,2.1956,2.1069,2.053,2.0174,1.9818,1.9457,1.9011,1.863,1.8108,1.753,1.6697,1.6163,1.5736,1.5198,1.4651,1.4233,1.381,1.342,1.3152,1.3075,1.2832,1.2676,1.2627,1.2637,1.2365,1.2297,0.8616,0.5236,0.3589,0.0319,-0.3995,-0.8349,-0.8684,-0.8871,-1.2016,-1.1856,-1.1115,0.3837,0.4122,0.4054,0.4076,0.4187,0.4135,0.4024,0.4079,0.4629,0.5073,0.5458,0.5791,0.6123,0.6436,0.6652,0.6869,0.7198,0.7198,0.7198,0.7246,0.7149,0.6879,0.65,0.6218,0.5778,0.5344,0.4959,0.457,0.4245,0.3971,0.386,0.3749,0.3749,0.3802,0.386,0.3805,0.358,0.3337,0.7755,1.1926,1.5632,1.755,2.0211,2.3695,2.3712,2.3367,2.2842,2.2686,2.2536,2.2388,2.225,2.2121,2.1995,2.2296,2.2606,2.2905,2.3289,2.3635,2.3998,2.4036,2.4036,2.4036,2.3996,2.4076,2.4293,2.384,2.3672,2.3921,2.3876,2.3935,2.42,2.4341,2.4333,2.4117,2.4118,2.3851,2.3211,2.2472,2.1813,2.1139,2.0384,1.9803,1.942,1.9011,1.8592,1.8147,1.7544,1.6837,1.6139,1.568,1.5289,1.4926,1.4558,1.414,1.3763,1.342,1.318,1.3113,1.2929,1.2822,1.2832,1.2881,1.1595,0.8801,0.5901,0.2226,-0.2255,-0.5545,-0.884,-1.2402,-1.2487,-1.2603,-1.3267,-1.2628,-1.1719,0.3089,0.3569,0.3488,0.3548,0.363,0.3799,0.3747,0.3638,0.419,0.4688,0.5187,0.5572,0.5905,0.6173,0.6332,0.6652,0.6977,0.6928,0.6874,0.6923,0.6766,0.6495,0.6064,0.5778,0.5415,0.4953,0.4567,0.4251,0.394,0.3661,0.3421,0.3286,0.3283,0.3383,0.3471,0.3357,0.3132,0.2996,0.5808,0.9103,1.279,1.6392,1.9881,2.3004,2.4179,2.4261,2.3558,2.3457,2.3358,2.3244,2.3179,2.302,2.2893,2.3361,2.3587,2.3518,2.3969,2.4229,2.4171,2.4152,2.4152,2.4152,2.4151,2.4383,2.4871,2.4356,2.4134,2.4637,2.4627,2.4672,2.4975,2.5021,2.4866,2.454,2.4398,2.411,2.3517,2.254,2.1697,2.1182,2.024,1.9435,1.9011,1.8577,1.8147,1.7503,1.6837,1.6207,1.5712,1.5232,1.4834,1.4558,1.428,1.3999,1.3621,1.3286,1.3094,1.3027,1.2929,1.2832,1.2881,1.2978,1.0824,0.6361,0.3674,-0.0559,-0.8933,-1.1694,-1.2835,-1.5466,-1.4776,-1.3814,-1.2735,-1.19,-1.1217,0.266,0.3184,0.3105,0.3101,0.3193,0.3413,0.3527,0.3641,0.4082,0.4415,0.4798,0.5348,0.5841,0.6178,0.6332,0.6544,0.6701,0.6707,0.6652,0.65,0.6337,0.6064,0.5644,0.5297,0.4983,0.4596,0.4201,0.3966,0.3876,0.3404,0.3124,0.3049,0.304,0.3056,0.3144,0.3021,0.2798,0.2521,0.2479,0.4285,0.8085,1.2019,1.5899,1.969,2.3579,2.5522,2.5243,2.5288,2.5202,2.5142,2.5022,2.4945,2.4809,2.4714,2.4624,2.4526,2.4508,2.4426,2.4394,2.4321,2.4266,2.4284,2.4209,2.4479,2.5124,2.5016,2.5067,2.5483,2.5376,2.523,2.5155,2.5428,2.5473,2.5096,2.5266,2.5114,2.3973,2.292,2.1879,2.0835,1.9863,1.9026,1.8592,1.8108,1.7544,1.6795,1.6225,1.5712,1.5232,1.4777,1.4316,1.3999,1.3858,1.3716,1.343,1.3152,1.292,1.2774,1.2725,1.2735,1.2774,1.2715,1.1199,0.4357,0.086,-0.3841,-0.9659,-1.3559,-1.6189,-1.5393,-1.4699,-1.3379,-1.2049,-1.1167,-1.082,0.1905,0.2668,0.262,0.2732,0.2941,0.3276,0.336,0.3357,0.3858,0.419,0.447,0.5069,0.5572,0.5959,0.6114,0.6273,0.649,0.644,0.6399,0.6454,0.6178,0.5901,0.5595,0.5253,0.4821,0.4339,0.4042,0.3764,0.3437,0.3081,0.2877,0.2963,0.2781,0.2678,0.2774,0.2651,0.2457,0.2247,0.1738,0.2111,0.386,0.9886,1.5238,1.9139,2.3404,2.5693,2.5665,2.5621,2.5571,2.5507,2.5499,2.5437,2.5283,2.5113,2.4974,2.4893,2.467,2.4545,2.4497,2.4411,2.4376,2.4358,2.4247,2.4704,2.5889,2.5867,2.6193,2.7028,2.6605,2.6195,2.6398,2.6356,2.6101,2.5723,2.5558,2.5157,2.4335,2.2917,2.1749,2.0966,1.9672,1.8577,1.8108,1.753,1.6866,1.6194,1.5756,1.5299,1.4777,1.4326,1.3894,1.3515,1.3286,1.3152,1.3104,1.292,1.2725,1.2637,1.2637,1.2735,1.2832,1.3104,1.0565,0.1855,-0.1185,-0.612,-1.4211,-1.5277,-1.668,-1.5229,-1.3538,-1.2138,-1.1217,-1.0718,-1.0411,0.1298,0.2119,0.2373,0.2557,0.2799,0.3196,0.3275,0.3216,0.3732,0.4077,0.4305,0.4816,0.5325,0.5715,0.6003,0.6197,0.6373,0.6314,0.636,0.6437,0.6093,0.575,0.5449,0.509,0.4623,0.4103,0.3861,0.3504,0.3151,0.2841,0.2769,0.2812,0.2559,0.246,0.2513,0.2324,0.2113,0.1885,0.1365,0.0796,0.1469,0.8656,1.4459,1.7503,2.2794,2.5698,2.5698,2.5687,2.5675,2.564,2.562,2.5544,2.5422,2.5302,2.5163,2.4994,2.479,2.4642,2.4647,2.4551,2.4482,2.4483,2.4524,2.5169,2.6303,2.6648,2.7211,2.8108,2.761,2.7203,2.7265,2.6956,2.6487,2.601,2.5605,2.5068,2.4389,2.2823,2.1515,2.0927,1.9447,1.8147,1.7585,1.6976,1.638,1.5844,1.54,1.4949,1.4362,1.3905,1.3515,1.3122,1.2764,1.2627,1.2676,1.2627,1.248,1.2431,1.248,1.2676,1.2871,1.3142,1.1342,0.3891,0.0043,-0.488,-1.1694,-1.424,-1.5743,-1.415,-1.2502,-1.1158,-1.0616,-1.0257,-0.994,0.0858,0.1736,0.2437,0.2653,0.277,0.3062,0.3184,0.3229,0.3663,0.4094,0.4384,0.4753,0.5193,0.5644,0.6035,0.6301,0.6324,0.647,0.6501,0.6357,0.5996,0.557,0.509,0.4665,0.4306,0.4043,0.3611,0.3264,0.3004,0.2808,0.264,0.2643,0.2447,0.2347,0.2348,0.2092,0.1758,0.1417,0.0882,0.0353,0.1072,0.8278,1.2874,1.3994,2.1251,2.5698,2.5698,2.5698,2.5715,2.5707,2.5691,2.5624,2.5551,2.5421,2.5252,2.5032,2.4865,2.4783,2.4707,2.4679,2.4669,2.4713,2.5205,2.5931,2.67,2.7251,2.7778,2.8402,2.8174,2.7811,2.743,2.6989,2.6487,2.5954,2.5454,2.4855,2.4188,2.2529,2.1225,2.0552,1.9098,1.7774,1.7031,1.6534,1.6044,1.5558,1.5062,1.4569,1.4057,1.3573,1.3142,1.2764,1.2421,1.2175,1.2274,1.2274,1.2126,1.2126,1.2323,1.2578,1.2813,1.232,0.9336,0.5781,0.0868,-0.3925,-0.8656,-1.1724,-1.3454,-1.3022,-1.1607,-1.0498,-1.0095,-0.9673,-0.9413,0.0534,0.1652,0.2248,0.2538,0.2784,0.3104,0.3202,0.3204,0.3689,0.3994,0.4177,0.4671,0.4979,0.5157,0.5758,0.6078,0.6155,0.6336,0.6306,0.6162,0.5926,0.5546,0.5061,0.4742,0.431,0.3901,0.3636,0.3415,0.3239,0.2968,0.279,0.2793,0.2452,0.2287,0.2233,0.203,0.1627,0.1158,0.0789,0.0304,0.0473,0.8716,1.3472,1.3676,2.1325,2.5698,2.5698,2.5703,2.5954,2.6507,2.6463,2.6661,2.7045,2.6511,2.5802,2.5218,2.5006,2.4931,2.4875,2.4772,2.4939,2.5445,2.5627,2.6321,2.728,2.7705,2.7981,2.837,2.8291,2.7911,2.7526,2.7053,2.6521,2.5937,2.5416,2.4815,2.3967,2.2676,2.1396,2.0316,1.8616,1.7183,1.6735,1.6318,1.5869,1.5334,1.4834,1.428,1.3716,1.3238,1.2861,1.2421,1.2126,1.1927,1.1778,1.1918,1.1968,1.2026,1.2224,1.248,1.2764,1.3094,1.0889,0.693,0.1934,-0.3738,-0.8489,-1.1067,-1.2483,-1.1751,-1.0379,-0.9873,-0.9524,-0.9152,-0.8995,0.047,0.1475,0.2109,0.2483,0.2799,0.3132,0.3297,0.3362,0.3738,0.3987,0.4116,0.4556,0.481,0.4951,0.5485,0.5796,0.5934,0.6117,0.6245,0.6169,0.5841,0.5529,0.5151,0.4727,0.4269,0.3939,0.365,0.3476,0.3401,0.3024,0.2842,0.2861,0.2435,0.22,0.2229,0.1896,0.1482,0.1133,0.0752,0.0188,0.0785,0.904,1.4526,1.6227,2.2607,2.6537,2.6537,2.6544,2.6774,2.7306,2.7367,2.7537,2.7918,2.715,2.6301,2.5666,2.5234,2.4999,2.5021,2.5077,2.5396,2.5979,2.6444,2.7121,2.7933,2.8138,2.8356,2.8467,2.8327,2.7968,2.7539,2.7117,2.659,2.5974,2.5378,2.4735,2.3964,2.2536,2.0983,1.9375,1.7967,1.6927,1.6448,1.6044,1.5591,1.5017,1.4558,1.3999,1.3467,1.3045,1.2627,1.2135,1.1927,1.1728,1.1628,1.1678,1.1828,1.1877,1.2224,1.248,1.2725,1.3094,1.2044,0.7969,0.2792,-0.3138,-0.7445,-1.0171,-1.0706,-1.0222,-0.9651,-0.9099,-0.8844,-0.8685,-0.8468,0.0808,0.1419,0.2087,0.2563,0.2831,0.3299,0.35,0.3565,0.3897,0.4097,0.4298,0.4564,0.4697,0.4903,0.5249,0.5435,0.5561,0.5954,0.6214,0.6234,0.5777,0.55,0.5243,0.4635,0.419,0.3989,0.3713,0.3501,0.3495,0.307,0.2884,0.2717,0.2456,0.2225,0.2218,0.1806,0.1522,0.1167,0.071,0.0194,0.1132,0.8748,1.4849,1.8378,2.4357,2.7846,2.8235,2.8223,2.814,2.8262,2.8225,2.8143,2.802,2.7229,2.6559,2.6235,2.5577,2.5088,2.5064,2.5635,2.5966,2.6427,2.7469,2.8147,2.827,2.8679,2.8879,2.8619,2.8353,2.8007,2.7539,2.7166,2.6657,2.5974,2.5323,2.4639,2.3697,2.2014,1.9978,1.8175,1.7258,1.6718,1.6275,1.5836,1.5379,1.4834,1.4291,1.3763,1.3218,1.2852,1.2471,1.2026,1.1778,1.1628,1.1528,1.1528,1.1628,1.1778,1.2175,1.248,1.2627,1.29,1.3074,0.9721,0.3972,-0.1962,-0.7963,-1.0236,-0.9649,-0.9162,-0.8666,-0.8362,-0.8203,-0.8043,-0.7984,0.0559,0.1279,0.2061,0.2628,0.3055,0.3553,0.3765,0.3909,0.4187,0.4325,0.4398,0.4683,0.4824,0.4894,0.5176,0.5313,0.5457,0.552,0.5679,0.5895,0.5807,0.5519,0.5173,0.456,0.4108,0.3797,0.3661,0.3587,0.3507,0.3335,0.3129,0.2814,0.257,0.2397,0.2155,0.1816,0.1471,0.1263,0.0864,0.0466,0.059,0.643,1.1901,1.6367,2.179,2.625,2.9745,2.8951,2.8611,2.9087,2.9121,2.9012,2.8692,2.7941,2.7121,2.6395,2.5539,2.5308,2.5745,2.5974,2.661,2.7481,2.8163,2.854,2.8847,2.9015,2.8952,2.8637,2.8327,2.7968,2.7557,2.7053,2.6556,2.597,2.5307,2.4623,2.3685,2.1772,2.0029,1.8768,1.7549,1.6696,1.6244,1.5792,1.5244,1.464,1.4093,1.3515,1.2949,1.251,1.2126,1.1728,1.1578,1.1477,1.1377,1.1377,1.1477,1.1628,1.1977,1.2274,1.2421,1.2452,1.2677,1.01,0.4484,-0.0834,-0.6829,-0.914,-0.8423,-0.8165,-0.7818,-0.761,-0.7563,-0.7503,-0.7396,0.0718,0.1457,0.2112,0.2766,0.3348,0.3785,0.4003,0.422,0.4434,0.4506,0.4579,0.4726,0.4801,0.4873,0.5015,0.5159,0.524,0.528,0.5403,0.5623,0.5545,0.5374,0.5091,0.4614,0.4066,0.3665,0.3599,0.3601,0.3597,0.3415,0.3263,0.3002,0.2745,0.2556,0.2294,0.1951,0.1748,0.1481,0.1144,0.0808,0.1586,0.5533,1.0554,1.5429,2.0518,2.5633,3.0304,2.9816,2.9476,2.9868,2.9922,2.9841,2.9583,2.8764,2.7955,2.7268,2.6474,2.6124,2.6537,2.6801,2.7223,2.8256,2.8652,2.8913,2.9198,2.9178,2.8952,2.8637,2.83,2.7957,2.7526,2.7038,2.6487,2.5954,2.5269,2.4393,2.3191,2.1298,1.9727,1.8693,1.7488,1.6591,1.6001,1.5558,1.5062,1.4408,1.3742,1.3228,1.2657,1.2215,1.1828,1.1536,1.1377,1.1276,1.1175,1.1226,1.1276,1.1477,1.1728,1.1927,1.2076,1.1891,1.1855,0.7904,0.283,-0.0509,-0.5906,-0.6797,-0.6709,-0.673,-0.6907,-0.6858,-0.681,-0.6918,-0.6864,0.1097,0.183,0.2415,0.3006,0.3593,0.3965,0.4264,0.4463,0.4689,0.4773,0.4764,0.4781,0.477,0.4759,0.4933,0.4936,0.4994,0.5244,0.5292,0.5352,0.5214,0.5139,0.4922,0.454,0.4117,0.3669,0.3675,0.3677,0.3587,0.3532,0.3371,0.3216,0.2922,0.2704,0.2447,0.2294,0.2085,0.1884,0.1547,0.1345,0.148,0.5336,1.0147,1.5016,1.9836,2.4748,2.8923,3.0231,3.0691,3.0762,3.0561,3.041,3.0227,2.9498,2.8765,2.843,2.7809,2.7318,2.737,2.7696,2.8166,2.8465,2.9007,2.9431,2.9283,2.9134,2.8929,2.8612,2.8255,2.7893,2.7509,2.6989,2.6418,2.5828,2.5075,2.3902,2.2062,2.0735,1.9612,1.842,1.7242,1.6293,1.5724,1.5232,1.464,1.4046,1.3409,1.288,1.2412,1.1977,1.1637,1.1437,1.1311,1.1335,1.1366,1.1189,1.1232,1.1199,1.1328,1.1309,1.1292,1.1015,0.9906,0.5887,0.2559,-0.0843,-0.3324,-0.4537,-0.5475,-0.5878,-0.5941,-0.6,-0.6164,-0.6273,-0.6386,0.1516,0.2155,0.2846,0.3461,0.4,0.4382,0.4759,0.5067,0.5138,0.5129,0.514,0.5143,0.5056,0.4917,0.4991,0.4999,0.4996,0.5101,0.512,0.512,0.5046,0.4809,0.4653,0.4445,0.4151,0.3763,0.3763,0.3763,0.3682,0.3657,0.3603,0.3373,0.3212,0.2986,0.2709,0.2515,0.2357,0.2221,0.2085,0.1884,0.1951,0.29,0.5978,1.0782,1.5734,2.0707,2.5468,2.904,3.0774,3.0726,3.0613,3.0501,3.0325,2.9468,2.8865,2.8585,2.7834,2.747,2.7885,2.809,2.8404,2.8962,2.9184,2.9304,2.9175,2.9021,2.8815,2.8518,2.8183,2.7818,2.7478,2.6891,2.6085,2.5091,2.4549,2.3734,2.2394,2.0946,1.9697,1.8771,1.7352,1.6293,1.5635,1.5051,1.4408,1.3752,1.3132,1.2491,1.2067,1.1749,1.1387,1.141,1.1378,1.1482,1.1531,1.1276,1.1141,1.0942,1.0789,1.0431,1.0202,0.9769,0.7915,0.5083,0.296,-0.0108,-0.1858,-0.3272,-0.4006,-0.4956,-0.5344,-0.5563,-0.5732,-0.5841,-0.5955,0.219,0.2744,0.3484,0.4032,0.4467,0.4696,0.5087,0.5401,0.5404,0.5404,0.5404,0.5401,0.5326,0.5249,0.5168,0.5168,0.5093,0.5015,0.5015,0.5015,0.5012,0.4854,0.4618,0.4462,0.4229,0.3841,0.3841,0.3763,0.3684,0.3841,0.3791,0.3638,0.3655,0.3487,0.3219,0.3107,0.2924,0.2764,0.2688,0.2621,0.2488,0.2421,0.5061,0.94,1.4097,1.9378,2.5947,2.9451,3.0762,3.07,3.0583,3.0453,3.0285,2.9699,2.9235,2.9019,2.8408,2.8277,2.8535,2.8623,2.8767,2.9138,2.9243,2.9178,2.9085,2.8929,2.8743,2.8466,2.8101,2.7742,2.7289,2.6607,2.5721,2.4815,2.4261,2.361,2.2694,2.1105,1.9918,1.8887,1.7517,1.6095,1.5579,1.4869,1.4176,1.3467,1.2842,1.2255,1.1778,1.1498,1.1325,1.1407,1.1459,1.1542,1.1503,1.1289,1.0748,1.0539,0.9853,0.9516,0.9058,0.8462,0.6727,0.4721,0.292,0.1163,-0.0722,-0.2343,-0.3236,-0.407,-0.4629,-0.5073,-0.5183,-0.5462,-0.5576,0.314,0.3636,0.4185,0.4644,0.5034,0.5087,0.5318,0.5637,0.5715,0.5715,0.5792,0.5715,0.5712,0.5634,0.5476,0.5321,0.5321,0.5171,0.5015,0.5015,0.5018,0.4859,0.4779,0.4543,0.4231,0.3921,0.3841,0.3763,0.3763,0.3999,0.4112,0.4047,0.4244,0.4137,0.3928,0.3935,0.3726,0.3529,0.3563,0.3556,0.3424,0.3413,0.5108,0.8501,1.4192,2.0547,2.6928,3.0298,3.0791,3.07,3.0564,3.0433,3.0235,3.0075,2.982,2.957,2.9286,2.9163,2.9206,2.9067,2.9101,2.9134,2.9134,2.9089,2.8952,2.8828,2.8662,2.8353,2.8007,2.7565,2.7036,2.6262,2.546,2.4735,2.4219,2.361,2.2686,2.1219,1.9935,1.9189,1.7511,1.6291,1.54,1.472,1.4035,1.3334,1.2773,1.2278,1.1868,1.1677,1.1535,1.1469,1.1487,1.1534,1.1394,1.1222,1.0524,0.9971,0.8928,0.8302,0.7865,0.709,0.5729,0.4149,0.255,0.1112,-0.039,-0.1676,-0.2627,-0.3352,-0.4021,-0.4353,-0.4577,-0.5022,-0.5187,0.4072,0.4547,0.5057,0.5256,0.5456,0.5599,0.5867,0.6183,0.6335,0.6331,0.6409,0.6409,0.6251,0.6093,0.586,0.5709,0.5556,0.5323,0.5168,0.5018,0.5018,0.5018,0.4937,0.4701,0.4389,0.4155,0.4231,0.4153,0.4075,0.4229,0.4455,0.4503,0.4579,0.4584,0.4664,0.4643,0.4607,0.4488,0.4543,0.4492,0.442,0.4289,0.4779,0.678,1.2925,1.9313,2.4761,2.8899,3.0696,3.0743,3.0605,3.0443,3.0253,3.0045,2.9806,2.9626,2.9448,2.9262,2.9108,2.9021,2.8952,2.8929,2.8905,2.8834,2.8712,2.8662,2.8484,2.8191,2.7893,2.74,2.6657,2.6049,2.5384,2.4735,2.4219,2.3696,2.2848,2.1676,2.0433,1.9243,1.7965,1.6618,1.5641,1.474,1.4026,1.3278,1.2779,1.2353,1.2079,1.1839,1.1773,1.1736,1.1707,1.1756,1.1626,1.127,1.0335,0.9569,0.8446,0.7445,0.6958,0.6168,0.503,0.3738,0.2339,0.0949,-0.0224,-0.1175,-0.2127,-0.2796,-0.3355,-0.3744,-0.4132,-0.4522,-0.489,0.4741,0.5121,0.5696,0.587,0.5993,0.6149,0.6397,0.6729,0.6795,0.6949,0.7022,0.7019,0.6868,0.663,0.6479,0.6173,0.5867,0.5559,0.5323,0.5168,0.5171,0.5093,0.5018,0.4859,0.4704,0.4392,0.4387,0.4387,0.4465,0.4618,0.4849,0.5082,0.5172,0.5339,0.5513,0.5574,0.5509,0.5382,0.5504,0.5494,0.5365,0.5219,0.6479,0.7581,1.2191,1.6379,2.0826,2.5271,2.723,2.8044,2.9382,3.0421,3.0263,3.0037,2.9805,2.9626,2.9427,2.9259,2.9085,2.8952,2.8905,2.8815,2.8767,2.8712,2.8587,2.8536,2.8327,2.8081,2.7748,2.7244,2.6383,2.5811,2.5285,2.4695,2.4177,2.361,2.2877,2.1849,2.0767,1.9693,1.8485,1.7341,1.6256,1.5196,1.4437,1.3872,1.3284,1.2815,1.2364,1.2175,1.2175,1.2099,1.2079,1.198,1.1859,1.1245,1.018,0.9257,0.8259,0.7286,0.6497,0.5534,0.4482,0.3322,0.2233,0.1229,0.0112,-0.0784,-0.1568,-0.2183,-0.274,-0.3241,-0.3691,-0.4086,-0.436,0.5253,0.5594,0.6178,0.6492,0.6603,0.661,0.6909,0.7192,0.7338,0.7411,0.7561,0.7561,0.7411,0.7257,0.7022,0.6718,0.6257,0.5796,0.5482,0.5246,0.5246,0.5168,0.5093,0.5015,0.5012,0.4854,0.4698,0.4698,0.4776,0.5007,0.5318,0.5625,0.5857,0.603,0.6242,0.6544,0.6561,0.635,0.6571,0.6607,0.6348,0.6238,0.7726,0.9354,1.1532,1.3316,1.7049,2.0673,2.3228,2.3232,2.7213,2.9098,2.9442,2.9942,2.9832,2.9645,2.947,2.9283,2.9089,2.8975,2.8905,2.8863,2.8743,2.8637,2.851,2.8353,2.8164,2.7864,2.7509,2.6956,2.6279,2.5754,2.5185,2.463,2.4135,2.3551,2.2877,2.1906,2.1075,2.0154,1.9008,1.7894,1.6867,1.5892,1.5162,1.445,1.3822,1.3295,1.2819,1.2569,1.2572,1.24,1.2277,1.1859,1.1665,1.1279,1.0207,0.9229,0.8237,0.7284,0.6397,0.5533,0.4602,0.3442,0.2347,0.1402,0.0618,-0.0224,-0.0896,-0.1511,-0.2127,-0.2685,-0.3137,-0.3593,-0.3889,0.5855,0.6259,0.6739,0.6947,0.6948,0.7186,0.737,0.7488,0.7795,0.7949,0.8025,0.8025,0.7876,0.7723,0.7484,0.7022,0.6412,0.5948,0.5559,0.5323,0.5323,0.5246,0.5246,0.5246,0.5243,0.5401,0.5246,0.5087,0.5087,0.5323,0.5709,0.6099,0.6254,0.6454,0.6942,0.723,0.743,0.7398,0.7626,0.7733,0.7616,0.7386,0.7122,0.8303,1.0238,1.1851,1.322,1.6638,1.8977,1.9072,2.2868,2.4625,2.5642,2.7862,2.9444,2.9784,2.9608,2.9372,2.9156,2.8998,2.8834,2.8687,2.8587,2.8458,2.8318,2.8154,2.794,2.7509,2.6989,2.6418,2.6026,2.5546,2.5084,2.4564,2.4051,2.3523,2.295,2.2278,2.1439,2.0422,1.9429,1.8474,1.747,1.6524,1.5712,1.5002,1.4378,1.381,1.3363,1.315,1.3032,1.2744,1.2435,1.1903,1.1358,1.0899,1.0214,0.9408,0.8404,0.7573,0.6694,0.5848,0.4904,0.3834,0.279,0.1876,0.1077,0.0396,-0.0284,-0.0917,-0.1476,-0.2079,-0.2565,-0.3009,-0.3392,0.5795,0.6208,0.6749,0.7058,0.7207,0.7462,0.772,0.7949,0.8246,0.8484,0.8565,0.8565,0.8408,0.8102,0.7872,0.733,0.6637,0.6331,0.5867,0.5556,0.5482,0.5401,0.5323,0.5321,0.5401,0.5559,0.5556,0.555,0.5473,0.5631,0.6099,0.6483,0.6637,0.6872,0.7476,0.7791,0.8049,0.8299,0.8541,0.8667,0.8659,0.8291,0.7727,0.8043,0.8569,0.9356,1.003,1.3096,1.51,1.5774,1.8943,2.0571,2.2038,2.4657,2.8026,2.9377,2.9695,2.9494,2.9228,2.9048,2.8863,2.8669,2.851,2.8327,2.8136,2.794,2.763,2.7117,2.6624,2.612,2.5791,2.5317,2.4871,2.4441,2.3967,2.3436,2.2934,2.2495,2.1633,2.0689,1.9894,1.9019,1.8111,1.7179,1.6256,1.5552,1.4924,1.4333,1.3839,1.3569,1.3338,1.285,1.2421,1.1802,1.1185,1.073,1.0212,0.943,0.8646,0.7793,0.6973,0.615,0.535,0.4374,0.3362,0.253,0.1709,0.107,0.0414,-0.0235,-0.0883,-0.1475,-0.1954,-0.2387,-0.2775,0.5616,0.6111,0.6743,0.723,0.7513,0.7711,0.8008,0.8421,0.8627,0.8784,0.8951,0.8946,0.8637,0.8331,0.7944,0.7484,0.6865,0.6637,0.6177,0.5789,0.5637,0.5556,0.5476,0.5476,0.5556,0.5792,0.5867,0.5941,0.586,0.5941,0.6328,0.6714,0.6865,0.7253,0.7787,0.8232,0.8506,0.8951,0.9265,0.9461,0.9395,0.9134,0.8787,0.849,0.7962,0.7708,0.8122,1.0208,1.1477,1.2538,1.492,1.7434,1.78,2.1722,2.5812,2.8449,2.9368,2.9568,2.9375,2.9115,2.8905,2.8644,2.8432,2.8219,2.7911,2.76,2.7181,2.6641,2.6227,2.5815,2.5438,2.5013,2.4614,2.4219,2.3754,2.3319,2.2889,2.2388,2.1827,2.101,2.0396,1.9453,1.8431,1.7497,1.6522,1.592,1.5272,1.4713,1.4205,1.3698,1.3338,1.2789,1.2236,1.1677,1.1122,1.0618,1.0098,0.947,0.8787,0.8032,0.7272,0.6451,0.5693,0.4927,0.4385,0.3504,0.2684,0.1788,0.1093,0.0423,-0.0245,-0.0798,-0.1276,-0.1779,-0.2243,0.5613,0.6264,0.6877,0.7293,0.7648,0.7905,0.8282,0.8632,0.8703,0.8789,0.9022,0.8789,0.8556,0.8021,0.7403,0.7015,0.6788,0.6563,0.618,0.5789,0.5786,0.5786,0.5786,0.586,0.5944,0.6103,0.618,0.6099,0.6018,0.6099,0.6486,0.6788,0.6942,0.7253,0.7949,0.8403,0.8917,0.9466,1.0036,1.0337,1.0325,1.0242,1.0003,0.9667,0.9262,0.8871,0.8474,0.9279,0.9058,0.8982,1.2173,1.3899,1.4869,2.1164,2.4334,2.6309,2.7809,2.9742,2.9436,2.916,2.8858,2.8569,2.8327,2.8035,2.763,2.7149,2.6674,2.6229,2.5868,2.5497,2.5075,2.471,2.4359,2.3982,2.3581,2.3172,2.2754,2.2296,2.1732,2.0993,2.0258,1.9436,1.8531,1.7633,1.6765,1.6228,1.5672,1.502,1.4488,1.3941,1.3277,1.2666,1.212,1.156,1.0996,1.0491,0.9983,0.9402,0.8812,0.8161,0.7524,0.6828,0.6278,0.5632,0.5055,0.4411,0.35,0.2631,0.1857,0.112,0.0504,-0.0063,-0.0617,-0.1129,-0.1606,0.5242,0.5962,0.6684,0.7207,0.759,0.8056,0.8479,0.8865,0.9013,0.9094,0.9099,0.8861,0.8399,0.7714,0.7173,0.6791,0.656,0.649,0.618,0.5867,0.5864,0.586,0.586,0.5938,0.6018,0.6257,0.6412,0.6335,0.6254,0.6257,0.6486,0.6865,0.6942,0.7326,0.8021,0.8475,0.9084,0.9772,1.0566,1.1185,1.1339,1.1182,1.0994,1.0918,1.0487,1.0155,0.9888,0.9627,0.9238,0.9099,1.0938,1.1069,1.2141,1.6374,2.0365,2.155,2.5365,2.8003,2.9163,2.9056,2.8767,2.844,2.8119,2.7701,2.7181,2.6725,2.6297,2.5888,2.5589,2.5208,2.4775,2.4426,2.4051,2.3668,2.3363,2.2994,2.2572,2.2156,2.1589,2.0858,2.0055,1.9279,1.8494,1.7567,1.674,1.6171,1.5604,1.502,1.4419,1.3881,1.3216,1.249,1.1934,1.1498,1.087,1.0371,0.9856,0.9338,0.8689,0.8166,0.7722,0.7125,0.6609,0.6214,0.5716,0.5045,0.419,0.3416,0.2579,0.1875,0.1232,0.0708,0.0192,-0.0388,-0.0923,0.5168,0.587,0.6637,0.7249,0.7787,0.825,0.8708,0.9175,0.917,0.917,0.9089,0.8627,0.8016,0.748,0.7019,0.6637,0.6338,0.649,0.6177,0.5867,0.5867,0.6018,0.6018,0.6018,0.6099,0.6257,0.6486,0.6486,0.6412,0.6412,0.6563,0.6865,0.6865,0.7326,0.8021,0.8551,0.916,1.0271,1.1156,1.1801,1.2115,1.1959,1.1977,1.1891,1.168,1.1337,1.1281,1.1087,1.0822,1.0676,1.0628,1.08,1.1316,1.5246,1.8395,2.032,2.4065,2.7161,2.8312,2.8676,2.8576,2.8264,2.7789,2.7258,2.6708,2.6314,2.5994,2.5572,2.5246,2.491,2.4508,2.4109,2.3711,2.3348,2.2994,2.2678,2.2278,2.1896,2.1402,2.066,1.9901,1.9109,1.8267,1.7412,1.6694,1.6114,1.5536,1.4961,1.4359,1.3821,1.3172,1.2444,1.1956,1.1457,1.0835,1.0263,0.9804,0.9315,0.8733,0.8192,0.7821,0.7414,0.6937,0.6613,0.63,0.5789,0.5055,0.4185,0.3357,0.2723,0.2112,0.1531,0.0935,0.0336,-0.0269,0.5476,0.6338,0.6949,0.7642,0.8327,0.8627,0.9008,0.9473,0.9175,0.9013,0.8851,0.8093,0.7638,0.7326,0.6868,0.6486,0.6257,0.6338,0.6103,0.6022,0.6099,0.618,0.618,0.6257,0.6257,0.6335,0.6563,0.6637,0.6563,0.6641,0.6714,0.6865,0.6942,0.7403,0.8021,0.8627,0.9533,1.0657,1.163,1.2243,1.2607,1.2672,1.2831,1.2883,1.2704,1.2474,1.2642,1.2443,1.2312,1.2135,1.2181,1.2227,1.2865,1.591,1.8316,2.0444,2.3394,2.6212,2.7388,2.8112,2.8246,2.784,2.7334,2.6791,2.6314,2.5957,2.5589,2.5249,2.5019,2.4668,2.4231,2.3756,2.354,2.3235,2.2951,2.2555,2.2145,2.1648,2.1116,2.0448,1.9695,1.891,1.8159,1.7301,1.6694,1.6114,1.5488,1.4852,1.4189,1.3649,1.3128,1.2538,1.1987,1.143,1.0819,1.0283,0.9956,0.9514,0.8975,0.8454,0.7951,0.7598,0.7469,0.7127,0.6884,0.6448,0.5954,0.5286,0.4486,0.3687,0.295,0.235,0.168,0.1008,0.0403,0.5857,0.6714,0.7411,0.7949,0.8255,0.8699,0.916,0.9473,0.9322,0.8865,0.8403,0.7791,0.733,0.7019,0.6637,0.618,0.5948,0.6183,0.6025,0.5944,0.6103,0.6257,0.6261,0.6338,0.6338,0.6486,0.6637,0.6788,0.6788,0.6868,0.6949,0.7022,0.6942,0.733,0.7944,0.8784,0.9911,1.0962,1.1929,1.2656,1.3279,1.3677,1.3811,1.3973,1.3924,1.3725,1.3657,1.3743,1.3674,1.3666,1.3768,1.393,1.4309,1.6856,1.8682,2.034,2.3289,2.5043,2.6618,2.7361,2.7631,2.7241,2.6774,2.633,2.597,2.553,2.5417,2.5174,2.4987,2.4694,2.4656,2.4268,2.3865,2.3469,2.2986,2.2509,2.2038,2.1555,2.1003,2.0345,1.9491,1.8667,1.7963,1.7256,1.6684,1.6114,1.543,1.4753,1.4183,1.3692,1.3269,1.2767,1.2292,1.1761,1.1211,1.0678,1.0141,0.9714,0.9293,0.8856,0.8487,0.8538,0.8363,0.7957,0.7631,0.7417,0.7043,0.644,0.5617,0.4553,0.3756,0.3157,0.2418,0.1681,0.1081,0.6167,0.7096,0.7868,0.825,0.8399,0.8927,0.9382,0.962,0.9468,0.8941,0.8178,0.7714,0.7249,0.6865,0.6563,0.6103,0.587,0.5948,0.5789,0.5789,0.5944,0.6103,0.618,0.6257,0.6338,0.6563,0.6788,0.6865,0.6865,0.7103,0.718,0.7176,0.7176,0.7334,0.7949,0.8941,1.0067,1.1037,1.2077,1.2966,1.3708,1.4205,1.4722,1.4901,1.495,1.4941,1.4911,1.493,1.4946,1.498,1.5138,1.5535,1.6193,1.7214,1.8835,2.0722,2.2517,2.4166,2.5859,2.6776,2.7068,2.6741,2.6332,2.602,2.5718,2.5409,2.5352,2.5444,2.5168,2.4954,2.4941,2.4238,2.3705,2.3242,2.2967,2.2508,2.2036,2.1575,2.0917,2.0296,1.9509,1.8969,1.8431,1.7767,1.6785,1.6133,1.5371,1.4896,1.4529,1.3977,1.358,1.3148,1.2641,1.2173,1.1703,1.1119,1.0467,1.0107,0.9691,0.946,0.9205,0.9238,0.9222,0.8838,0.8581,0.8456,0.8068,0.7548,0.6509,0.5359,0.457,0.3849,0.3105,0.2369,0.1844,0.6395,0.7261,0.8097,0.8627,0.9003,0.9392,0.9695,0.9846,0.9695,0.9165,0.8403,0.7787,0.7326,0.6942,0.6714,0.6254,0.587,0.5867,0.5786,0.5556,0.5789,0.5941,0.6018,0.6177,0.6338,0.6416,0.6718,0.6942,0.6942,0.718,0.7334,0.7334,0.7334,0.7411,0.7876,0.9018,0.9992,1.0881,1.2003,1.2959,1.3772,1.4471,1.5206,1.5646,1.5984,1.6037,1.6143,1.6226,1.6277,1.6361,1.657,1.7009,1.7701,1.8701,2.0295,2.2174,2.3533,2.5046,2.663,2.6743,2.6666,2.654,2.6318,2.6002,2.5941,2.5701,2.5461,2.5589,2.5304,2.4872,2.4408,2.3971,2.3589,2.3272,2.3016,2.2544,2.2069,2.1652,2.1045,2.0273,1.991,1.9621,1.9078,1.8371,1.7088,1.6198,1.537,1.4971,1.4736,1.4371,1.3919,1.3549,1.3057,1.265,1.2193,1.1467,1.0868,1.0508,1.0207,1.0084,0.9942,0.9959,0.9831,0.9642,0.9522,0.9477,0.9135,0.8732,0.7573,0.6384,0.5305,0.4493,0.3738,0.3148,0.264,0.64,0.7388,0.8339,0.9155,0.976,0.9765,0.9997,1.0218,0.9771,0.9241,0.8551,0.794,0.7557,0.7249,0.6945,0.656,0.6103,0.6103,0.5944,0.5556,0.5786,0.586,0.5941,0.6177,0.6338,0.6563,0.6791,0.7022,0.7103,0.7257,0.7411,0.7488,0.7484,0.7714,0.825,0.9084,0.983,1.0887,1.2077,1.3185,1.4034,1.4985,1.5808,1.6321,1.674,1.7105,1.739,1.7481,1.7648,1.7862,1.8112,1.8691,1.9373,2.036,2.1655,2.3137,2.4332,2.5455,2.6461,2.6848,2.6896,2.6744,2.6461,2.6167,2.6096,2.5651,2.5568,2.5648,2.5365,2.5055,2.4984,2.4477,2.4099,2.3686,2.3264,2.2661,2.2163,2.177,2.1168,2.0286,1.9678,1.9246,1.8807,1.8663,1.7688,1.6979,1.6266,1.5613,1.5342,1.481,1.4311,1.3902,1.3485,1.3134,1.2622,1.1986,1.1637,1.1384,1.1099,1.09,1.0797,1.0755,1.0695,1.0545,1.0509,1.0467,0.9926,0.9324,0.8548,0.7476,0.6406,0.5332,0.4568,0.3966,0.3507,0.6239,0.7208,0.8351,0.9335,1.0027,1.0179,1.0368,1.0438,0.9992,0.9392,0.8856,0.8322,0.7863,0.7557,0.7249,0.6714,0.6335,0.6257,0.5948,0.5634,0.5786,0.5786,0.5941,0.6099,0.6412,0.6641,0.6791,0.7022,0.718,0.7411,0.7484,0.7484,0.7557,0.7791,0.8322,0.8927,0.9679,1.0732,1.1929,1.3112,1.4122,1.5217,1.62,1.6859,1.7444,1.8015,1.8323,1.866,1.8923,1.9317,1.9713,2.0228,2.0905,2.172,2.2831,2.3989,2.5456,2.6404,2.7103,2.724,2.7254,2.7102,2.6702,2.6336,2.6089,2.5723,2.5716,2.5675,2.5402,2.5187,2.5025,2.4553,2.4118,2.3662,2.3157,2.2548,2.2175,2.1765,2.1331,2.0363,1.9765,1.9225,1.8678,1.8543,1.8214,1.7725,1.7223,1.6542,1.5853,1.527,1.4664,1.4223,1.3839,1.3435,1.3093,1.2687,1.2351,1.2218,1.1929,1.1626,1.1681,1.1608,1.1589,1.149,1.1439,1.1134,1.0468,0.9789,0.9082,0.8385,0.753,0.6462,0.5466,0.4826,0.4347,0.5796,0.6813,0.7997,0.9036,0.9941,1.0518,1.0783,1.0732,1.0218,0.97,0.9246,0.8856,0.8322,0.7714,0.7561,0.7103,0.649,0.6412,0.5948,0.5634,0.5786,0.5789,0.5867,0.6103,0.6412,0.6641,0.6791,0.7103,0.7257,0.7407,0.748,0.748,0.748,0.7714,0.8174,0.8703,0.9453,1.0513,1.1781,1.2959,1.4057,1.5196,1.6289,1.7114,1.7957,1.8602,1.902,1.9482,1.9817,2.0167,2.0498,2.1096,2.1736,2.2481,2.3728,2.5223,2.692,2.7474,2.7701,2.7591,2.7325,2.6971,2.6314,2.6147,2.6037,2.5807,2.5773,2.5675,2.5451,2.4996,2.4597,2.4189,2.37,2.3283,2.286,2.2421,2.2113,2.1682,2.1358,2.0739,2.0262,1.9738,1.9167,1.8903,1.8541,1.8111,1.7588,1.7064,1.6358,1.563,1.5043,1.4536,1.4173,1.3787,1.3411,1.3046,1.2826,1.2606,1.2452,1.2224,1.2305,1.2372,1.2164,1.2131,1.2191,1.1739,1.0828,1.0244,0.9728,0.907,0.8277,0.741,0.6349,0.5706,0.5217,0.5504,0.6491,0.7868,0.9024,1.006,1.1013,1.1223,1.0944,1.0513,1.0073,0.97,0.9155,0.8699,0.8322,0.8021,0.7638,0.718,0.6718,0.6412,0.6103,0.5941,0.5864,0.6018,0.6254,0.649,0.6718,0.6949,0.7103,0.7257,0.7407,0.748,0.748,0.748,0.7638,0.7944,0.8327,0.9231,1.0288,1.1477,1.2732,1.3905,1.5125,1.6254,1.7226,1.825,1.892,1.9641,2.0239,2.0659,2.1266,2.1729,2.234,2.3012,2.3804,2.486,2.6074,2.7063,2.7524,2.7524,2.7291,2.6967,2.6563,2.5997,2.6017,2.5959,2.5852,2.5669,2.5591,2.5342,2.4865,2.4452,2.3956,2.3463,2.2982,2.2555,2.2185,2.18,2.1411,2.1019,2.0506,2.0064,1.9726,1.9208,1.8977,1.8634,1.8345,1.7891,1.7338,1.6734,1.5956,1.527,1.4736,1.4281,1.3912,1.3557,1.32,1.3127,1.2973,1.2826,1.2746,1.2746,1.2746,1.268,1.2526,1.2231,1.1687,1.0891,1.0381,1.0007,0.9573,0.893,0.8072,0.7295,0.6605,0.5924,0.5148,0.6256,0.7587,0.904,1.042,1.1198,1.1307,1.0967,1.0718,1.0368,0.9992,0.9463,0.9003,0.8703,0.8399,0.8021,0.7484,0.7176,0.6795,0.6409,0.6328,0.6251,0.6325,0.656,0.6714,0.6945,0.7026,0.7257,0.7334,0.7411,0.7484,0.7407,0.7407,0.7411,0.7642,0.8021,0.8623,0.9755,1.095,1.2358,1.36,1.4832,1.6035,1.7157,1.8192,1.9131,1.9987,2.0635,2.1348,2.1999,2.2469,2.3125,2.3826,2.4738,2.5508,2.652,2.6945,2.713,2.7011,2.6736,2.6351,2.5988,2.5605,2.5522,2.5508,2.537,2.5398,2.5397,2.5061,2.465,2.4247,2.3839,2.3305,2.2726,2.2285,2.18,2.1411,2.1019,2.0506,2.0064,1.9671,1.9396,1.9131,1.8942,1.8674,1.8202,1.7716,1.7139,1.6627,1.6035,1.5317,1.4689,1.4346,1.3985,1.363,1.3419,1.3346,1.3273,1.3273,1.3119,1.3119,1.2973,1.2826,1.2452,1.2077,1.1471,1.0864,1.0651,1.0276,0.9841,0.9387,0.8742,0.796,0.7287,0.6528,0.4888,0.6039,0.7319,0.9056,1.0722,1.1165,1.1198,1.0905,1.0797,1.0536,1.0162,0.9809,0.9276,0.8917,0.8703,0.8322,0.7863,0.7561,0.7176,0.6718,0.6865,0.6788,0.671,0.6865,0.7099,0.7253,0.7334,0.7488,0.7488,0.7488,0.7334,0.7184,0.7107,0.7107,0.718,0.748,0.8012,0.8775,1.0126,1.1545,1.3091,1.4394,1.5692,1.6872,1.7978,1.9065,1.9868,2.0646,2.1486,2.2173,2.2775,2.3365,2.4292,2.5216,2.5974,2.6365,2.6659,2.6578,2.6404,2.6136,2.5701,2.5328,2.5005,2.4948,2.4935,2.5061,2.5118,2.5174,2.4892,2.4536,2.4189,2.3662,2.3138,2.2531,2.2037,2.1537,2.1031,2.0571,1.9987,1.9539,1.9341,1.9029,1.8897,1.8733,1.8666,1.8144,1.7748,1.7217,1.6687,1.6199,1.5438,1.4792,1.4361,1.4,1.363,1.3419,1.3492,1.3492,1.3419,1.3346,1.32,1.3046,1.29,1.2452,1.1929,1.1409,1.0881,1.0663,1.0293,0.9846,0.9468,0.9165,0.8627,0.7944,0.7176,0.4818,0.5881,0.7897,0.9338,1.0211,1.0877,1.0896,1.052,1.0647,1.0414,1.0137,0.9884,0.9596,0.9321,0.9025,0.8647,0.8376,0.7901,0.7553,0.733,0.7403,0.7249,0.7176,0.7403,0.7557,0.771,0.7791,0.7723,0.7646,0.7492,0.7257,0.718,0.6953,0.6799,0.6718,0.7019,0.7399,0.7863,0.9145,1.0645,1.2271,1.3738,1.5117,1.6376,1.755,1.8654,1.9518,2.0518,2.1348,2.2111,2.2775,2.3603,2.4607,2.5384,2.577,2.5934,2.6179,2.6042,2.5797,2.5536,2.516,2.4808,2.4593,2.4465,2.4536,2.4721,2.4835,2.4892,2.4778,2.4421,2.4015,2.3497,2.2896,2.2347,2.1714,2.1221,2.0658,2.0064,1.9396,1.9208,1.8942,1.8856,1.8656,1.8625,1.856,1.84,1.8171,1.7706,1.7184,1.6607,1.5682,1.4943,1.4431,1.403,1.3674,1.3543,1.3565,1.3514,1.3419,1.3419,1.328,1.2973,1.2673,1.2231,1.1781,1.1335,1.0887,1.0588,1.0293,0.9922,0.962,0.9392,0.9165,0.8632,0.7868,0.5147,0.6203,0.8231,0.9466,1.0015,1.0606,1.0607,1.0308,1.0315,1.0196,0.9886,0.9789,0.9635,0.9458,0.916,0.8971,0.8707,0.8262,0.8023,0.7918,0.7795,0.7714,0.7791,0.7868,0.7868,0.7944,0.7949,0.7876,0.7804,0.7415,0.7184,0.6949,0.6644,0.6335,0.6254,0.6405,0.671,0.7176,0.8237,0.9588,1.1224,1.2778,1.4322,1.5666,1.6922,1.8094,1.9177,2.0172,2.1083,2.2037,2.2836,2.3603,2.4421,2.5048,2.5397,2.5453,2.5508,2.5453,2.5147,2.4921,2.465,2.4305,2.4203,2.4144,2.4261,2.4447,2.4563,2.462,2.4536,2.4292,2.378,2.3258,2.2519,2.1901,2.1262,2.07,1.9987,1.932,1.8931,1.8741,1.8602,1.8547,1.8492,1.8663,1.8571,1.8265,1.8091,1.7716,1.7255,1.6979,1.6045,1.53,1.4785,1.4296,1.3911,1.3733,1.3689,1.3616,1.3499,1.3221,1.3008,1.2686,1.2372,1.2003,1.1632,1.1329,1.0956,1.0663,1.0363,1.0067,0.9841,0.9544,0.9402,0.9204,0.8707,0.5752,0.682,0.8603,0.9658,1.011,1.0498,1.0441,1.013,1.0066,0.9941,0.971,0.9719,0.9546,0.934,0.9217,0.9026,0.887,0.866,0.8543,0.8438,0.8331,0.825,0.825,0.825,0.8255,0.8178,0.8106,0.7953,0.7876,0.7415,0.703,0.6644,0.6257,0.5951,0.5715,0.5712,0.6015,0.6556,0.7472,0.8385,1.0029,1.1749,1.344,1.4887,1.6158,1.7472,1.8623,1.9694,2.0677,2.1702,2.2714,2.3497,2.4015,2.4536,2.4694,2.4865,2.4811,2.4724,2.4536,2.4292,2.4086,2.3865,2.3819,2.3903,2.3975,2.4138,2.43,2.4203,2.4189,2.4002,2.3484,2.2884,2.2199,2.1313,2.0677,2.0042,1.932,1.8664,1.8414,1.8231,1.8251,1.827,1.8408,1.8571,1.8453,1.8201,1.7872,1.7418,1.7039,1.6993,1.6485,1.592,1.5537,1.4941,1.4273,1.4011,1.4043,1.3923,1.3729,1.3252,1.2742,1.2493,1.2177,1.1781,1.1409,1.121,1.0968,1.0663,1.0438,1.0251,0.9992,0.9716,0.975,0.9632,0.9611,0.6365,0.7902,0.9174,1.0034,1.0491,1.0681,1.0674,1.0498,1.0308,1.0155,0.9962,0.9947,0.9814,0.9555,0.9427,0.9314,0.9211,0.9057,0.8946,0.8822,0.8737,0.8756,0.8775,0.8694,0.8789,0.8641,0.8412,0.8178,0.7949,0.7488,0.6949,0.6563,0.5786,0.5398,0.5162,0.5237,0.5392,0.5935,0.6703,0.7698,0.8832,1.0622,1.2638,1.4163,1.5455,1.6715,1.7891,1.91,2.0096,2.1135,2.2211,2.3017,2.3484,2.3826,2.3989,2.4021,2.3968,2.3878,2.3741,2.368,2.3504,2.3397,2.3435,2.3641,2.3748,2.3875,2.3837,2.3628,2.3603,2.3543,2.3065,2.2494,2.1803,2.0655,1.9824,1.9177,1.8462,1.8095,1.7871,1.7865,1.793,1.8081,1.83,1.8415,1.8484,1.8246,1.8197,1.7725,1.7358,1.7133,1.6862,1.6428,1.6075,1.5469,1.4862,1.4539,1.441,1.4282,1.3964,1.3425,1.2928,1.2324,1.2,1.1891,1.1602,1.1346,1.1022,1.0831,1.0551,1.0433,1.0111,0.9889,1.0039,1.0099,1.0105]},{"header":{"parameterUnit":"m.s-1","parameterCategory":1,"la1":31.0,"la2":29.5877,"lo1":-88.7671,"lo2":-86.6584,"dy":0.0162,"dx":0.0185,"nx":115,"ny":88,"refTime":"2023-06-03T18:00:00:Z","depth":0,"parameterNumber":3,"parameterNumberName":"V-component_of_WINDS"},"data":[0.0,0.0,0.0,0.0,0.0,0.0,0.0,0.0,0.0,0.0,0.0,0.0,0.0,0.0,0.0,0.0,0.0,0.0,0.0,0.0,0.0,0.0,0.0,0.0,0.0,0.0,0.0,0.0,0.0,0.0,0.0,0.0,0.0,0.0,0.0,0.0,0.0,0.0,0.0,0.0,0.0,0.0,0.0,0.0,0.0,0.0,0.0,0.0,0.0,0.0,0.0,0.0,0.0,0.0,0.0,0.0,0.0,0.0,0.0,0.0,0.0,0.0,0.0,0.0,0.0,0.0,0.0,0.0,0.0,0.0,0.0,0.0,0.0,0.0,0.0,0.0,0.0,0.0,0.0,0.0,0.0,0.0,0.0,0.0,0.0,0.0,0.0,0.0,0.0,0.0,0.0,0.0,0.0,0.0,0.0,0.0,0.0,0.0,0.0,0.0,0.0,0.0,0.0,0.0,0.0,0.0,0.0,0.0,0.0,0.0,0.0,0.0,0.0,0.0,0.0,0.0,0.0,0.0,0.0,0.0,0.0,0.0,0.0,0.0,0.0,0.0,0.0,0.0,0.0,0.0,0.0,0.0,0.0,0.0,0.0,0.0,0.0,0.0,0.0,0.0,0.0,0.0,0.0,0.0,0.0,0.0,0.0,0.0,0.0,0.0,0.0,0.0,0.0,0.0,0.0,0.0,0.0,0.0,0.0,0.0,0.0,0.0,0.0,0.0,0.0,0.0,0.0,0.0,0.0,0.0,0.0,0.0,0.0,0.0,0.0,0.0,0.0,0.0,0.0,0.0,0.0,0.0,0.0,0.0,0.0,0.0,0.0,0.0,0.0,0.0,0.0,0.0,0.0,0.0,0.0,0.0,0.0,0.0,0.0,0.0,0.0,0.0,0.0,0.0,0.0,0.0,0.0,0.0,0.0,0.0,0.0,0.0,0.0,0.0,0.0,0.0,0.0,0.0,0.0,0.0,0.0,0.0,0.0,0.0,0.0,0.0,0.0,0.0,0.0,0.0,0.0,0.0,0.0,0.0,0.0,0.0,0.0,0.0,0.0,0.0,0.0,0.0,0.0,0.0,0.0,0.0,0.0,0.0,0.0,0.0,0.0,0.0,0.0,0.0,0.0,0.0,0.0,0.0,0.0,0.0,0.0,0.0,0.0,0.0,0.0,0.0,0.0,0.0,0.0,0.0,0.0,0.0,0.0,0.0,0.0,0.0,0.0,0.0,0.0,0.0,0.0,0.0,0.0,0.0,0.0,0.0,0.0,0.0,0.0,0.0,0.0,0.0,0.0,0.0,0.0,0.0,0.0,0.0,0.0,0.0,0.0,0.0,0.0,0.0,0.0,0.0,0.0,0.0,0.0,0.0,0.0,0.0,0.0,0.0,0.0,0.0,0.0,0.0,0.0,0.0,0.0,0.0,0.0,0.0,0.0,0.0,0.0,0.0,0.0,0.0,0.0,0.0,0.0,0.0,0.0,0.0,0.0,0.0,0.0,0.0,0.0,0.0,0.0,0.0,0.0,0.0,0.0,0.0,0.0,0.0,0.0,0.0,0.0,0.0,0.0,0.0,0.0,0.0,0.0,0.0,0.0,0.0,0.0,0.0,0.0,0.0,0.0,0.0,0.0,0.0,0.0,0.0,0.0,0.0,0.0,0.0,0.0,0.0,0.0,0.0,0.0,0.0,0.0,0.0,0.0,0.0,0.0,0.0,0.0,0.0,0.0,0.0,0.0,0.0,0.0,0.0,0.0,0.0,0.0,0.0,0.0,0.0,0.0,0.0,0.0,0.0,0.0,0.0,0.0,0.0,0.0,0.0,0.0,0.0,0.0,0.0,0.0,0.0,0.0,0.0,0.0,0.0,0.0,0.0,0.0,0.0,0.0,0.0,0.0,0.0,0.0,0.0,0.0,0.0,0.0,0.0,0.0,0.0,0.0,0.0,0.0,0.0,0.0,0.0,0.0,0.0,0.0,0.0,0.0,0.0,0.0,0.0,0.0,0.0,0.0,0.0,0.0,0.0,0.0,0.0,0.0,0.0,0.0,0.0,0.0,0.0,0.0,0.0,0.0,0.0,0.0,0.0,0.0,0.0,0.0,0.0,0.0,0.0,0.0,0.0,0.0,0.0,0.0,0.0,0.0,0.0,0.0,0.0,0.0,0.0,0.0,0.0,0.0,0.0,0.0,0.0,0.0,0.0,0.0,0.0,0.0,0.0,0.0,0.0,0.0,0.0,0.0,0.0,0.0,0.0,0.0,0.0,0.0,0.0,0.0,0.0,0.0,0.0,0.0,0.0,0.0,0.0,0.0,0.0,0.0,0.0,0.0,0.0,0.0,0.0,0.0,0.0,0.0,0.0,0.0,0.0,0.0,0.0,0.0,0.0,0.0,0.0,0.0,0.0,0.0,0.0,0.0,0.0,0.0,0.0,0.0,0.0,0.0,0.0,0.0,0.0,0.0,0.0,0.0,0.0,0.0,0.0,0.0,0.0,0.0,0.0,0.0,0.0,0.0,0.0,0.0,0.0,0.0,0.0,0.0,0.0,0.0,0.0,0.0,0.0,0.0,0.0,0.0,0.0,0.0,0.0,0.0,0.0,0.0,0.0,0.0,0.0,0.0,0.0,0.0,0.0,0.0,0.0,0.0,0.0,0.0,0.0,0.0,0.0,0.0,0.0,0.0,0.0,0.0,0.0,0.0,0.0,0.0,0.0,0.0,0.0,0.0,0.0,0.0,0.0,0.0,0.0,0.0,0.0,0.0,0.0,0.0,0.0,0.0,0.0,0.0,0.0,0.0,0.0,0.0,0.0,0.0,0.0,0.0,0.0,0.0,0.0,0.0,0.0,0.0,0.0,0.0,0.0,0.0,0.0,0.0,0.0,0.0,0.0,0.0,0.0,0.0,0.0,0.0,0.0,0.0,0.0,0.0,0.0,0.0,0.0,0.0,0.0,0.0,0.0,0.0,0.0,0.0,0.0,0.0,0.0,0.0,0.0,0.0,0.0,0.0,0.0,0.0,0.0,0.0,0.0,0.0,0.0,0.0,0.0,0.0,0.0,0.0,0.0,0.0,0.0,0.0,0.0,0.0,0.0,0.0,0.0,0.0,0.0,0.0,0.0,0.0,0.0,0.0,0.0,0.0,0.0,0.0,0.0,0.0,0.0,0.0,0.0,0.0,0.0,0.0,0.0,0.0,0.0,0.0,0.0,0.0,0.0,0.0,0.0,0.0,0.0,0.0,0.0,0.0,0.0,0.0,0.0,0.0,0.0,0.0,0.0,0.0,0.0,0.0,0.0,0.0,0.0,0.0,0.0,0.0,0.0,0.0,0.0,0.0,0.0,0.0,0.0,0.0,0.0,0.0,0.0,0.0,0.0,0.0,0.0,0.0,0.0,0.0,0.0,0.0,0.0,0.0,0.0,0.0,0.0,0.0,0.0,0.0,0.0,0.0,0.0,0.0,0.0,0.0,0.0,0.0,0.0,0.0,0.0,0.0,0.0,0.0,0.0,0.0,0.0,0.0,0.0,0.0,0.0,0.0,0.0,0.0,0.0,0.0,0.0,0.0,0.0,0.0,0.0,0.0,0.0,0.0,0.0,0.0,0.0,0.0,0.0,0.0,0.0,0.0,0.0,0.0,0.0,0.0,0.0,0.0,0.0,0.0,0.0,0.0,0.0,0.0,0.0,0.0,0.0,0.0,0.0,0.0,0.0,0.0,0.0,0.0,0.0,0.0,0.0,0.0,0.0,0.0,0.0,0.0,0.0,0.0,0.0,0.0,0.0,0.0,0.0,0.0,0.0,0.0,0.0,0.0,0.0,0.0,0.0,0.0,0.0,0.0,0.0,0.0,0.0,0.0,0.0,0.0,0.0,0.0,0.0,0.0,0.0,0.0,0.0,0.0,0.0,0.0,0.0,0.0,0.0,0.0,0.0,0.0,0.0,0.0,0.0,0.0,0.0,0.0,0.0,0.0,0.0,0.0,0.0,0.0,0.0,0.0,0.0,0.0,0.0,0.0,0.0,0.0,0.0,0.0,0.0,0.0,0.0,0.0,0.0,0.0,0.0,0.0,0.0,0.0,0.0,0.0,0.0,0.0,0.0,0.0,0.0,0.0,0.0,0.0,0.0,0.0,0.0,0.0,0.0,0.0,0.0,0.0,0.0,0.0,0.0,0.0,0.0,0.0,0.0,0.0,0.0,0.0,0.0,0.0,0.0,0.0,0.0,0.0,0.0,0.0,0.0,0.0,0.0,0.0,0.0,0.0,0.0,0.5117,0.0,0.0,0.0,0.0,0.0,0.0,0.0,0.0,0.0,0.0,0.0,0.0,0.0,0.0,0.0,0.0,0.0,0.0,0.0,0.0,0.0,0.0,0.0,0.0,0.0,0.0,0.0,0.0,0.0,0.0,0.0,0.0,0.0,0.0,0.0,0.0,0.0,0.0,0.0,0.0,0.0,0.0,0.0,0.0,0.0,0.0,0.0,0.0,0.0,0.0,0.0,0.0,0.0,0.0,0.0,0.0,0.0,0.0,0.0,0.0,0.0,0.0,0.0,0.0,0.0,0.0,0.0,0.0,0.0,0.0,0.0,0.0,0.0,0.0,0.0,0.0,0.0,0.0,0.0,0.0,0.0,0.0,0.0,0.0,0.0,0.0,0.0,0.0,0.0,0.0,0.0,0.0,0.0,0.0,0.0,0.0,0.0,0.0,0.0,0.0,0.0,0.0,0.0,0.0,0.0,0.0,0.0,0.0,0.0,0.0,0.4104,0.4391,0.4575,0.4805,0.5108,0.0,0.0,0.0,0.0,0.0,0.0,0.0,0.0,0.0,0.0,0.0,0.0,0.0,0.0,0.0,0.0,0.0,0.0,0.0,0.0,0.0,0.0,0.0,0.0,0.0,0.0,0.0,0.0,0.0,0.0,0.0,0.0,0.0,0.0,0.0,0.0,0.0,0.0,0.0,0.0,0.0,0.0,0.0,0.0,0.0,0.0,0.0,0.0,0.0,0.0,0.0,0.0,0.0,0.0,0.0,0.0,0.0,0.0,0.0,0.0,0.0,0.0,0.0,0.0,0.0,0.0,0.0,0.0,0.0,0.0,0.0,0.0,0.0,0.0,0.0,0.0,0.0,0.0,0.0,0.0,0.0,0.0,0.0,0.0,0.0,0.0,0.0,0.0,0.0,0.0,0.0,0.0,0.0,0.0,0.0,0.0,0.0,0.0,0.0,0.0,0.0,0.0,0.0,0.0,0.0,0.0,0.0,0.0,0.0,0.0,0.0,0.0,0.4635,0.4903,0.5224,0.0,0.0,0.0,0.0,0.0,0.0,0.0,0.0,0.0,0.0,0.0,0.0,0.0,0.0,0.0,0.0,0.0,0.0,0.0,0.0,0.0,0.0,0.0,0.0,0.0,0.0,0.0,0.0,0.0,0.0,0.0,0.0,0.0,0.0,0.0,0.0,0.0,0.0,0.0,0.0,0.0,0.0,0.0,0.0,0.0,0.0,0.0,0.0,0.0,0.0,0.0,0.0,0.0,0.0,0.0,0.0,0.0,0.0,0.0,0.0,0.0,0.0,0.0,0.0,0.0,0.0,0.0,0.0,0.0,0.0,0.0,0.0,0.0,0.0,0.0,0.0,0.0,0.0,0.0,0.0,0.0,0.0,0.0,0.0,0.0,0.0,0.0,0.0,0.0,0.0,0.0,0.0,0.0,0.0,0.0,0.0,0.0,0.0,0.0,0.0,0.0,0.0,0.0,0.0,0.0,0.0,0.0,0.0,0.0,0.0,0.426,0.4475,0.4745,0.0,0.5622,0.0,0.0,0.0,0.0,0.0,0.0,0.0,0.0,0.0,0.0,0.0,0.0,0.0,0.0,0.0,0.0,0.0,0.0,0.0,0.0,0.0,0.0,0.0,0.0,0.0,0.0,0.0,0.0,0.0,0.0,0.0,0.0,0.0,0.0,0.0,0.0,0.0,0.0,0.0,0.0,0.0,0.0,0.0,0.0,0.0,0.0,0.0,0.0,0.0,0.0,0.0,0.0,0.0,0.0,0.0,0.0,0.0,0.0,0.0,0.0,0.0,0.0,0.0,0.0,0.0,0.0,0.0,0.0,0.0,0.0,0.0,0.0,0.0,0.0,0.0,0.0,0.0,0.0,0.0,0.0,0.0,0.0,0.0,0.0,0.0,0.0,0.0,0.0,0.0,0.0,0.0,0.0,0.0,0.0,0.0,0.0,0.0,0.0,0.0,0.0,0.0,0.0,0.0,0.0,0.0,0.0,0.0,0.0,0.0,0.0,0.4301,0.4478,0.4873,0.5272,0.0,0.0,0.0,0.0,0.0,0.0,0.0,0.0,0.0,0.0,0.0,0.0,0.0,0.0,0.0,0.0,0.0,0.0,0.0,0.0,0.0,0.0,0.0,0.0,0.0,0.0,0.0,0.0,0.0,0.0,0.0,0.0,0.0,0.0,0.0,0.0,0.0,0.0,0.0,0.0,0.0,0.0,0.0,0.0,0.0,0.0,0.0,0.0,0.0,0.0,0.0,0.0,0.0,0.0,0.0,0.0,0.0,0.0,0.0,0.0,0.0,0.0,0.0,0.0,0.0,0.0,0.0,0.0,0.0,0.0,0.0,0.0,0.0,0.0,0.0,0.0,0.0,0.0,0.0,0.0,0.0,0.0,0.0,0.0,0.0,0.0,0.0,0.0,0.0,0.0,0.0,0.0,0.0,0.0,0.0,0.0,0.0,0.0,0.0,0.0,0.0,0.0,0.0,0.0,0.0,0.0,0.0,0.0,0.0,0.0,0.3917,0.4321,0.4606,0.502,0.5378,0.5729,0.0,0.0,0.0,0.0,0.0,0.0,0.0,0.0,0.0,0.0,0.0,0.0,0.0,0.0,0.0,0.0,0.0,0.0,0.0,0.0,0.0,0.0,0.0,0.0,0.0,0.0,0.0,0.0,0.0,0.0,0.0,0.0,0.0,0.0,0.0,0.0,0.0,0.0,0.0,0.0,0.0,0.0,0.0,0.0,0.0,0.0,0.0,0.0,0.0,0.0,0.0,0.0,0.0,0.0,0.0,0.0,0.0,0.0,0.0,0.0,0.0,0.0,0.0,0.0,0.0,0.0,0.0,0.0,0.0,0.0,0.0,0.0,0.0,0.0,0.0,0.0,0.0,0.0,0.0,0.0,0.0,0.0,0.0,0.0,0.0,0.0,0.0,0.0,0.0,0.0,0.0,0.0,0.0,0.0,0.0,0.0,0.0,0.0,0.0,0.0,0.0,0.0,0.0,0.0,0.0,0.0,0.0,0.0,0.0,0.3925,0.4431,0.4873,0.5156,0.5454,0.0,0.0,0.0,0.0,0.0,0.0,0.0,0.0,0.0,0.0,0.0,0.0,0.0,0.0,0.0,0.0,0.0,0.0,0.0,0.0,0.0,0.0,0.0,0.0,0.0,0.0,0.0,0.0,0.0,0.0,0.0,0.0,0.0,0.0,0.0,0.0,0.0,0.0,0.0,0.0,0.0,0.0,0.0,0.0,0.0,0.0,0.0,0.0,0.0,0.0,0.0,0.0,0.0,0.0,0.0,0.0,0.0,0.0,0.0,0.0,0.0,0.0,0.0,0.0,0.0,0.0,0.0,0.0,0.0,0.0,0.0,0.0,0.0,0.0,0.0,0.0,0.0,0.0,0.0,0.0,0.0,0.0,0.0,0.0,0.0,0.0,0.0,0.0,0.0,0.0,0.0,0.0,0.0,0.0,0.0,0.0,0.0,0.0,0.0,0.0,0.0,0.0,0.0,0.0,0.0,0.0,0.0,0.0,0.0,0.3099,0.3944,0.4555,0.4893,0.5195,0.5511,0.0,0.0,0.0,0.0,0.0,0.0,0.0,0.0,0.0,0.0,0.0,0.0,0.0,0.0,0.0,0.0,0.0,0.0,0.0,0.0,0.0,0.0,0.0,0.0,0.0,0.0,0.0,0.0,0.0,0.0,0.0,0.0,0.0,0.0,0.0,0.0,0.0,0.0,0.0,0.0,0.0,0.0,0.0,0.0,0.0,0.0,0.0,0.0,0.0,0.0,0.0,0.0,0.0,0.0,0.0,0.0,0.0,0.0,0.0,0.0,0.0,0.0,0.0,0.0,0.0,0.0,0.0,0.0,0.0,0.0,0.0,0.0,0.0,0.0,0.0,0.0,0.0,0.0,0.0,0.0,0.0,0.0,0.0,0.0,0.0,0.0,0.0,0.0,0.0,0.0,0.0,0.0,0.0,0.0,0.0,0.0,0.0,0.0,0.0,0.0,0.0,0.0,0.0,0.0,0.0,0.0,0.0,0.0,0.0,0.3249,0.0,0.4635,0.0,0.5273,0.5598,0.0,0.0,0.0,0.0,0.0,0.0,0.0,0.0,0.0,0.0,0.0,0.0,0.0,0.0,0.0,0.0,0.0,0.0,0.0,0.0,0.0,0.0,0.0,0.0,0.0,0.0,0.0,0.0,0.0,0.0,0.0,0.0,0.0,0.0,0.0,0.0,0.0,0.0,0.0,0.0,0.0,0.0,0.0,0.0,0.0,0.0,0.0,0.0,0.0,0.0,0.0,0.0,0.0,0.0,0.0,0.0,0.0,0.0,0.0,0.0,0.0,0.0,0.0,0.0,0.0,0.0,0.0,0.0,0.0,0.0,0.0,0.0,0.0,0.0,0.0,0.0,0.0,0.0,0.0,0.0,0.0,0.0,0.0,0.0,0.0,0.0,0.0,0.0,0.0,0.0,0.0,0.0,0.0,0.0,0.0,0.0,0.0,0.0,0.0,0.0,0.0,0.0,0.0,0.0,0.0,0.0,0.0,0.0,0.2761,0.3943,0.4305,0.4646,0.497,0.531,0.5652,0.0,0.0,0.0,0.0,0.0,0.0,0.0,0.0,0.0,0.0,0.0,0.0,0.0,0.0,0.0,0.0,0.0,0.0,0.0,0.0,0.0,0.0,0.0,0.0,0.0,0.0,0.0,0.0,0.0,0.0,0.0,0.0,0.0,0.0,0.0,0.0,0.0,0.0,0.0,0.0,0.0,0.0,0.0,0.0,0.0,0.0,0.0,0.0,0.0,0.0,0.0,0.0,0.0,0.0,0.0,0.0,0.0,0.0,0.0,0.0,0.0,0.0,0.0,0.0,0.0,0.0,0.0,0.0,0.0,0.0,0.0,0.0,0.0,0.0,0.0,0.0,0.0,0.0,0.0,0.0,0.0,0.0,0.0,0.0,0.0,0.0,0.0,0.0,0.0,0.0,0.0,0.0,0.0,0.0,0.0,0.0,0.0,0.0,0.0,0.0,0.0,0.0,0.0,0.0,0.0,0.0,0.0,0.0,0.0,0.3812,0.4191,0.4498,0.4796,0.5243,0.5718,0.0,0.0,0.0,0.0,0.0,0.0,0.0,0.0,0.0,0.0,0.0,0.0,0.0,0.0,0.0,0.0,0.0,0.0,0.0,0.0,0.0,0.0,0.0,0.0,0.0,0.0,0.0,0.0,0.0,0.0,0.0,0.0,0.0,0.0,0.0,0.0,0.0,0.0,0.0,0.0,0.0,0.0,0.0,0.0,0.0,0.0,0.0,0.0,0.0,0.0,0.0,0.0,0.0,0.0,0.0,0.0,0.0,0.0,0.0,0.0,0.0,0.0,0.0,0.0,0.0,0.0,0.0,0.0,0.0,0.0,0.0,0.0,0.0,0.0,0.0,0.0,0.0,0.0,0.0,0.0,0.0,0.0,0.0,0.0,0.0,0.0,0.0,0.0,0.0,0.0,0.0,0.0,0.0,0.0,0.0,0.0,0.0,0.0,0.0,0.0,0.0,0.0,0.0,0.0,0.0,0.0,0.0,0.0,0.0,0.3475,0.4096,0.4683,0.5205,0.5532,0.5946,0.6446,0.0,0.0,0.0,0.0,0.0,0.0,0.0,0.0,0.0,0.0,0.0,0.0,0.0,0.0,0.0,0.0,0.0,0.0,0.0,0.0,0.0,0.0,0.0,0.0,0.0,0.0,0.0,0.0,0.0,0.0,0.0,0.0,0.0,0.0,0.0,0.0,0.0,0.0,0.0,0.0,0.0,0.0,0.0,0.0,0.0,0.0,0.0,0.0,0.0,0.0,0.0,0.0,0.0,0.0,0.0,0.0,0.0,0.0,0.0,0.0,0.0,0.0,0.0,0.0,0.0,0.0,0.0,0.0,0.0,0.0,0.0,0.0,0.0,0.0,0.0,0.0,0.0,0.0,0.0,0.0,0.0,0.0,0.0,0.0,0.0,0.0,0.0,0.0,0.0,0.0,0.0,0.0,0.0,0.0,0.0,0.0,0.0,0.0,0.0,0.0,0.0,0.0,0.0,0.0,0.0,0.0,0.0,0.0,0.2963,0.4015,0.5037,0.608,0.6102,0.6349,0.0,0.0,0.0,0.0,0.0,0.0,0.0,0.0,0.0,0.0,0.0,0.0,0.0,0.0,0.0,0.0,0.0,0.0,0.0,0.0,0.0,0.0,0.0,0.0,0.0,0.0,0.0,0.0,0.0,0.0,0.0,0.0,0.0,0.0,0.0,0.0,0.0,0.0,0.0,0.0,0.0,0.0,0.0,0.0,0.0,0.0,0.0,0.0,0.0,0.0,0.0,0.0,0.0,0.0,0.0,0.0,0.0,0.0,0.0,0.0,0.0,0.0,0.0,0.0,0.0,0.0,0.0,0.0,0.0,0.0,0.0,0.0,0.0,0.0,0.0,0.0,0.0,0.0,0.0,0.0,0.0,0.0,0.0,0.0,0.0,0.0,0.0,0.0,0.0,0.0,0.0,0.0,0.0,0.0,0.0,0.0,0.0,0.0,0.0,0.0,0.0,0.0,0.0,0.0,0.0,0.0,0.0,0.0,0.0,0.2676,0.364,0.4859,0.6247,0.6084,0.6319,0.0,0.0,0.0,0.0,0.0,0.0,0.0,0.0,0.0,0.0,0.0,0.0,0.0,0.0,0.0,0.0,0.0,0.0,0.0,0.0,0.0,0.0,0.0,0.0,0.0,0.0,0.0,0.0,0.0,0.0,0.0,0.0,0.0,0.0,0.0,0.0,0.0,0.0,0.0,0.0,0.0,0.0,0.0,0.0,0.0,0.0,0.0,0.0,0.0,0.0,0.0,0.0,0.0,0.0,0.0,0.0,0.0,0.0,0.0,0.0,0.0,0.0,0.0,0.0,0.0,0.0,0.0,0.0,0.0,0.0,0.0,0.0,0.0,0.0,0.0,0.0,0.0,0.0,0.0,0.0,0.0,0.0,0.0,0.0,0.0,0.0,0.0,0.0,0.0,0.0,0.0,0.0,0.0,0.0,0.0,0.0,0.0,0.0,0.0,0.0,0.0,0.0,0.0,0.0,0.0,0.0,0.0,0.0,0.0867,0.215,0.3098,0.4355,0.5894,0.6159,0.657,0.0,0.0,0.0,0.0,0.0,0.0,0.0,0.0,0.0,0.0,0.0,0.0,0.0,0.0,0.0,0.0,0.0,0.0,0.0,0.0,0.0,0.0,0.0,0.0,0.0,0.0,0.0,0.0,0.0,0.0,0.0,0.0,0.0,0.0,0.0,0.0,0.0,0.0,0.0,0.0,0.0,0.0,0.0,0.0,0.0,0.0,0.0,0.0,0.0,0.0,0.0,0.0,0.0,0.0,0.0,0.0,0.0,0.0,0.0,0.0,0.0,0.0,0.0,0.0,0.0,0.0,0.0,0.0,0.0,0.0,0.0,0.0,0.0,0.0,0.0,0.0,0.0,0.0,0.0,0.0,0.0,0.0,0.0,0.0,0.0,0.0,0.0,0.0,0.0,0.0,0.0,0.0,0.0,0.0,0.0,0.0,0.0,0.0,0.0,0.0,0.0,0.0,0.0,0.0,0.0,0.0,0.0,0.0,0.0208,0.1492,0.2506,0.3705,0.5153,0.6185,0.6852,0.0,0.0,0.0,0.0,0.0,0.0,0.0,0.0,0.0,0.0,0.0,0.0,0.0,0.0,0.0,0.0,0.0,0.0,0.0,0.0,0.0,0.0,0.0,0.0,0.0,0.0,0.0,0.0,0.0,0.0,0.0,0.0,0.0,0.0,0.0,0.0,0.0,0.0,0.0,0.0,0.0,0.0,0.0,0.0,0.0,0.0,0.0,0.0,0.0,0.0,0.0,0.0,0.0,0.0,0.0,0.0,0.0,0.0,0.0,0.0,0.0,0.0,0.0,0.0,0.0,0.0,0.0,0.0,0.0,0.0,0.0,0.0,0.0,0.0,0.0,0.0,0.0,0.0,0.0,0.0,0.0,0.0,0.0,0.0,0.0,0.0,0.0,0.0,0.0,0.0,0.0,0.0,0.0,0.0,0.0,0.0,0.0,0.0,0.0,0.0,0.0,0.0,0.0,0.0,0.0,0.0,0.0,0.0,-0.0137,0.0944,0.1973,0.3127,0.4474,0.5647,0.6409,0.0,0.0,0.0,0.0,0.0,0.0,0.0,0.0,0.0,0.0,0.0,0.0,0.0,0.0,0.0,0.0,0.0,0.0,0.0,0.0,0.0,0.0,0.0,0.0,0.0,0.0,0.0,0.0,0.0,0.0,0.0,0.0,0.0,0.0,0.0,0.0,0.0,0.0,0.0,0.0,0.0,0.0,0.0,0.0,0.0,0.0,0.0,0.0,1.1052,0.0,0.0,0.0,0.0,0.0,0.0,0.0,0.0,0.0,0.0,0.0,0.0,0.0,0.0,0.0,0.0,0.0,0.0,0.0,0.0,0.0,0.0,0.0,0.0,0.0,0.0,0.0,0.0,0.0,0.0,0.0,0.0,0.0,0.0,0.0,0.0,0.0,0.0,0.0,0.0,0.0,0.0,0.0,0.0,0.0,0.0,0.0,0.0,0.0,0.0,0.0,0.0,0.0,0.0,0.0,0.0,0.0,0.0,0.0,-0.0474,0.0643,0.1759,0.2885,0.3975,0.4966,0.5788,0.0,0.0,0.0,0.0,0.0,0.0,0.0,0.0,0.0,0.0,0.0,0.0,0.0,0.0,0.0,0.0,0.0,0.0,0.0,0.0,0.0,0.0,0.0,0.0,0.0,0.0,0.0,0.0,0.0,0.0,0.0,0.0,0.0,0.0,0.0,0.0,0.0,0.0,0.0,0.0,0.0,0.0,0.0,0.0,0.0,0.0,0.0,0.0,0.0,0.0,0.0,0.0,0.0,0.0,0.0,0.0,0.0,0.0,0.0,0.0,0.0,0.0,0.0,0.0,0.0,0.0,0.0,0.0,0.0,0.0,0.0,0.0,0.0,0.0,0.0,0.0,0.0,0.0,0.0,0.0,0.0,0.0,0.0,0.0,0.0,0.0,0.0,0.0,0.0,0.0,0.0,0.0,0.0,0.0,0.0,0.0,0.0,0.0,0.0,0.0,0.0,0.0,0.0,0.0,0.0,0.0,0.0,-0.1282,-0.0726,0.0477,0.1732,0.2758,0.3538,0.4304,0.505,0.5737,0.0,0.0,0.0,0.0,0.0,0.0,0.0,0.0,0.0,0.0,0.0,0.0,0.0,0.0,0.0,0.0,0.0,0.0,0.0,0.0,0.0,0.0,0.0,0.0,0.0,0.0,0.0,0.0,0.0,0.0,0.0,0.0,0.0,0.0,0.0,0.0,0.0,0.0,0.9408,0.9957,0.0,0.0,0.0,0.0,0.0,0.0,0.0,0.0,1.1738,0.0,0.0,0.0,0.0,0.0,0.0,0.0,0.0,0.0,0.0,0.0,0.0,0.0,0.0,0.0,0.0,0.0,0.0,0.0,0.0,0.0,0.0,0.0,0.0,0.0,0.0,0.0,0.0,0.0,0.0,0.0,0.0,0.0,0.0,0.0,0.0,0.0,0.0,0.0,0.0,0.0,0.0,0.0,0.0,0.0,0.0,0.0,0.0,0.0,0.0,0.0,0.0,0.0,0.0,0.0,0.0,-0.1134,-0.0928,-0.0419,0.042,0.1674,0.2521,0.2946,0.3828,0.4433,0.468,0.0,0.0,0.0,0.0,0.0,0.0,0.0,0.0,0.0,0.0,0.0,0.0,0.0,0.0,0.0,0.0,0.0,0.0,0.0,0.0,0.0,0.0,0.0,0.0,0.0,0.0,0.0,0.0,0.0,0.0,0.0,0.0,0.0,0.0,0.0,0.0,0.0,0.0,0.0,1.0046,1.0287,0.0,0.0,0.0,0.0,0.0,0.0,0.0,0.0,1.3509,0.0,0.0,0.0,0.0,0.0,0.0,0.0,0.0,0.0,0.0,0.0,0.0,0.0,0.0,0.0,0.0,0.0,0.0,0.0,0.0,0.0,0.0,0.0,0.0,0.0,0.0,0.0,0.0,0.0,0.0,0.0,0.0,0.0,0.0,0.0,0.0,0.0,0.0,0.0,0.0,0.0,0.0,0.0,0.0,0.0,0.0,0.0,0.0,0.0,0.0,0.0,0.0,0.0,0.0,0.0,-0.1249,-0.0812,-0.0291,0.0345,0.1459,0.2232,0.2622,0.3329,0.3866,0.0,0.0,0.0,0.0,0.0,0.0,0.0,0.0,0.0,0.0,0.0,0.0,0.0,0.0,0.0,0.0,0.0,0.0,0.0,0.0,0.0,0.0,0.0,0.0,0.0,0.0,0.0,0.0,0.0,0.0,0.0,0.0,0.0,0.0,0.0,0.0,0.0,0.0,0.0,0.0,1.0815,1.1213,1.1388,0.0,0.0,0.0,0.0,0.0,0.0,1.3555,1.4047,0.0,0.0,0.0,0.0,0.0,0.0,0.0,0.0,0.0,0.0,0.0,0.0,0.0,0.0,0.0,0.0,0.0,0.0,0.0,0.0,0.0,0.0,0.0,0.0,0.0,0.0,0.0,0.0,0.0,0.0,0.0,0.0,0.0,0.0,0.0,0.0,0.0,0.0,0.0,0.0,0.0,0.0,0.0,0.0,0.0,0.0,0.0,0.0,0.0,0.0,0.0,0.0,0.0,0.0,0.0,-0.1252,-0.0701,-0.0125,0.0403,0.1265,0.194,0.2427,0.2882,0.337,0.0,0.0,0.0,0.0,0.0,0.0,0.0,0.0,0.0,0.0,0.0,0.0,0.0,0.0,0.0,0.0,0.0,0.0,0.0,0.0,0.0,0.0,0.0,0.0,0.0,0.0,0.0,0.0,0.0,0.0,0.0,0.0,0.0,0.0,0.0,0.0,0.0,0.0,0.0,0.0,0.0,1.2079,1.2281,1.2552,0.0,0.0,0.0,0.0,1.382,1.4243,0.0,0.0,0.0,0.0,0.0,0.0,0.0,0.0,0.0,0.0,0.0,0.0,0.0,0.0,0.0,0.0,0.0,0.0,0.0,0.0,0.0,0.0,0.0,0.0,0.0,0.0,0.0,0.0,0.0,0.0,0.0,0.0,0.0,0.0,0.0,0.0,0.0,0.0,0.0,0.0,0.0,0.0,0.0,0.0,0.0,0.0,0.0,0.0,0.0,0.0,0.0,0.0,0.0,0.0,0.0,0.0,-0.0782,-0.0316,0.0202,0.0731,0.1189,0.1659,0.2143,0.261,0.3074,0.0,0.0,0.0,0.0,0.0,0.0,0.0,0.0,0.0,0.0,0.0,0.0,0.0,0.0,0.0,0.0,0.0,0.0,0.0,0.0,0.0,0.0,0.0,0.0,0.0,0.0,0.0,0.0,0.0,0.0,0.0,0.0,0.0,0.0,0.0,0.0,0.0,0.0,0.0,0.0,0.0,1.205,1.2354,1.2622,1.2886,0.0,0.0,0.0,1.4633,1.5507,0.0,0.0,0.0,0.0,0.0,0.0,0.0,0.0,0.0,0.0,0.0,0.0,0.0,0.0,0.0,0.0,0.0,0.0,0.0,0.0,0.0,0.0,0.0,0.0,0.0,0.0,0.0,0.0,0.0,0.0,0.0,0.0,0.0,0.0,0.0,0.0,0.0,0.0,0.0,0.0,0.0,0.0,0.0,0.0,0.0,0.0,0.0,0.0,0.0,0.0,0.0,0.0,0.0,0.0,0.0,-0.0962,-0.0584,-0.0163,0.0331,0.0894,0.1194,0.156,0.1979,0.2457,0.2906,0.0,0.0,0.0,0.0,0.0,0.0,0.0,0.0,0.0,0.0,0.0,0.0,0.0,0.0,0.0,0.0,0.0,0.0,0.0,0.0,0.0,0.0,0.0,0.0,0.0,0.0,0.0,0.0,0.0,0.0,0.0,0.0,0.0,0.0,0.0,0.0,0.0,0.0,0.0,0.0,0.0,0.0,1.3408,1.3725,0.0,0.0,0.0,1.5334,1.561,0.0,0.0,0.0,0.0,0.0,0.0,0.0,0.0,0.0,0.0,0.0,0.0,0.0,0.0,0.0,0.0,0.0,0.0,0.0,0.0,0.0,0.0,0.0,0.0,0.0,0.0,0.0,0.0,0.0,0.0,0.0,0.0,0.0,0.0,0.0,0.0,0.0,0.0,0.0,0.0,0.0,0.0,0.0,0.0,0.0,0.0,0.0,0.0,0.0,0.0,0.0,0.0,0.0,0.0,0.0,0.0,0.0,-0.0449,-0.0045,0.0403,0.0959,0.1183,0.1496,0.1916,0.235,0.0,0.0,0.0,0.0,0.0,0.0,0.0,0.0,0.0,0.0,0.0,0.0,0.0,0.0,0.0,0.0,0.0,0.0,0.0,0.0,0.0,0.0,0.0,0.0,0.0,0.0,0.0,0.6648,0.0,0.0,0.0,0.0,0.0,0.0,0.0,0.0,0.0,0.0,0.0,0.0,0.0,0.0,1.4445,1.4801,1.5129,1.5513,0.0,0.0,1.6569,1.6948,1.7327,1.7698,0.0,0.0,0.0,0.0,0.0,0.0,0.0,0.0,0.0,0.0,0.0,0.0,0.0,0.0,0.0,0.0,0.0,0.0,0.0,0.0,0.0,0.0,0.0,0.0,0.0,0.0,0.0,0.0,0.0,0.0,0.0,0.0,0.0,0.0,0.0,0.0,0.0,0.0,0.0,0.0,0.0,0.0,0.0,0.0,0.0,0.0,0.0,0.0,0.0,0.0,0.0,0.0,0.0,0.0,0.0,-0.0292,0.009,0.0493,0.0892,0.1161,0.1519,0.1986,0.2342,0.2751,0.0,0.0,0.0,0.0,0.0,0.0,0.0,0.0,0.0,0.0,0.0,0.0,0.0,0.0,0.0,0.0,0.0,0.0,0.0,0.0,0.0,0.0,0.0,0.0,0.0,0.0,0.0,0.0,0.0,0.0,0.0,0.0,0.0,0.0,0.0,0.0,0.0,0.0,0.0,0.0,0.0,1.5847,1.6298,1.6681,1.7121,0.0,0.0,1.8402,1.882,1.9192,1.9553,1.994,0.0,0.0,0.0,0.0,0.0,0.0,0.0,0.0,0.0,0.0,0.0,0.0,0.0,0.0,0.0,0.0,0.0,0.0,0.0,0.0,0.0,0.0,0.0,0.0,0.0,0.0,0.0,0.0,0.0,0.0,0.0,0.0,0.0,0.0,0.0,0.0,0.0,0.0,0.0,0.0,0.0,0.0,0.0,0.0,0.0,0.0,0.0,0.0,0.0,0.0,0.0,0.0,0.0,-0.0541,-0.0247,0.0112,0.0494,0.0892,0.1161,0.1519,0.1986,0.232,0.2751,0.0,0.0,0.0,0.0,0.0,0.0,0.0,0.0,0.0,0.0,0.0,0.0,0.0,0.0,0.0,0.0,0.0,0.0,0.0,0.0,0.0,0.0,0.0,0.0,0.0,0.0,0.0,0.0,0.7544,0.7973,0.855,0.0,0.0,0.0,0.0,0.0,0.0,0.0,0.0,0.0,0.0,1.6087,1.6607,1.7089,0.0,0.0,1.8588,1.901,1.9416,1.9788,2.0142,2.0477,2.1118,0.0,0.0,0.0,0.0,0.0,0.0,0.0,0.0,0.0,0.0,0.0,0.0,0.0,0.0,0.0,0.0,0.0,0.0,0.0,0.0,0.0,0.0,0.0,0.0,0.0,0.0,0.0,0.0,0.0,0.0,0.0,0.0,0.0,0.0,0.0,0.0,0.0,0.0,0.0,0.0,0.0,0.0,0.0,0.0,0.0,0.0,0.0,0.0,0.0,0.0,0.0,0.0,-0.0572,-0.028,0.0047,0.0437,0.0825,0.1116,0.1496,0.1964,0.2294,0.2724,0.0,0.0,0.0,0.0,0.0,0.0,0.0,0.0,0.0,0.0,0.0,0.0,0.0,0.0,0.0,0.0,0.0,0.0,0.0,0.0,0.0,0.0,0.0,0.0,0.0,0.0,0.0,0.0,0.7923,0.8589,0.945,0.0,0.0,0.0,0.0,0.0,0.0,0.0,0.0,0.0,0.0,1.6854,1.7356,1.79,1.8452,1.9061,1.9594,2.0057,2.0458,2.0866,2.1205,2.1452,0.0,0.0,0.0,0.0,0.0,0.0,0.0,0.0,0.0,0.0,0.0,0.0,0.0,0.0,0.0,0.0,0.0,0.0,0.0,0.0,0.0,0.0,0.0,0.0,0.0,0.0,0.0,0.0,0.0,0.0,0.4212,0.0,0.0,0.0,0.0,0.0,0.0,0.0,0.0,0.0,0.0,0.0,0.0,0.0,0.0,0.0,0.0,0.0,0.0,0.0,0.0,0.0,0.0,0.0,-0.0506,-0.0101,0.0292,0.0696,0.1027,0.1438,0.1905,0.2228,0.2681,0.3296,0.0,0.0,0.0,0.0,0.0,0.0,0.0,0.0,0.0,0.0,0.0,0.0,0.0,0.0,0.0,0.0,0.0,0.0,0.0,0.0,0.0,0.0,0.0,0.0,0.0,0.0,0.8208,0.8652,0.9205,0.0,0.0,0.0,0.0,0.0,0.0,0.0,0.0,0.0,0.0,1.7461,1.833,1.876,1.9353,1.9963,2.0716,2.121,2.174,2.2307,2.2686,2.3042,0.0,0.0,0.0,0.0,0.0,0.0,0.0,0.0,0.0,0.0,0.0,0.0,0.0,0.0,0.0,0.0,0.0,0.0,0.0,0.0,0.0,0.0,0.0,0.0,0.0,0.0,0.0,1.2855,1.2006,0.0,0.0,0.0,0.0,0.0,0.0,0.0,0.0,0.0,0.0,0.0,0.2994,0.0427,0.0,0.0,0.0,0.0,0.0,0.0,0.0,0.0,0.0,0.0,0.0,0.0,-0.0886,-0.0569,-0.027,0.0134,0.0626,0.0965,0.1407,0.2031,0.2278,0.28,0.3612,0.0,0.0,0.0,0.0,0.0,0.0,0.0,0.0,0.0,0.0,0.0,0.0,0.0,0.0,0.0,0.0,0.0,0.0,0.0,0.0,0.0,0.0,0.0,0.0,0.0,0.7738,0.0,0.0,0.0,0.0,0.0,0.0,0.0,0.0,0.0,0.0,0.0,1.676,1.7115,1.7799,1.8475,1.9006,1.9702,2.0364,0.0,0.0,0.0,0.0,0.0,0.0,0.0,0.0,0.0,0.0,0.0,0.0,0.0,0.0,2.3345,2.3419,2.3419,2.3401,2.3345,0.0,0.0,0.0,0.0,0.0,0.0,0.0,0.0,0.0,0.0,0.0,0.0,0.0,0.0,1.456,0.0,1.1346,0.0,0.0,0.0,0.0,0.0,0.0,0.0,0.0,0.6959,0.6965,0.6965,0.4473,0.3403,0.0,-0.03,-0.1841,0.0,0.0,0.0,0.0,0.0,0.0,0.0,0.0,-0.1126,-0.0782,-0.0492,-0.0086,0.0391,0.0754,0.1258,0.1983,0.2576,0.3293,0.4133,0.4928,0.561,0.0,0.0,0.0,0.0,0.0,0.0,0.0,0.0,0.0,0.0,0.0,0.0,0.0,0.0,0.0,0.0,0.0,0.0,0.0,0.0,0.0,0.0,0.0,0.8253,0.0,0.0,0.0,0.0,0.0,0.0,0.0,0.0,0.0,1.5736,1.6452,1.7073,1.7529,1.8042,1.8616,1.9207,0.0,0.0,0.0,0.0,0.0,0.0,0.0,2.3313,2.3517,2.3696,2.3828,2.3894,2.3955,2.3978,2.3978,0.0,0.0,2.4096,2.4133,2.4074,2.4036,2.3996,2.4014,2.4094,2.4228,2.4375,0.0,0.0,0.0,0.0,0.0,0.0,0.0,0.0,1.7281,1.7213,0.0,1.3994,0.0,0.0,0.0,0.0,0.0,0.0,0.0,0.0,0.7281,0.71,0.731,0.7338,0.7406,0.7336,0.3662,0.1785,0.1585,-0.1389,0.0,0.0,0.0,0.0,0.0,0.0,-0.138,-0.1119,-0.0804,-0.0419,-0.0028,0.0394,0.0983,0.1819,0.3095,0.4086,0.4748,0.5364,0.6072,0.6846,0.7029,0.0,0.0,0.0,0.0,0.0,0.0,0.0,0.0,0.0,0.0,0.0,0.0,0.0,0.0,0.0,0.0,0.0,0.0,0.0,0.0,0.8517,0.0,0.0,0.0,0.0,0.0,0.0,0.0,0.0,0.0,0.0,1.6053,1.6685,1.7173,1.7625,0.0,0.0,0.0,0.0,2.063,2.1293,2.1777,2.2281,2.2721,2.307,2.3336,2.3471,0.0,0.0,2.3876,2.3937,2.3996,2.3978,2.3978,2.3978,2.3996,2.3937,2.3917,2.3896,2.3917,2.3917,2.3998,2.4228,2.4447,2.0524,0.0,0.0,0.0,0.0,1.8526,1.8259,1.8189,1.7554,1.7307,1.7236,1.6362,0.0,0.0,0.0,0.0,0.0,0.0,1.501,1.5541,1.5584,1.564,1.5607,1.2928,1.1717,1.1677,0.7931,0.4627,0.1841,0.103,-0.0751,-0.3365,0.0,0.0,0.0,0.0,-0.1873,-0.1528,-0.1173,-0.0748,-0.0288,0.0192,0.0969,0.2059,0.3138,0.4007,0.4579,0.5575,0.6349,0.6801,0.7261,0.0,0.0,0.0,0.0,0.0,0.0,0.0,0.0,0.0,0.0,0.0,0.0,0.0,0.0,0.0,0.0,0.0,0.0,0.0,0.7656,0.8504,0.9156,0.0,0.0,0.0,0.0,0.0,0.0,0.0,0.0,0.0,1.5688,1.6411,1.7047,0.0,0.0,1.8808,1.9369,2.0035,2.0663,2.123,0.0,0.0,0.0,2.297,2.3241,2.3471,2.3611,2.3743,2.3765,2.3807,2.385,2.385,2.3873,2.3876,2.3917,2.3917,2.3896,2.3837,2.3858,2.3937,2.4036,2.4247,2.4464,2.2149,2.0956,2.0986,2.0956,2.0845,2.0323,2.0092,2.0044,1.9493,1.9269,1.9233,1.922,1.9138,1.9026,1.8919,0.0,0.0,0.0,1.9559,2.0011,2.008,1.9984,1.9616,1.7467,1.6271,1.5849,1.2027,0.89,0.6486,0.5017,0.2267,-0.1608,0.0,0.0,-0.2808,-0.2549,-0.2211,-0.1871,-0.153,-0.1149,-0.0645,0.0316,0.1258,0.2261,0.3387,0.4303,0.505,0.6217,0.6962,0.7192,0.7693,0.788,0.0,0.0,0.0,0.0,0.0,0.0,0.0,0.0,0.0,0.0,0.0,0.6229,0.6299,0.0,0.0,0.0,0.716,0.7485,0.7906,0.8558,0.0,0.0,0.0,0.0,0.0,0.0,0.0,1.2955,1.3854,1.4674,1.5322,1.6051,1.6824,1.7585,1.8187,1.8769,1.9406,0.0,2.0597,2.1214,2.1705,2.2169,2.2552,2.2816,2.3052,2.3336,2.3499,2.3611,2.3611,2.37,2.3804,2.3804,2.3831,2.3837,2.3896,2.3955,2.3976,2.3896,2.3917,2.3978,2.4152,2.4321,2.4493,2.3334,2.2615,2.2672,2.2577,2.2407,2.2407,2.2369,2.2303,2.2284,2.2281,2.2191,2.2129,2.207,2.1959,2.1783,0.0,2.1516,2.1459,2.1385,2.1439,2.1479,2.1206,2.0618,2.0773,2.0536,1.9804,1.6028,1.404,1.3524,0.999,0.6037,0.1924,-0.1101,-0.2759,-0.3069,-0.2878,-0.2559,-0.217,-0.1963,-0.1569,-0.0982,0.0524,0.1675,0.2393,0.3677,0.4871,0.5889,0.7032,0.7749,0.7866,0.8207,0.8131,0.7586,0.0,0.0,0.0,0.0,0.0,0.0,0.0,0.0,0.0,0.0,0.0,0.0,0.0,0.0,0.0,0.7762,0.0,0.8379,0.8749,0.0,0.0,0.0,1.0859,1.125,1.2002,1.2618,1.3122,0.0,0.0,1.5006,0.0,1.6459,1.7503,1.8161,1.8731,1.9384,1.9894,2.0447,2.1151,2.157,2.1945,2.2371,2.2659,2.2919,2.3144,2.3336,2.3453,2.3476,2.3652,2.3783,2.3786,2.3852,2.3917,2.3935,2.4016,2.4075,2.4036,2.4036,2.4095,2.4284,2.4442,2.4613,2.4459,2.4331,2.4377,2.3651,2.2464,2.2439,2.2395,2.2382,2.2369,2.2335,2.2267,2.221,2.2039,2.1849,2.1801,2.1697,2.1589,2.1571,2.1552,2.1571,2.1625,2.1587,2.1506,2.1634,2.1682,2.1508,2.0052,1.7693,1.4662,1.3049,1.0224,0.6328,0.5428,0.2065,-0.3602,-0.3441,-0.3052,-0.273,-0.2317,-0.1726,-0.0943,0.0193,0.1341,0.2522,0.368,0.4866,0.6012,0.7024,0.7764,0.823,0.8253,0.8163,0.7985,0.7491,0.0,0.0,0.0,0.0,0.0,0.0,0.0,0.0,0.0,0.741,0.7448,0.0,0.7858,0.0,0.8135,0.8386,0.8631,0.9118,0.0,0.0,1.0376,1.0939,1.1288,1.1823,1.2372,1.2764,1.3392,1.414,1.4869,1.5478,1.6213,1.7186,1.8002,1.8693,1.9207,1.9788,2.0379,2.0926,2.1417,2.1827,2.2158,2.2571,2.2919,2.302,2.3168,2.3289,2.3336,2.3517,2.3652,2.3721,2.3831,2.3935,2.4016,2.4113,2.4209,2.4266,2.4266,2.4284,2.4426,2.4636,2.4866,2.487,2.4898,2.4964,2.446,2.3619,2.3581,2.3536,2.3504,2.3523,2.3483,2.3394,2.3337,2.3185,2.2989,2.2957,2.2868,2.2758,2.2684,2.2665,2.2665,2.2758,2.2666,2.2404,2.2516,2.2469,2.2234,2.1884,2.0543,1.8346,1.7841,1.5544,1.1604,1.1589,0.8514,0.2464,0.0229,-0.157,-0.3019,-0.2366,-0.171,-0.1043,-0.0,0.1168,0.2494,0.3715,0.4927,0.6199,0.7251,0.8027,0.8496,0.8614,0.8545,0.8314,0.7927,0.7682,0.0,0.0,0.0,0.0,0.0,0.0,0.0,0.0,0.0,0.0,0.0,0.8696,0.8653,0.8699,0.8822,0.9066,0.9448,0.9813,1.0111,1.0604,1.1023,1.1377,1.1828,1.2274,1.2725,1.3392,1.4035,1.4709,1.5389,1.6095,1.6879,1.7666,1.8422,1.9058,1.9639,2.0189,2.0778,2.1246,2.1678,2.2101,2.2535,2.2842,2.285,2.302,2.3144,2.3217,2.336,2.3522,2.3607,2.3747,2.3896,2.3996,2.4133,2.4247,2.4358,2.4458,2.4551,2.4678,2.4784,2.4928,2.4912,2.4931,2.501,2.5018,2.5012,2.5037,2.4991,2.4931,2.4931,2.4884,2.4827,2.4738,2.4629,2.4517,2.4393,2.4284,2.4209,2.4113,2.4018,2.4036,2.417,2.3897,2.3286,2.3417,2.3169,2.2623,2.2634,2.2671,2.2669,2.2574,2.0662,1.724,1.7253,1.5222,1.1084,0.6466,0.2034,-0.2162,-0.1995,-0.1657,-0.1253,-0.0129,0.1055,0.2364,0.3652,0.4964,0.6302,0.7481,0.8279,0.8697,0.8975,0.8976,0.8651,0.8377,0.8184,0.0,0.8086,0.0,0.0,0.0,0.0,0.0,0.0,0.0,0.0,0.9498,0.9584,0.957,0.9338,0.9297,0.9634,0.9764,1.0029,1.0474,1.0828,1.1124,1.1528,1.1918,1.2363,1.2929,1.3488,1.4129,1.4744,1.5389,1.6064,1.6667,1.738,1.8108,1.8898,1.942,1.996,2.0662,2.1103,2.1603,2.2106,2.247,2.2632,2.2685,2.2825,2.2977,2.3045,2.3217,2.3401,2.3476,2.3638,2.3774,2.3837,2.3999,2.4118,2.4076,2.4312,2.4624,2.4771,2.4836,2.4899,2.5012,2.5057,2.5076,2.5089,2.5089,2.5095,2.5063,2.5076,2.5057,2.5004,2.487,2.4753,2.466,2.4582,2.4498,2.4411,2.4358,2.4284,2.4247,2.4266,2.4284,2.4284,2.4242,2.4307,2.4342,2.4289,2.3744,2.3531,2.3633,2.2939,2.2186,2.1419,2.1444,1.9399,1.5496,0.0,0.0,0.0,-0.0506,-0.2014,-0.1658,-0.0444,0.0882,0.2199,0.338,0.0,0.6115,0.7099,0.7949,0.8648,0.8767,0.0,0.0,0.0,0.0,0.0,0.0,0.0,0.0,0.0,0.0,0.0,0.9657,0.9714,0.9453,0.9444,0.9517,0.9803,0.9682,0.9684,0.9929,1.0222,1.045,1.0659,1.1124,1.1477,1.1769,1.2344,1.2832,1.3276,1.3858,1.4501,1.5085,1.5668,1.6194,1.6824,1.7366,1.7988,1.876,1.9347,1.9889,2.041,2.1071,2.1648,2.1998,2.2248,2.2449,2.2515,2.2659,2.279,2.2868,2.302,2.3193,2.3313,2.3458,2.3558,2.362,2.3735,2.3561,2.2994,2.3461,2.4099,2.4509,2.4705,2.4743,2.5094,0.0,2.5094,2.5125,0.0,2.5153,2.5153,2.516,2.5113,2.5057,2.495,2.4894,2.4772,2.4645,2.458,2.4497,2.4447,2.4375,2.4358,2.4358,2.4375,2.4464,2.4547,2.466,2.4768,2.4884,2.4575,2.4491,2.4519,2.4113,2.3905,2.3934,2.3905,2.2861,2.083,1.8556,1.4193,0.7754,0.3399,0.0292,-0.1506,-0.0501,0.0705,0.1978,0.0,0.0,0.0,0.0,0.0,0.0,0.0,0.0,0.0,0.0,0.0,0.8839,0.8778,0.888,0.9194,0.9261,0.9375,0.9481,0.9754,0.9906,0.9946,0.9922,1.0099,1.0367,1.0292,1.0314,1.0541,1.0718,1.0922,1.1167,1.1528,1.1828,1.2215,1.2686,1.315,1.3647,1.4258,1.4869,1.5355,1.5944,1.6466,1.7005,1.7544,1.8068,1.8707,1.9199,1.9782,2.0545,2.1183,2.1664,2.1869,2.2135,2.231,2.2405,2.2515,2.2623,2.2685,2.2799,2.2927,2.3028,2.3151,2.3093,2.2592,2.2661,2.2656,2.2129,2.2575,2.3283,2.366,2.4025,2.4268,2.5313,2.5138,2.5138,2.5168,2.5228,2.5241,2.5233,2.5203,0.0,0.0,0.0,2.4991,2.4889,2.4723,2.4639,2.4596,2.4534,2.4446,2.4447,2.4447,2.4518,2.4582,2.4642,2.4783,2.4903,2.5018,2.5144,2.5203,2.5225,2.5231,2.5262,2.5302,2.5262,2.5262,2.5041,2.1376,1.7552,1.3775,0.8634,0.3491,-0.1307,0.0223,0.1346,0.1725,0.2583,0.3612,0.4741,0.5629,0.6464,0.7247,0.7681,0.8062,0.8372,0.8594,0.8735,0.8857,0.9067,0.9169,0.9311,0.9191,0.9249,0.9503,0.9681,0.9947,1.0462,1.0522,1.0624,1.0871,1.082,1.0871,1.1082,1.1234,1.1472,1.1826,1.2141,1.2469,1.288,1.33,1.3762,1.4129,1.472,1.5266,1.5724,1.6293,1.6765,1.7269,1.776,1.8291,1.8884,1.9347,1.9925,2.0697,2.1246,2.1603,2.1768,2.2032,2.2237,2.2299,2.2405,2.2515,2.2552,2.2605,2.2659,2.2721,2.266,2.2173,2.1521,2.1557,2.1542,2.1086,2.1764,2.2482,2.263,2.3141,2.3575,2.5967,2.5252,2.5253,2.5292,2.5301,2.5361,2.5322,2.5274,2.5206,2.5156,2.5088,2.5018,2.4936,2.4779,2.4723,2.4679,2.4666,2.4599,2.4582,0.0,2.4634,2.4714,2.4772,2.4842,2.4953,2.5088,2.5172,2.522,2.5283,2.5341,2.538,2.5389,2.538,2.5361,2.5341,2.4686,2.4079,2.3337,1.4962,0.6529,-0.1508,0.3088,0.4248,0.1589,0.2142,0.3126,0.4185,0.4996,0.5763,0.6471,0.7189,0.7716,0.7962,0.8222,0.8558,0.8992,0.9002,0.9062,0.9372,0.9252,0.9221,0.9256,0.9465,0.988,1.0411,1.0522,1.0624,1.0871,1.0981,1.1065,1.1141,1.1731,1.227,1.2608,1.3356,1.3903,1.4052,1.4475,1.481,1.4959,1.54,1.5832,1.6337,1.6765,1.7269,1.7679,1.8187,1.8717,1.9464,1.996,2.0323,2.0728,2.1119,2.1402,2.1678,2.1899,2.2106,2.2197,2.2338,2.2405,2.2432,2.2449,2.2422,2.2415,2.1733,2.1199,2.1163,2.0876,2.0553,2.0282,2.1095,2.182,2.1678,2.2298,2.2915,2.6462,2.6023,2.5599,2.5378,2.536,2.5388,2.5406,2.5397,2.5283,2.5217,2.5137,2.5082,2.5023,2.4884,2.4827,2.4768,2.4695,2.4695,2.4695,2.466,2.4729,2.4806,2.4908,2.494,2.5025,2.5141,2.522,2.5274,2.537,2.5434,2.5451,2.5468,2.5468,2.544,2.5451,2.5459,2.5472,2.5348,1.8837,1.2295,0.604,0.6258,0.4666,0.0879,0.1658,0.2456,0.321,0.3949,0.4636,0.522,0.5858,0.6395,0.6882,0.7352,0.7895,0.8393,0.865,0.8896,0.9152,0.9106,0.9106,0.9106,0.9211,0.9544,1.0249,1.0366,1.0601,1.1091,1.1325,1.1609,1.2132,1.2671,1.3143,1.3576,1.4278,1.4831,1.5145,1.5372,1.5631,1.5857,1.607,1.6324,1.6808,1.7269,1.772,1.8147,1.8731,1.9369,1.9929,2.0342,2.0662,2.0925,2.1183,2.1464,2.1708,2.1899,2.2044,2.2152,2.2282,2.2321,2.2338,2.231,2.2038,2.1512,2.0922,2.0328,1.9794,1.9663,1.9624,1.9657,2.0477,2.1183,2.1649,2.232,2.2876,2.711,2.6657,2.6057,2.5654,2.5426,2.5421,2.5448,2.5484,2.5379,2.5292,2.5214,2.5132,2.5076,2.4991,2.4931,2.4827,2.4738,2.4772,2.4787,2.4753,2.4817,2.4889,2.5018,2.5025,2.5206,2.548,2.5572,2.5745,2.5972,2.6052,2.5987,2.5827,2.5808,2.5696,2.5507,2.5503,2.5511,2.5312,2.2061,1.8158,1.3897,0.9996,0.5983,0.2164,0.1691,0.1909,0.232,0.3036,0.3595,0.4046,0.4611,0.5262,0.5867,0.6534,0.7155,0.7698,0.8136,0.8521,0.8798,0.885,0.885,0.885,0.891,0.9238,0.9923,1.0151,1.0619,1.1358,1.1747,1.2234,1.2932,1.3515,1.3997,1.46,1.5172,1.5732,1.6162,1.6227,1.635,1.6699,1.6685,1.682,1.7269,1.7707,1.8147,1.8769,1.9369,1.9925,2.0292,2.0679,2.099,2.1183,2.1371,2.1556,2.1797,2.2003,2.2118,2.2225,2.2282,2.2338,2.231,2.2254,2.1709,2.0807,2.0315,1.9699,1.8417,1.8533,1.9119,1.9443,2.0431,2.1374,2.2169,2.2738,2.3126,2.8273,2.6902,2.6734,2.6204,2.5543,2.5495,2.5499,2.5503,2.5416,2.5361,2.5271,2.516,2.5051,2.501,2.4931,2.4856,2.4794,2.4813,2.4827,2.4908,2.495,2.5018,2.5196,2.5191,2.5633,2.64,2.6525,2.6936,2.758,2.7721,2.742,2.676,2.6683,2.6307,2.5608,2.5525,2.555,2.5599,2.5171,2.2844,1.8485,1.4645,1.0623,0.6398,0.3,0.1505,0.1876,0.2491,0.2927,0.3254,0.4075,0.4736,0.5217,0.599,0.6656,0.7149,0.7551,0.7937,0.8221,0.8374,0.8474,0.848,0.8692,0.9092,0.9707,0.998,1.0576,1.1479,1.2172,1.2648,1.3095,1.3951,1.4707,1.5379,1.6174,1.694,1.7179,1.7193,1.7171,1.7252,1.7191,1.7282,1.772,1.8187,1.8731,1.9406,1.9859,2.0292,2.0679,2.1007,2.1324,2.1556,2.1648,2.1738,2.1915,2.2106,2.2265,2.2349,2.2377,2.2394,2.2349,2.2135,2.1628,2.0279,1.9708,1.909,1.8554,1.8491,1.8871,1.9971,2.0895,2.1832,2.266,2.3151,2.3336,2.9059,2.8351,2.7846,2.7128,2.6321,2.5749,2.5522,2.5503,2.5432,2.5379,2.5351,2.5198,2.5132,2.5063,2.4985,2.4926,2.487,2.4903,2.5196,2.5646,2.5734,2.6079,2.6606,2.6715,2.6995,2.7393,2.7458,2.7655,2.7993,2.8133,2.7958,2.7615,2.7614,2.7193,2.6398,2.6332,2.6115,2.5683,2.5664,2.4754,2.2464,1.6617,1.1224,0.6919,0.3133,0.1234,0.1401,0.1792,0.2181,0.2456,0.3074,0.3688,0.4288,0.4995,0.5651,0.6322,0.7074,0.7563,0.7783,0.8109,0.8275,0.8268,0.8527,0.8991,0.9615,1.0059,1.0716,1.1752,1.2406,1.2989,1.3669,1.4534,1.5375,1.6073,1.6837,1.7533,1.8172,1.7905,1.777,1.8066,1.7791,1.7707,1.8187,1.8717,1.9317,1.9909,2.0258,2.0581,2.1007,2.134,2.1601,2.184,2.2003,2.2106,2.2135,2.2265,2.2377,2.2449,2.2449,2.2394,2.2338,2.2135,2.1423,1.9718,1.9378,1.8835,1.7945,1.8616,1.9273,2.0487,2.1665,2.259,2.3126,2.3383,2.3522,2.9718,2.9377,2.8554,2.7832,2.72,2.6507,2.6202,2.619,2.6141,2.6109,2.6073,2.5983,2.5884,2.578,2.5494,2.5327,2.5324,2.556,2.5991,2.6555,2.6656,2.7052,2.7711,2.78,2.8,2.8298,2.8371,2.8536,2.8773,2.8845,2.8754,2.8553,2.8538,2.8115,2.7346,2.7245,2.6851,2.6143,2.6038,2.6042,2.4918,1.7748,1.1814,0.849,0.3661,0.1122,0.1122,0.1346,0.157,0.1793,0.2298,0.2854,0.3516,0.4177,0.4948,0.5828,0.6642,0.7241,0.7359,0.7741,0.7955,0.8014,0.8325,0.8851,0.9508,1.0096,1.0856,1.1859,1.251,1.3195,1.4118,1.4942,1.5758,1.657,1.719,1.7963,1.8715,1.84,1.8295,1.8761,1.8294,1.8147,1.8693,1.9273,1.9782,2.0189,2.053,2.0861,2.1293,2.1617,2.184,2.2056,2.2332,2.2432,2.2405,2.2432,2.2515,2.2542,2.2515,2.2405,2.2293,2.2089,2.1443,2.0016,1.9648,1.9214,1.8533,1.8983,1.997,2.1176,2.2324,2.3133,2.343,2.3589,2.3703,3.0261,2.9441,2.8568,2.8196,2.8126,2.7958,2.7944,2.7801,2.7826,2.7806,2.7682,2.7661,2.7681,2.7433,2.6669,2.6246,2.6341,2.6949,2.7343,2.7537,2.7618,2.7687,2.78,2.7874,2.8386,2.9233,2.9408,2.9802,3.0497,3.0555,3.0178,2.9471,2.9449,2.9007,2.8262,2.8145,2.7757,2.7033,2.6939,2.6951,2.5857,1.8164,1.3389,1.2273,0.5348,0.1122,0.1122,0.1122,0.1179,0.1347,0.1909,0.2467,0.2968,0.3799,0.4794,0.5837,0.6431,0.6815,0.7085,0.7252,0.7424,0.7614,0.8068,0.8614,0.9324,0.9986,1.0802,1.1764,1.2397,1.3191,1.4052,1.4883,1.5758,1.6694,1.7412,1.8224,1.9069,1.882,1.8779,1.8998,1.8686,1.8648,1.925,1.9705,2.008,2.046,2.0827,2.1199,2.1542,2.1827,2.2089,2.2332,2.2525,2.2659,2.2605,2.2605,2.2685,2.2685,2.2579,2.246,2.2304,2.2,2.1093,2.0327,1.9883,1.9511,1.9215,1.9706,2.0816,2.1888,2.278,2.344,2.3638,2.3792,2.3896,3.062,3.0267,2.9387,2.901,2.8909,2.8346,2.8099,2.8119,2.802,2.7978,2.7951,2.7913,2.7879,2.7827,2.7988,2.77,2.7203,2.7442,2.787,2.8382,2.8492,2.8867,2.9451,2.9524,2.9728,3.0139,3.0723,3.1181,3.1474,3.154,3.1106,3.0399,3.0311,2.9893,2.9192,2.9031,2.8645,2.7925,2.7821,2.785,2.7086,1.9016,1.4383,1.3917,0.5764,0.1122,0.1122,0.101,0.1076,0.1389,0.1792,0.2274,0.2962,0.3903,0.4724,0.536,0.5946,0.6332,0.6549,0.6928,0.7269,0.7417,0.7896,0.8552,0.926,0.9879,1.0601,1.1534,1.2375,1.3164,1.395,1.4765,1.57,1.6684,1.7468,1.8278,1.9064,1.9282,1.935,1.9449,1.9193,1.9168,1.9508,1.9884,2.022,2.0628,2.099,2.1371,2.1738,2.2032,2.2276,2.2525,2.2685,2.279,2.2868,2.2773,2.2747,2.2738,2.2632,2.2515,2.2332,2.2118,2.137,2.0563,2.0083,1.9926,1.9758,2.0815,2.1841,2.2574,2.345,2.3689,2.3873,2.3998,2.4057,3.0797,3.0707,3.0161,2.9877,2.9751,2.9188,2.8934,2.8946,2.888,2.8827,2.8829,2.8762,2.8741,2.8816,2.9236,2.9136,2.853,2.8471,2.8763,2.9339,2.9704,3.0201,3.0783,3.1167,3.1371,3.1513,3.2039,3.2392,3.2361,3.2143,3.1689,3.1138,3.0939,3.0507,2.9995,2.992,2.9514,2.8845,2.8701,2.873,2.7684,2.0668,1.6564,1.5332,0.675,0.1159,0.1159,0.0985,0.111,0.1431,0.1734,0.2349,0.3243,0.4118,0.4815,0.5222,0.5652,0.6059,0.6296,0.6778,0.7162,0.7327,0.7896,0.8551,0.9278,0.9826,1.0602,1.1502,1.2243,1.3042,1.3881,1.4647,1.5584,1.6627,1.7523,1.8387,1.9319,1.9504,1.9482,1.946,1.9352,1.9472,1.9777,2.008,2.041,2.086,2.1183,2.1556,2.1869,2.2147,2.2432,2.2703,2.279,2.2893,2.2944,2.2919,2.2842,2.2816,2.2632,2.2515,2.2377,2.2118,2.1729,2.0895,2.0514,2.0385,2.088,2.1936,2.27,2.337,2.3738,2.4018,2.4134,2.4191,2.4248,3.0849,3.0944,3.0808,3.0851,3.0808,3.0741,3.0719,3.0692,3.0632,3.0606,3.0578,3.054,3.0519,3.0527,3.0548,3.0436,3.0374,3.0279,3.0207,3.0303,3.1168,3.1595,3.1758,3.2464,3.2938,3.3081,3.3231,3.3313,3.3254,3.2629,3.2156,3.1857,3.1212,3.0857,3.076,3.063,3.0313,2.9704,2.9581,2.9609,2.8806,2.2939,1.9796,1.9367,0.8685,0.1886,0.1233,0.1047,0.1167,0.1481,0.1788,0.2586,0.3689,0.4374,0.4922,0.5457,0.5729,0.6023,0.6365,0.6809,0.7079,0.7391,0.7941,0.8606,0.9254,0.9875,1.0654,1.149,1.2182,1.2911,1.3881,1.4597,1.5468,1.6627,1.7567,1.8483,1.9275,1.9391,1.9209,1.9237,1.9336,1.9574,1.9919,2.027,2.0595,2.099,2.1388,2.1708,2.1998,2.226,2.2497,2.2738,2.2868,2.2944,2.2995,2.2995,2.2944,2.2868,2.2659,2.2515,2.2432,2.2231,2.2084,2.1455,2.1432,2.1355,2.1731,2.2723,2.3295,2.3868,2.4136,2.4284,2.4338,2.4392,2.4391,3.2046,3.2553,3.2532,3.2491,3.2474,3.2443,3.2419,3.2421,3.2347,3.2309,3.2319,3.2299,3.2278,3.2268,3.2224,3.2181,3.2177,3.2127,3.1802,3.1424,3.2116,3.2543,3.2659,3.2967,3.346,3.3988,3.412,3.4128,3.4078,3.386,3.3252,3.2162,3.1771,3.1334,3.0823,3.0786,3.0629,3.0443,3.0456,3.0504,3.0033,2.5088,2.1919,2.0122,1.2454,0.594,0.1104,0.0885,0.1124,0.1397,0.1845,0.273,0.3969,0.4738,0.521,0.555,0.5896,0.6193,0.6538,0.6899,0.7317,0.7686,0.8142,0.8725,0.9373,0.992,1.0681,1.1498,1.2243,1.3042,1.389,1.4765,1.5642,1.6705,1.7556,1.8471,1.9352,1.9603,1.9855,2.0126,1.9836,1.9722,1.997,2.0304,2.0695,2.1103,2.1495,2.184,2.2203,2.2453,2.2685,2.2893,2.297,2.302,2.307,2.307,2.302,2.2944,2.2764,2.2605,2.2525,2.2463,2.2292,2.2291,2.2288,2.2465,2.2869,2.3353,2.3953,2.4227,2.4424,2.451,2.4545,2.4543,2.4575,3.2902,3.3367,3.3332,3.3284,3.325,3.3222,3.3197,3.317,3.3122,3.3113,3.3103,3.3102,3.3111,3.31,3.3059,3.3037,3.3084,3.3334,3.3176,3.2723,3.3133,3.3458,3.3561,3.3906,3.435,3.4866,3.4972,3.4991,3.4952,3.4676,3.3886,3.2675,3.2188,3.1596,3.0872,3.0798,3.079,3.0824,3.0819,3.0849,3.0271,2.7814,2.4418,2.0017,1.1608,0.4983,0.0727,0.0716,0.0965,0.1435,0.2158,0.3268,0.4487,0.5137,0.5624,0.6045,0.6356,0.6635,0.6987,0.7433,0.7806,0.8102,0.8419,0.8908,0.9558,1.0047,1.0681,1.1498,1.2305,1.3111,1.395,1.4834,1.5758,1.6694,1.7611,1.8549,1.9459,1.986,2.0074,2.0223,1.9941,1.9861,2.0115,2.046,2.0827,2.1261,2.1675,2.2015,2.2371,2.2615,2.2842,2.3012,2.307,2.3119,2.3168,2.3144,2.3119,2.302,2.2893,2.279,2.2712,2.2721,2.2652,2.2955,2.305,2.3315,2.3689,2.4099,2.461,2.4685,2.4697,2.4731,2.4764,2.4734,2.4749,3.3498,3.3524,3.3487,3.3518,3.348,3.3497,3.3519,3.3335,3.3363,3.343,3.3372,3.3488,3.3411,3.3334,3.3506,3.3525,3.3418,3.4071,3.438,3.4272,3.4372,3.4384,3.4475,3.5078,3.5445,3.5652,3.571,3.5729,3.5621,3.5076,3.4229,3.34,3.2584,3.1701,3.1095,3.0872,3.0789,3.0802,3.0801,3.081,3.0804,3.0652,2.7879,2.1149,0.8988,0.1351,0.0379,0.0462,0.0871,0.1545,0.2741,0.3936,0.4923,0.5467,0.6049,0.6826,0.7062,0.732,0.7719,0.8138,0.8544,0.8635,0.8868,0.928,0.9798,1.0174,1.0744,1.156,1.2359,1.3155,1.3941,1.4883,1.5874,1.6853,1.7886,1.8927,1.9952,2.0112,2.0132,2.0102,1.9922,1.9854,2.0308,2.0679,2.1103,2.1526,2.1882,2.2198,2.2508,2.2764,2.2962,2.3193,2.345,2.3763,2.3964,2.3724,2.3682,2.3612,2.3355,2.306,2.3025,2.3093,2.3336,2.3613,2.3847,2.4145,2.4423,2.4783,2.4953,2.4962,2.4987,2.4993,2.4953,2.4926,2.4917,3.4713,3.5227,3.5178,3.5142,3.5105,3.5059,3.4971,3.4947,3.4897,3.4839,3.4917,3.4936,3.487,3.4988,3.4958,3.5016,3.4997,3.5179,3.5314,3.5314,3.5345,3.5338,3.534,3.5563,3.5736,3.5799,3.5799,3.5799,3.5788,3.5535,3.501,3.4248,3.3361,3.25,3.176,3.109,3.0808,3.0799,3.0789,3.0802,3.0798,3.0821,3.0056,2.7198,1.4167,0.4685,0.0222,0.038,0.1276,0.2149,0.3218,0.4287,0.5279,0.5928,0.6598,0.726,0.7654,0.8007,0.8393,0.879,0.9092,0.9271,0.9412,0.9734,1.0117,1.0491,1.0989,1.174,1.2474,1.3268,1.4001,1.5059,1.6379,1.7897,1.8667,1.9478,2.0342,2.0316,2.0131,2.0575,2.0138,2.0031,2.0376,2.0811,2.1261,2.1691,2.2073,2.2419,2.2694,2.3058,2.3348,2.3922,2.4261,2.4622,2.4729,2.446,2.4306,2.429,2.3952,2.3427,2.3464,2.3584,2.4002,2.4438,2.4549,2.4804,2.5009,2.5277,2.529,2.5201,2.5141,2.5094,2.5076,2.5051,2.5044,3.5812,3.5872,3.618,3.6084,3.5737,3.5669,3.5635,3.5608,3.5628,3.5628,3.5628,3.5608,3.5639,3.5651,3.5643,3.5643,3.5673,3.5684,3.5684,3.5684,3.5665,3.5667,3.5679,3.5699,3.5727,3.5791,3.5791,3.5799,3.5807,3.5791,3.5324,3.4614,3.4062,3.3177,3.1967,3.1547,3.1074,3.0814,3.0722,3.0728,3.0759,3.0764,2.9074,2.6362,1.6726,0.7878,0.0736,0.0386,0.1545,0.2484,0.3485,0.4483,0.5613,0.6448,0.7154,0.7911,0.8348,0.878,0.9134,0.9369,0.9556,0.9679,0.9856,1.0047,1.0371,1.0744,1.1178,1.1864,1.2658,1.3381,1.4282,1.5517,1.6944,1.8278,1.904,1.9811,2.0795,2.0292,2.0269,2.0522,2.033,1.9965,2.0395,2.0942,2.1417,2.1869,2.2243,2.2571,2.2868,2.3315,2.3876,2.4463,2.4999,2.5326,2.5536,2.5354,2.4866,2.4828,2.4541,2.4003,2.3908,2.4063,2.4463,2.4868,2.5143,2.5364,2.5439,2.5498,2.5439,2.5339,2.5283,2.5217,2.5195,2.5156,2.5151,3.6819,3.6106,3.6735,3.6503,3.582,3.5635,3.5581,3.5591,3.5579,3.5579,3.5566,3.5579,3.556,3.5572,3.5577,3.5601,3.5601,3.5662,3.5684,3.5684,3.5704,3.5706,3.5697,3.5708,3.5747,3.5801,3.5791,3.5799,3.5799,3.5793,3.5406,3.4844,3.4565,3.3692,3.2576,3.2044,3.1479,3.0971,3.0673,3.0614,3.0649,3.0552,2.8967,2.5042,1.8084,0.9911,0.3128,0.0926,0.1344,0.2484,0.3482,0.4616,0.5877,0.6736,0.7712,0.8549,0.9023,0.9476,0.9843,1.0009,1.0091,1.0174,1.0174,1.0301,1.0681,1.1066,1.1435,1.2182,1.2911,1.3743,1.4756,1.6093,1.7335,1.8387,1.9093,1.9811,2.0427,2.0313,2.0198,2.0668,2.0233,2.0208,2.053,2.1023,2.1509,2.1974,2.2462,2.3091,2.3545,2.4075,2.4597,2.5166,2.5651,2.6058,2.6204,2.6278,2.5723,2.5314,2.5038,2.4635,2.4388,2.4523,2.4816,2.5129,2.5321,2.5464,2.5563,2.557,2.5529,2.5464,2.5387,2.5332,2.5312,2.5248,2.5214,3.7946,3.7715,3.7157,3.6814,3.6509,3.5854,3.5534,3.552,3.5474,3.5455,3.5441,3.5441,3.5449,3.5457,3.5496,3.554,3.5584,3.562,3.5643,3.5704,3.5704,3.5704,3.5695,3.5707,3.5747,3.5775,3.5747,3.5756,3.5765,3.5727,3.5641,3.5398,3.4778,3.4245,3.3722,3.2522,3.1777,3.1439,3.0859,3.0511,3.0482,3.052,2.9755,2.7195,1.9528,1.2068,0.6288,0.1957,0.067,0.188,0.3284,0.455,0.5675,0.6868,0.7917,0.8705,0.9356,0.9862,1.0308,1.0491,1.0681,1.0744,1.0807,1.0996,1.131,1.1435,1.1872,1.2552,1.3155,1.4112,1.5468,1.6436,1.7446,1.8387,1.9093,1.9708,2.0393,2.057,2.0612,2.0726,2.0666,2.0521,2.0569,2.1247,2.1702,2.2099,2.2818,2.3604,2.4226,2.4821,2.5392,2.5903,2.6451,2.6877,2.7061,2.7042,2.6577,2.6114,2.5801,2.5335,2.5088,2.4972,2.5286,2.539,2.5459,2.5568,2.5643,2.5637,2.5595,2.5531,2.5483,2.5429,2.5369,2.5322,2.5452,3.8616,3.8252,3.8112,3.7591,3.68,3.626,3.582,3.5441,3.5369,3.5339,3.5304,3.5285,3.5335,3.534,3.5388,3.5463,3.5534,3.5604,3.562,3.5643,3.5662,3.5673,3.5704,3.5706,3.5727,3.5766,3.5728,3.5728,3.5718,3.5679,3.5629,3.5596,3.5129,3.4689,3.4326,3.3306,3.2485,3.1734,3.1218,3.0763,3.0429,3.0375,2.8632,2.6881,2.0904,1.5341,0.8309,0.5199,0.5664,0.6927,0.5446,0.4005,0.5404,0.6728,0.7847,0.8705,0.942,0.9932,1.0371,1.0681,1.0807,1.0989,1.1115,1.131,1.1622,1.1747,1.2243,1.2797,1.3459,1.441,1.5931,1.6842,1.7623,1.8441,1.9146,1.9811,2.0419,2.0643,2.0858,2.1026,2.1171,2.1319,2.1572,2.1905,2.2552,2.3201,2.3721,2.4486,2.4935,2.5526,2.6109,2.6703,2.729,2.7717,2.7939,2.7834,2.7409,2.7075,2.6803,2.6274,2.5816,2.576,2.5746,2.5665,2.5527,2.5595,2.5664,2.5652,2.5636,2.5591,2.5537,2.5478,2.5456,2.5436,2.5707,3.924,3.8581,3.9006,3.8281,3.6974,3.6555,3.5963,3.535,3.528,3.5245,3.5193,3.5193,3.5245,3.5277,3.5304,3.5383,3.5488,3.5586,3.5616,3.5631,3.5631,3.5643,3.5673,3.5684,3.5665,3.5667,3.5688,3.5688,3.5678,3.5626,3.5581,3.5514,3.5477,3.5091,3.4518,3.4064,3.3365,3.2292,3.1589,3.1083,3.0519,3.0322,2.8098,2.5527,2.2511,1.893,1.3201,1.0876,1.1455,1.5818,0.8255,0.5262,0.5656,0.6433,0.7507,0.8571,0.9221,0.9798,1.0301,1.0618,1.0807,1.0863,1.1178,1.1498,1.1809,1.2182,1.2613,1.3216,1.3941,1.4942,1.6104,1.6965,1.7799,1.856,1.9198,1.985,2.0419,2.0697,2.1075,2.1424,2.1674,2.1901,2.2384,2.2801,2.3572,2.4288,2.4808,2.527,2.5712,2.6204,2.6808,2.721,2.7736,2.8108,2.8337,2.8451,2.8044,2.7785,2.7586,2.7185,2.6645,2.6599,2.6438,2.5708,2.5537,2.5684,2.5735,2.5683,2.5648,2.5619,2.5595,2.5543,2.555,2.5569,2.602,4.0378,4.0081,3.8715,3.7943,3.7487,3.6128,3.5433,3.5229,3.5162,3.5127,3.511,3.511,3.5164,3.5198,3.5209,3.5304,3.546,3.5541,3.5604,3.562,3.562,3.5631,3.5631,3.5631,3.5612,3.5608,3.5631,3.5635,3.5635,3.562,3.554,3.5495,3.5468,3.5254,3.4902,3.4385,3.3862,3.3029,3.2074,3.1305,3.0831,3.0184,2.9665,2.7586,2.487,2.2057,2.0455,1.8317,1.7162,1.5583,1.1904,1.0012,0.9269,0.7989,0.7205,0.7772,0.863,0.9402,1.011,1.0555,1.0996,1.1373,1.1622,1.1934,1.2313,1.2683,1.3103,1.3941,1.4883,1.5874,1.6581,1.7312,1.7975,1.8679,1.9303,1.9914,2.0484,2.0957,2.1346,2.1709,2.2058,2.2511,2.3079,2.3599,2.4194,2.4845,2.5414,2.5837,2.6225,2.6812,2.7476,2.7804,2.8094,2.8386,2.8651,2.8766,2.8644,2.8322,2.8147,2.8018,2.7618,2.751,2.7119,2.6442,2.6003,2.6007,2.5974,2.5954,2.6034,2.6273,2.5993,2.5697,2.6046,2.6411,2.666,3.9361,3.9199,3.8277,3.7625,3.7079,3.6272,3.5558,3.5127,3.5019,3.5002,3.5002,3.5002,3.502,3.5092,3.5145,3.5242,3.5379,3.5455,3.5534,3.5584,3.5616,3.5608,3.562,3.5601,3.5608,3.5604,3.5584,3.5546,3.5558,3.5553,3.5495,3.5407,3.5379,3.5354,3.5171,3.4783,3.4182,3.3599,3.2732,3.1789,3.096,3.015,2.9876,2.9003,2.7811,2.642,2.5627,2.2456,2.1971,2.1711,1.6907,1.5083,1.3972,1.1172,0.7838,0.7393,0.7957,0.8877,0.9779,1.0358,1.0863,1.1365,1.1809,1.2243,1.2674,1.3103,1.37,1.4647,1.5449,1.6322,1.6909,1.7645,1.8236,1.8839,1.9408,2.0016,2.056,2.1068,2.1539,2.1993,2.2585,2.3175,2.3818,2.4308,2.4795,2.5379,2.5979,2.6399,2.6727,2.7215,2.7806,2.8035,2.8228,2.8492,2.8761,2.8892,2.9038,2.8808,2.8727,2.8586,2.8495,2.8324,2.785,2.7229,2.69,2.6893,2.6977,2.7225,2.7106,2.6952,2.6978,2.701,2.7098,2.7279,2.7556,3.8143,3.8047,3.7762,3.7194,3.652,3.6279,3.5755,3.5077,3.4927,3.4908,3.4926,3.4907,3.4965,3.5039,3.5108,3.5209,3.5315,3.5379,3.5482,3.5547,3.5591,3.5584,3.5577,3.5577,3.5584,3.5566,3.5534,3.5502,3.5496,3.5502,3.5435,3.5364,3.5315,3.5258,3.5124,3.4962,3.4434,3.3998,3.3407,3.2458,3.097,3.011,2.9663,2.9608,2.9713,2.9538,2.8798,2.6081,2.6083,2.585,2.2329,1.8054,1.9769,1.4174,0.9141,0.7623,0.7663,0.827,0.9262,1.0168,1.0807,1.1428,1.1996,1.249,1.3164,1.3761,1.4529,1.5459,1.6151,1.6765,1.7401,1.8007,1.8548,1.9093,1.9668,2.0182,2.061,2.1153,2.1732,2.2335,2.3054,2.3704,2.4238,2.4872,2.5321,2.5726,2.632,2.6681,2.6999,2.7325,2.7806,2.8063,2.8309,2.8543,2.8785,2.8975,2.9119,2.9145,2.9195,2.9209,2.9166,2.9098,2.8619,2.8305,2.8493,2.8536,2.8526,2.8225,2.783,2.7712,2.8065,2.8114,2.7842,2.8088,2.8506,3.8124,3.7943,3.7102,3.6664,3.6372,3.5658,3.5171,3.4946,3.4908,3.4927,3.4887,3.4927,3.4964,3.5091,3.5207,3.5266,3.533,3.5412,3.5501,3.5547,3.5528,3.5528,3.5528,3.5496,3.5522,3.5515,3.5501,3.5495,3.5489,3.5495,3.5427,3.533,3.53,3.5258,3.5127,3.5001,3.4793,3.4425,3.3612,3.2292,3.0857,3.0391,2.9894,2.9532,2.9375,2.9475,2.9551,2.8138,2.8948,2.8706,2.455,2.1922,2.0942,1.316,1.0204,0.9317,0.8902,0.7623,0.9,1.004,1.0933,1.1615,1.2243,1.285,1.37,1.4588,1.54,1.6073,1.6719,1.7279,1.7886,1.8452,1.8946,1.942,1.9875,2.0321,2.0759,2.1251,2.1827,2.2512,2.3201,2.3894,2.448,2.5182,2.5815,2.6225,2.6606,2.6957,2.7247,2.7509,2.7836,2.8119,2.838,2.8612,2.8834,2.9021,2.92,2.9372,2.9513,2.968,2.9626,2.9574,2.9855,2.9665,2.9809,2.9516,2.9028,2.8629,2.8338,2.8494,2.8882,2.8672,2.8274,2.8747,2.9409,3.6717,3.6607,3.6065,3.5825,3.5706,3.5243,3.4983,3.4907,3.4849,3.4849,3.4868,3.4888,3.4982,3.516,3.5254,3.535,3.5393,3.5446,3.5501,3.5534,3.5515,3.5496,3.5496,3.5483,3.5489,3.5488,3.546,3.5474,3.5468,3.5488,3.5427,3.5315,3.53,3.5223,3.5091,3.4964,3.4811,3.436,3.351,3.2484,3.1581,3.0723,3.0002,2.9593,2.9209,2.9079,2.9129,2.9196,2.9301,2.9078,2.6736,2.6237,2.4892,2.004,1.6126,1.5729,1.2508,1.0262,0.9476,1.0218,1.1115,1.1926,1.2666,1.3511,1.4529,1.5352,1.6036,1.6652,1.7179,1.7733,1.8333,1.8827,1.9303,1.9772,2.0131,2.0523,2.0957,2.1396,2.1969,2.2663,2.3377,2.4021,2.4655,2.5323,2.5901,2.626,2.6623,2.6957,2.7261,2.7539,2.7864,2.8219,2.8458,2.8637,2.8881,2.9085,2.9243,2.9392,2.957,2.9698,2.9857,2.9965,3.0123,3.0207,3.0107,2.9751,2.9351,2.9412,2.9477,2.9589,2.9701,2.9484,2.9335,2.9665,3.022,3.5643,3.5554,3.5379,3.5239,3.5124,3.5038,3.4927,3.4848,3.4829,3.4829,3.483,3.4927,3.5072,3.519,3.5285,3.5379,3.5493,3.5446,3.5482,3.5534,3.5534,3.5489,3.5489,3.5489,3.5495,3.5488,3.5427,3.5427,3.546,3.546,3.5412,3.5315,3.5315,3.5223,3.5091,3.4945,3.4791,3.4398,3.3586,3.2868,3.219,3.0953,3.0212,2.9616,2.9091,2.8597,2.8639,2.8694,2.8753,2.8745,2.8617,2.8135,2.7319,2.2817,1.9727,1.8296,1.4819,1.174,1.0939,1.108,1.1545,1.229,1.3329,1.4341,1.5342,1.6046,1.656,1.7168,1.7678,1.8182,1.8721,1.9263,1.972,2.0118,2.0523,2.0871,2.1326,2.1801,2.2259,2.2844,2.3508,2.4131,2.4799,2.5454,2.5954,2.6295,2.664,2.699,2.7293,2.7569,2.7929,2.8282,2.8513,2.8717,2.8978,2.9185,2.9302,2.9543,2.972,2.9793,2.9973,3.0016,3.0049,3.0142,3.0289,3.0132,2.9809,3.0259,3.0656,3.0366,3.02,3.0489,3.0611,3.0799,3.08,3.5577,3.5493,3.5339,3.5196,3.502,3.4927,3.4831,3.4747,3.4848,3.4849,3.4851,3.5054,3.5176,3.5223,3.5335,3.5427,3.5488,3.5493,3.5515,3.5509,3.5495,3.5501,3.5501,3.5488,3.5488,3.5474,3.5412,3.5379,3.5412,3.5398,3.5364,3.5315,3.53,3.5207,3.5091,3.4927,3.467,3.4321,3.3776,3.3185,3.242,3.1365,3.0412,2.9454,2.8701,2.8183,2.8065,2.8112,2.8148,2.8246,2.8183,2.8121,2.7123,2.3476,2.1163,1.9485,1.6305,1.3645,1.299,1.2296,1.2282,1.313,1.4154,1.5235,1.6046,1.6616,1.7179,1.7844,1.8429,1.8929,1.9361,1.9758,2.0553,2.1013,2.1496,2.1686,2.2049,2.232,2.2744,2.3112,2.3681,2.4313,2.4879,2.553,2.5954,2.6295,2.6691,2.7072,2.7404,2.7677,2.7993,2.8326,2.8585,2.8833,2.913,2.9447,2.9972,3.0176,3.03,3.0227,3.0201,3.0191,3.0525,3.0266,3.0422,3.0338,3.0279,3.0364,3.0472,3.0579,3.0639,3.0711,3.0774,3.0784,3.0818,3.5477,3.5364,3.5245,3.5127,3.5057,3.4889,3.4791,3.4747,3.4788,3.4907,3.5001,3.5143,3.5242,3.5285,3.5379,3.5501,3.5541,3.552,3.5528,3.5522,3.5515,3.5488,3.5507,3.5493,3.5493,3.5427,3.5379,3.533,3.533,3.5335,3.5339,3.5304,3.53,3.5242,3.5108,3.4908,3.4564,3.4245,3.3921,3.3405,3.2868,3.1835,3.0838,2.9796,2.8868,2.814,2.7694,2.7565,2.7577,2.756,2.7465,2.7339,2.7054,2.3962,2.2364,2.1248,1.787,1.6341,1.4907,1.4016,1.3476,1.4332,1.5225,1.6056,1.6705,1.7301,1.8046,1.8713,1.9347,1.9907,2.0873,2.147,2.2061,2.2369,2.2588,2.2706,2.2921,2.3216,2.3429,2.3926,2.4177,2.4549,2.5068,2.5584,2.5937,2.6295,2.6725,2.7171,2.7539,2.7917,2.8293,2.8844,2.9134,2.9668,2.9984,3.0365,3.0754,3.0809,3.0878,3.0884,3.0866,3.1318,3.1486,3.1047,3.0606,3.0598,3.0506,3.03,3.0304,3.0462,3.0591,3.0678,3.0725,3.0794,3.0958,3.5424,3.527,3.5126,3.5038,3.4982,3.4831,3.4711,3.4687,3.4728,3.4888,3.5075,3.516,3.5239,3.5315,3.5412,3.5515,3.5554,3.5541,3.5547,3.5547,3.5522,3.5515,3.5501,3.5488,3.5493,3.5412,3.533,3.5315,3.5315,3.5308,3.5293,3.5273,3.5273,3.5261,3.5127,3.4888,3.4539,3.4221,3.3868,3.3559,3.3094,3.2094,3.1214,3.0217,2.934,2.8399,2.7751,2.7497,2.7244,2.7024,2.6757,2.6505,2.604,2.5282,2.3999,2.2417,2.0815,1.9223,1.7442,1.5537,1.4697,1.5284,1.5979,1.6736,1.7511,1.8124,1.8931,1.9968,2.0563,2.1125,2.2066,2.2406,2.3193,2.3548,2.368,2.3822,2.4048,2.4279,2.449,2.473,2.5083,2.5519,2.5958,2.6464,2.6475,2.6718,2.6759,2.7293,2.791,2.8343,2.8794,2.9358,2.9962,3.0513,3.1093,3.1182,3.1283,3.134,3.1451,3.1684,3.184,3.2217,3.2161,3.16,3.1205,3.1016,3.0918,3.0848,3.0624,3.039,3.0578,3.0795,3.084,3.0964,3.1274,3.5364,3.5296,3.5073,3.4927,3.4812,3.4749,3.4666,3.4623,3.4666,3.481,3.5001,3.5124,3.5223,3.53,3.5364,3.5468,3.5554,3.5534,3.5528,3.5584,3.5547,3.5502,3.5489,3.5482,3.5493,3.5479,3.5383,3.53,3.53,3.5293,3.5261,3.5261,3.5261,3.5245,3.5164,3.4868,3.4561,3.425,3.3895,3.3541,3.3046,3.2125,3.1351,3.0542,2.9747,2.8783,2.796,2.7685,2.736,2.6831,2.6518,2.6192,2.5635,2.4817,2.3763,2.2762,2.147,2.0372,1.9437,1.6873,1.6181,1.6424,1.7173,1.7787,1.8589,1.928,2.0072,2.1188,2.1708,2.1908,2.2366,2.2947,2.411,2.4739,2.4898,2.5038,2.5276,2.5352,2.553,2.5601,2.6302,2.6882,2.7246,2.7494,2.7346,2.7226,2.7029,2.743,2.8308,2.8823,2.9347,3.0077,3.0761,3.131,3.1764,3.1721,3.1787,3.1867,3.2128,3.2474,3.2518,3.2574,3.2409,3.2037,3.189,3.174,3.1597,3.1487,3.1244,3.103,3.0876,3.0985,3.1006,3.1268,3.1765,3.4529,3.4391,3.4736,3.4772,3.4607,3.4626,3.458,3.4495,3.4645,3.479,3.4945,3.5089,3.5174,3.5239,3.532,3.5393,3.5515,3.5515,3.5522,3.5584,3.5528,3.5496,3.5502,3.5482,3.5493,3.5412,3.535,3.5304,3.5308,3.5277,3.5245,3.5229,3.5209,3.516,3.5038,3.4811,3.4567,3.4269,3.3868,3.3473,3.3063,3.232,3.1533,3.0696,3.0046,2.9185,2.8101,2.7976,2.7569,2.6987,2.6726,2.6325,2.5826,2.5031,2.4156,2.3239,2.2101,2.0983,2.0121,1.8625,1.8313,1.8467,1.8701,1.9275,2.0115,2.068,2.1549,2.2296,2.2939,2.3364,2.4232,2.4908,2.573,2.6191,2.641,2.6416,2.6531,2.6527,2.6612,2.6557,2.6961,2.7486,2.7883,2.8331,2.8307,2.8397,2.8317,2.8459,2.916,2.9542,3.0004,3.0861,3.1577,3.2105,3.2456,3.2488,3.2636,3.2828,3.3173,3.3547,3.3478,3.3101,3.2915,3.2697,3.2585,3.2455,3.2216,3.1989,3.1902,3.1749,3.1842,3.1862,3.2,3.2296,3.2683,3.3665,3.3551,3.413,3.4239,3.4124,3.4364,3.445,3.4409,3.4561,3.4749,3.487,3.5001,3.5107,3.5174,3.5239,3.5364,3.5474,3.5488,3.5541,3.5572,3.5528,3.5528,3.5502,3.5495,3.546,3.5398,3.535,3.5304,3.5293,3.5245,3.5209,3.5209,3.5174,3.5143,3.5001,3.4831,3.4609,3.4298,3.3921,3.3502,3.3068,3.2449,3.1794,3.105,3.0366,2.9688,2.8761,2.8192,2.7923,2.746,2.7008,2.6601,2.6047,2.5319,2.4483,2.3573,2.2721,2.1766,2.108,2.0902,2.0724,2.089,2.0768,2.0855,2.1411,2.197,2.2752,2.3527,2.4106,2.4751,2.5465,2.6215,2.6669,2.71,2.7354,2.7353,2.7507,2.7485,2.7674,2.7646,2.7838,2.8236,2.8625,2.8968,2.9291,2.9499,2.9681,2.9843,2.9972,3.0295,3.0744,3.1573,3.2211,3.2636,3.3027,3.3268,3.3478,3.3797,3.3921,3.4005,3.3924,3.3474,3.3419,3.337,3.3222,3.3037,3.2701,3.2524,3.2748,3.3014,3.328,3.3245,3.3106,3.3285,3.3587,3.2872,3.2756,3.3311,3.3429,3.3294,3.3873,3.42,3.4298,3.4495,3.4685,3.4809,3.487,3.5001,3.516,3.5193,3.5308,3.5446,3.546,3.5541,3.5572,3.5528,3.5547,3.5534,3.5515,3.546,3.5398,3.535,3.5308,3.5277,3.5226,3.519,3.519,3.519,3.516,3.5056,3.4908,3.4672,3.4386,3.3972,3.3541,3.3117,3.2588,3.1968,3.1356,3.0791,3.0061,2.9288,2.8747,2.804,2.7378,2.6714,2.6168,2.5563,2.4858,2.4357,2.3727,2.3094,2.2648,2.2432,2.2443,2.2827,2.2732,2.2178,2.2135,2.2534,2.3237,2.3824,2.4471,2.5011,2.5548,2.6147,2.663,2.7144,2.7503,2.7855,2.8061,2.8304,2.8513,2.8732,2.8942,2.9207,2.954,2.9798,3.0104,2.9962,3.0291,3.0463,3.0626,3.0765,3.101,3.1538,3.2268,3.2791,3.3082,3.3404,3.3549,3.3633,3.3716,3.3753,3.3815,3.3807,3.3762,3.365,3.3558,3.3723,3.3615,3.3324,3.3508,3.3926,3.4148,3.4148,3.4127,3.3843,3.4096,3.4392,3.203,3.1905,3.2458,3.2541,3.24,3.2913,3.3543,3.4189,3.4386,3.4558,3.4685,3.4772,3.4889,3.5001,3.5091,3.5176,3.5293,3.5383,3.546,3.5515,3.5502,3.5515,3.5489,3.5468,3.5446,3.5383,3.5339,3.5308,3.5277,3.5226,3.519,3.519,3.519,3.5176,3.5108,3.502,3.4752,3.4454,3.4055,3.3606,3.316,3.2621,3.2073,3.1562,3.0982,3.0278,2.9675,2.9175,2.8566,2.8093,2.7687,2.7221,2.6707,2.5977,2.5298,2.4103,2.3526,2.3198,2.3198,2.3412,2.3754,2.4234,2.3927,2.405,2.4313,2.4426,2.4788,2.5148,2.5564,2.5974,2.6336,2.6841,2.735,2.7755,2.8103,2.8396,2.8668,2.8936,2.9198,2.956,2.9886,3.0087,3.0443,3.0518,3.0409,3.0834,3.1145,3.1278,3.1472,3.1655,3.2013,3.2713,3.3042,3.3178,3.3345,3.3509,3.3538,3.3577,3.3633,3.3643,3.3643,3.3643,3.3689,3.3726,3.3834,3.3943,3.4022,3.4222,3.4333,3.4517,3.4528,3.4618,3.469,3.4789,3.4931,3.1179,3.1096,3.1602,3.1786,3.1834,3.2066,3.2607,3.3258,3.3995,3.445,3.4561,3.471,3.4812,3.4908,3.4982,3.5091,3.5209,3.5273,3.5369,3.5441,3.5435,3.5449,3.5416,3.5393,3.5364,3.532,3.5324,3.5277,3.5261,3.5245,3.5209,3.5226,3.5226,3.5245,3.5196,3.5091,3.4908,3.4588,3.4208,3.3725,3.3243,3.2734,3.2162,3.16,3.1038,3.0468,2.9913,2.947,2.8982,2.8541,2.8122,2.756,2.693,2.6068,2.5287,2.4195,2.3839,2.3688,2.3793,2.4073,2.4465,2.4878,2.5272,2.53,2.5287,2.537,2.5398,2.5508,2.5839,2.6204,2.6578,2.6945,2.7408,2.794,2.8268,2.8668,2.8936,2.9198,2.956,2.9886,3.0146,3.03,3.0468,3.0609,3.0773,3.1055,3.1312,3.1565,3.1771,3.1987,3.2294,3.2798,3.2993,3.3147,3.3316,3.3422,3.3452,3.3481,3.3481,3.352,3.352,3.3577,3.3633,3.3753,3.3868,3.4037,3.4195,3.4302,3.4416,3.4604,3.473,3.4737,3.4824,3.5031,3.522,3.043,3.0362,3.0782,3.107,3.1362,3.1311,3.1403,3.1671,3.3231,3.4195,3.4308,3.4492,3.4619,3.4793,3.4908,3.5001,3.5107,3.5193,3.5273,3.5383,3.5315,3.533,3.5345,3.5315,3.5289,3.5258,3.5261,3.5229,3.5229,3.5229,3.5261,3.5312,3.5327,3.5327,3.5293,3.519,3.5053,3.487,3.4461,3.4012,3.3447,3.2908,3.2352,3.1731,3.114,3.051,3.0017,2.9486,2.8905,2.8381,2.7875,2.7357,2.651,2.566,2.4865,2.4478,2.4216,2.4247,2.4408,2.4694,2.5147,2.555,2.5893,2.5948,2.5934,2.5839,2.5784,2.5729,2.6002,2.6312,2.663,2.71,2.7575,2.8073,2.8462,2.8842,2.9213,2.9515,2.9913,3.0231,3.0359,3.0601,3.1141,3.1331,3.1688,3.1585,3.1854,3.2211,3.24,3.2669,3.2733,3.303,3.3028,3.3183,3.3316,3.3422,3.3393,3.3393,3.3422,3.3452,3.3509,3.3549,3.3605,3.3753,3.3921,3.4099,3.425,3.434,3.4473,3.4623,3.4728,3.481,3.4927,3.5108,3.5273,3.0422,3.0254,2.9993,2.9843,2.9865,3.0294,3.0557,3.0771,3.1821,3.278,3.3418,3.3636,3.4024,3.4485,3.4584,3.468,3.4887,3.4918,3.5155,3.5242,3.5207,3.5239,3.5273,3.5207,3.5174,3.5141,3.5143,3.5198,3.5215,3.5248,3.5277,3.5293,3.5358,3.5388,3.5383,3.5285,3.5187,3.5107,3.4734,3.4284,3.3715,3.3166,3.2603,3.1967,3.1338,3.074,3.0199,2.9576,2.8982,2.8429,2.7875,2.7152,2.6272,2.5495,2.5104,2.4935,2.4734,2.4821,2.5021,2.5314,2.5715,2.6028,2.6258,2.6351,2.6312,2.6165,2.6056,2.6002,2.6111,2.6418,2.6788,2.7269,2.7775,2.822,2.8685,2.9075,2.9502,2.9886,3.03,3.0443,3.0609,3.1074,3.1672,3.2097,3.2473,3.2855,3.3294,3.3654,3.3726,3.3862,3.3439,3.3562,3.319,3.3255,3.3424,3.352,3.3574,3.3447,3.3422,3.3422,3.3499,3.3577,3.3671,3.3834,3.3972,3.4124,3.4269,3.4363,3.4473,3.4602,3.4687,3.4749,3.481,3.4946,3.5126,3.0348,3.015,2.9681,2.9351,2.9292,2.954,2.9747,2.9935,3.0387,3.1147,3.2086,3.2524,3.3058,3.3535,3.3598,3.4073,3.4283,3.4413,3.475,3.4994,3.5162,3.516,3.5143,3.5126,3.5126,3.5108,3.5127,3.5164,3.52,3.5264,3.5312,3.5339,3.5417,3.5474,3.5468,3.5422,3.5345,3.5273,3.4981,3.4574,3.4037,3.3505,3.2939,3.2299,3.166,3.1027,3.0393,2.9766,2.9152,2.8462,2.7825,2.7152,2.6418,2.5825,2.5508,2.5453,2.5397,2.5453,2.5701,2.592,2.6204,2.6525,2.6645,2.6698,2.6592,2.6447,2.634,2.6286,2.6312,2.651,2.6997,2.7473,2.8057,2.8542,2.8997,2.9425,2.9913,3.0326,3.0593,3.0733,3.1113,3.1803,3.2354,3.2819,3.3162,3.3465,3.4024,3.4397,3.4609,3.5006,3.4606,3.4365,3.4207,3.3885,3.4003,3.3991,3.3882,3.3701,3.3622,3.3564,3.3668,3.3707,3.3762,3.3895,3.4023,3.4105,3.4227,3.434,3.4431,3.4539,3.4604,3.4708,3.4787,3.4961,3.5249,2.9941,2.9836,2.9514,2.9289,2.9156,2.904,2.9081,2.9211,2.9233,2.9709,3.0565,3.1299,3.1719,3.2045,3.2142,3.2825,3.3393,3.3791,3.4263,3.4812,3.5039,3.5038,3.5038,3.5038,3.5057,3.5075,3.5111,3.5147,3.5164,3.5264,3.5343,3.5417,3.5488,3.556,3.5579,3.556,3.547,3.5374,3.5152,3.4925,3.4408,3.388,3.3266,3.2666,3.2056,3.1359,3.069,3.0038,2.9393,2.8669,2.7925,2.7269,2.6788,2.6312,2.6136,2.5974,2.5918,2.6054,2.6312,2.651,2.675,2.6974,2.7041,2.7018,2.698,2.6808,2.6635,2.6645,2.663,2.6774,2.7255,2.776,2.8286,2.8935,2.9393,2.9853,3.0326,3.0757,3.0952,3.1106,3.1772,3.2457,3.3208,3.3676,3.3985,3.4231,3.4515,3.4746,3.5129,3.5627,3.5758,3.5757,3.5733,3.5415,3.4888,3.4679,3.454,3.4461,3.4413,3.4076,3.3853,3.3863,3.3915,3.3972,3.4099,3.4247,3.4264,3.434,3.4409,3.4607,3.4561,3.4741,3.5157,3.5331,3.556,2.8417,2.8738,2.9096,2.9141,2.9021,2.8952,2.8934,2.904,2.9108,2.9285,2.9558,2.9728,3.0429,3.2002,3.2081,3.248,3.2935,3.3221,3.3979,3.4737,3.4718,3.4794,3.487,3.487,3.4927,3.4984,3.5039,3.5075,3.5127,3.5229,3.5339,3.5412,3.5528,3.5589,3.5604,3.5574,3.555,3.5464,3.5307,3.5083,3.4775,3.4209,3.3579,3.2965,3.2401,3.177,3.1145,3.0418,2.9793,2.909,2.8301,2.7675,2.7255,2.693,2.6759,2.6678,2.662,2.6753,2.6953,2.724,2.752,2.7637,2.7682,2.7558,2.744,2.7225,2.7181,2.7181,2.7152,2.7203,2.761,2.8027,2.8543,2.9361,2.9951,3.0393,3.0878,3.1185,3.1426,3.1901,3.2513,3.3476,3.4599,3.5002,3.5319,3.5618,3.5906,3.6141,3.6189,3.6534,3.6788,3.6899,3.6969,3.6443,3.566,3.5539,3.5444,3.5349,3.5224,3.4973,3.4576,3.4091,3.4123,3.4534,3.4426,3.4408,3.4431,3.4881,3.4782,3.494,3.4689,3.4773,3.5299,3.581,3.6133]}]]